<?xml version="1.0" encoding="UTF-8" standalone="no" ?>
<gpx xmlns="http://www.topografix.com/GPX/1/1" xmlns:xsi="http://www.w3.org/2001/XMLSchema-instance" xsi:schemaLocation="http://www.topografix.com/GPX/1/1 http://www.topografix.com/GPX/1/1/gpx.xsd" version="1.1" creator="VisuGPX - https://www.visugpx.com">
  <metadata>
    <name>tour le corbelet</name>
    <desc><![CDATA[tour le corbelet   grapillon
]]></desc>
  </metadata>
  <trk>
    <name><![CDATA[15-MAI-11 17:11:09]]></name>
    <trkseg>
      <trkpt lat="45.55371" lon="5.91508">
        <ele>384.18</ele>
        <time>2011-05-15T10:08:14Z</time>
      </trkpt>
      <trkpt lat="45.55372" lon="5.91508">
        <ele>387.07</ele>
        <time>2011-05-15T10:08:21Z</time>
      </trkpt>
      <trkpt lat="45.55372" lon="5.9151">
        <ele>390.43</ele>
        <time>2011-05-15T10:08:31Z</time>
      </trkpt>
      <trkpt lat="45.5537" lon="5.9151">
        <ele>390.91</ele>
        <time>2011-05-15T10:08:32Z</time>
      </trkpt>
      <trkpt lat="45.55366" lon="5.9151">
        <ele>391.87</ele>
        <time>2011-05-15T10:08:34Z</time>
      </trkpt>
      <trkpt lat="45.55356" lon="5.91509">
        <ele>393.32</ele>
        <time>2011-05-15T10:08:44Z</time>
      </trkpt>
      <trkpt lat="45.55332" lon="5.91507">
        <ele>396.2</ele>
        <time>2011-05-15T10:08:58Z</time>
      </trkpt>
      <trkpt lat="45.55327" lon="5.91506">
        <ele>397.16</ele>
        <time>2011-05-15T10:08:59Z</time>
      </trkpt>
      <trkpt lat="45.55323" lon="5.91505">
        <ele>396.68</ele>
        <time>2011-05-15T10:09:00Z</time>
      </trkpt>
      <trkpt lat="45.55319" lon="5.91503">
        <ele>396.2</ele>
        <time>2011-05-15T10:09:01Z</time>
      </trkpt>
      <trkpt lat="45.55316" lon="5.915">
        <ele>395.24</ele>
        <time>2011-05-15T10:09:02Z</time>
      </trkpt>
      <trkpt lat="45.55315" lon="5.91497">
        <ele>395.24</ele>
        <time>2011-05-15T10:09:03Z</time>
      </trkpt>
      <trkpt lat="45.55335" lon="5.91469">
        <ele>391.39</ele>
        <time>2011-05-15T10:09:09Z</time>
      </trkpt>
      <trkpt lat="45.55352" lon="5.91449">
        <ele>389.95</ele>
        <time>2011-05-15T10:09:12Z</time>
      </trkpt>
      <trkpt lat="45.55354" lon="5.91443">
        <ele>390.91</ele>
        <time>2011-05-15T10:09:13Z</time>
      </trkpt>
      <trkpt lat="45.55356" lon="5.91438">
        <ele>390.43</ele>
        <time>2011-05-15T10:09:14Z</time>
      </trkpt>
      <trkpt lat="45.55357" lon="5.91434">
        <ele>390.43</ele>
        <time>2011-05-15T10:09:15Z</time>
      </trkpt>
      <trkpt lat="45.55358" lon="5.9143">
        <ele>390.43</ele>
        <time>2011-05-15T10:09:16Z</time>
      </trkpt>
      <trkpt lat="45.55359" lon="5.91427">
        <ele>390.91</ele>
        <time>2011-05-15T10:09:17Z</time>
      </trkpt>
      <trkpt lat="45.55362" lon="5.91427">
        <ele>388.99</ele>
        <time>2011-05-15T10:09:18Z</time>
      </trkpt>
      <trkpt lat="45.55366" lon="5.91428">
        <ele>388.03</ele>
        <time>2011-05-15T10:09:19Z</time>
      </trkpt>
      <trkpt lat="45.5537" lon="5.91428">
        <ele>388.99</ele>
        <time>2011-05-15T10:09:20Z</time>
      </trkpt>
      <trkpt lat="45.55376" lon="5.9143">
        <ele>388.51</ele>
        <time>2011-05-15T10:09:21Z</time>
      </trkpt>
      <trkpt lat="45.55381" lon="5.91431">
        <ele>388.03</ele>
        <time>2011-05-15T10:09:22Z</time>
      </trkpt>
      <trkpt lat="45.55389" lon="5.91434">
        <ele>388.03</ele>
        <time>2011-05-15T10:09:23Z</time>
      </trkpt>
      <trkpt lat="45.55396" lon="5.91435">
        <ele>387.55</ele>
        <time>2011-05-15T10:09:24Z</time>
      </trkpt>
      <trkpt lat="45.55402" lon="5.91436">
        <ele>386.11</ele>
        <time>2011-05-15T10:09:25Z</time>
      </trkpt>
      <trkpt lat="45.5541" lon="5.91436">
        <ele>385.63</ele>
        <time>2011-05-15T10:09:26Z</time>
      </trkpt>
      <trkpt lat="45.55418" lon="5.91435">
        <ele>384.66</ele>
        <time>2011-05-15T10:09:27Z</time>
      </trkpt>
      <trkpt lat="45.55427" lon="5.91433">
        <ele>384.18</ele>
        <time>2011-05-15T10:09:28Z</time>
      </trkpt>
      <trkpt lat="45.55436" lon="5.91429">
        <ele>383.7</ele>
        <time>2011-05-15T10:09:29Z</time>
      </trkpt>
      <trkpt lat="45.55446" lon="5.91424">
        <ele>383.22</ele>
        <time>2011-05-15T10:09:30Z</time>
      </trkpt>
      <trkpt lat="45.55454" lon="5.91418">
        <ele>382.26</ele>
        <time>2011-05-15T10:09:31Z</time>
      </trkpt>
      <trkpt lat="45.55462" lon="5.9141">
        <ele>381.78</ele>
        <time>2011-05-15T10:09:32Z</time>
      </trkpt>
      <trkpt lat="45.55469" lon="5.914">
        <ele>381.78</ele>
        <time>2011-05-15T10:09:33Z</time>
      </trkpt>
      <trkpt lat="45.55475" lon="5.91388">
        <ele>379.86</ele>
        <time>2011-05-15T10:09:34Z</time>
      </trkpt>
      <trkpt lat="45.55479" lon="5.91375">
        <ele>379.38</ele>
        <time>2011-05-15T10:09:35Z</time>
      </trkpt>
      <trkpt lat="45.55483" lon="5.91361">
        <ele>377.94</ele>
        <time>2011-05-15T10:09:36Z</time>
      </trkpt>
      <trkpt lat="45.55485" lon="5.91346">
        <ele>376.97</ele>
        <time>2011-05-15T10:09:37Z</time>
      </trkpt>
      <trkpt lat="45.55485" lon="5.9133">
        <ele>375.53</ele>
        <time>2011-05-15T10:09:38Z</time>
      </trkpt>
      <trkpt lat="45.55484" lon="5.91314">
        <ele>375.53</ele>
        <time>2011-05-15T10:09:39Z</time>
      </trkpt>
      <trkpt lat="45.55481" lon="5.91298">
        <ele>374.57</ele>
        <time>2011-05-15T10:09:40Z</time>
      </trkpt>
      <trkpt lat="45.55477" lon="5.91283">
        <ele>374.09</ele>
        <time>2011-05-15T10:09:41Z</time>
      </trkpt>
      <trkpt lat="45.5547" lon="5.91269">
        <ele>372.17</ele>
        <time>2011-05-15T10:09:42Z</time>
      </trkpt>
      <trkpt lat="45.55461" lon="5.91257">
        <ele>371.21</ele>
        <time>2011-05-15T10:09:43Z</time>
      </trkpt>
      <trkpt lat="45.55452" lon="5.91247">
        <ele>370.24</ele>
        <time>2011-05-15T10:09:44Z</time>
      </trkpt>
      <trkpt lat="45.55443" lon="5.91238">
        <ele>369.76</ele>
        <time>2011-05-15T10:09:45Z</time>
      </trkpt>
      <trkpt lat="45.55431" lon="5.91221">
        <ele>367.84</ele>
        <time>2011-05-15T10:09:47Z</time>
      </trkpt>
      <trkpt lat="45.5543" lon="5.91211">
        <ele>367.36</ele>
        <time>2011-05-15T10:09:48Z</time>
      </trkpt>
      <trkpt lat="45.5543" lon="5.91202">
        <ele>366.88</ele>
        <time>2011-05-15T10:09:49Z</time>
      </trkpt>
      <trkpt lat="45.55433" lon="5.91193">
        <ele>365.92</ele>
        <time>2011-05-15T10:09:50Z</time>
      </trkpt>
      <trkpt lat="45.55437" lon="5.91186">
        <ele>365.44</ele>
        <time>2011-05-15T10:09:51Z</time>
      </trkpt>
      <trkpt lat="45.55441" lon="5.91183">
        <ele>364.96</ele>
        <time>2011-05-15T10:09:52Z</time>
      </trkpt>
      <trkpt lat="45.55445" lon="5.91178">
        <ele>364.96</ele>
        <time>2011-05-15T10:09:53Z</time>
      </trkpt>
      <trkpt lat="45.55446" lon="5.91172">
        <ele>364.96</ele>
        <time>2011-05-15T10:09:54Z</time>
      </trkpt>
      <trkpt lat="45.55445" lon="5.91165">
        <ele>364.96</ele>
        <time>2011-05-15T10:09:55Z</time>
      </trkpt>
      <trkpt lat="45.55442" lon="5.91158">
        <ele>364.48</ele>
        <time>2011-05-15T10:09:56Z</time>
      </trkpt>
      <trkpt lat="45.55438" lon="5.91151">
        <ele>364</ele>
        <time>2011-05-15T10:09:57Z</time>
      </trkpt>
      <trkpt lat="45.55433" lon="5.91144">
        <ele>363.52</ele>
        <time>2011-05-15T10:09:58Z</time>
      </trkpt>
      <trkpt lat="45.55422" lon="5.91129">
        <ele>362.55</ele>
        <time>2011-05-15T10:10:00Z</time>
      </trkpt>
      <trkpt lat="45.55415" lon="5.91123">
        <ele>362.55</ele>
        <time>2011-05-15T10:10:01Z</time>
      </trkpt>
      <trkpt lat="45.55408" lon="5.91119">
        <ele>362.55</ele>
        <time>2011-05-15T10:10:02Z</time>
      </trkpt>
      <trkpt lat="45.55401" lon="5.91117">
        <ele>363.04</ele>
        <time>2011-05-15T10:10:03Z</time>
      </trkpt>
      <trkpt lat="45.55393" lon="5.91117">
        <ele>363.04</ele>
        <time>2011-05-15T10:10:04Z</time>
      </trkpt>
      <trkpt lat="45.55386" lon="5.91118">
        <ele>363.04</ele>
        <time>2011-05-15T10:10:05Z</time>
      </trkpt>
      <trkpt lat="45.5538" lon="5.9112">
        <ele>363.04</ele>
        <time>2011-05-15T10:10:06Z</time>
      </trkpt>
      <trkpt lat="45.55374" lon="5.91123">
        <ele>363.52</ele>
        <time>2011-05-15T10:10:07Z</time>
      </trkpt>
      <trkpt lat="45.55361" lon="5.91127">
        <ele>362.55</ele>
        <time>2011-05-15T10:10:09Z</time>
      </trkpt>
      <trkpt lat="45.55354" lon="5.91127">
        <ele>363.04</ele>
        <time>2011-05-15T10:10:10Z</time>
      </trkpt>
      <trkpt lat="45.5534" lon="5.91127">
        <ele>363.04</ele>
        <time>2011-05-15T10:10:12Z</time>
      </trkpt>
      <trkpt lat="45.55334" lon="5.91129">
        <ele>363.52</ele>
        <time>2011-05-15T10:10:13Z</time>
      </trkpt>
      <trkpt lat="45.55328" lon="5.9113">
        <ele>363.52</ele>
        <time>2011-05-15T10:10:14Z</time>
      </trkpt>
      <trkpt lat="45.55322" lon="5.91131">
        <ele>364.48</ele>
        <time>2011-05-15T10:10:15Z</time>
      </trkpt>
      <trkpt lat="45.55318" lon="5.91131">
        <ele>364.96</ele>
        <time>2011-05-15T10:10:16Z</time>
      </trkpt>
      <trkpt lat="45.55314" lon="5.9113">
        <ele>365.44</ele>
        <time>2011-05-15T10:10:17Z</time>
      </trkpt>
      <trkpt lat="45.55311" lon="5.91129">
        <ele>365.92</ele>
        <time>2011-05-15T10:10:18Z</time>
      </trkpt>
      <trkpt lat="45.55289" lon="5.91115">
        <ele>369.28</ele>
        <time>2011-05-15T10:10:29Z</time>
      </trkpt>
      <trkpt lat="45.55271" lon="5.91109">
        <ele>373.13</ele>
        <time>2011-05-15T10:10:39Z</time>
      </trkpt>
      <trkpt lat="45.55267" lon="5.91108">
        <ele>373.61</ele>
        <time>2011-05-15T10:10:41Z</time>
      </trkpt>
      <trkpt lat="45.55248" lon="5.91105">
        <ele>376.97</ele>
        <time>2011-05-15T10:10:52Z</time>
      </trkpt>
      <trkpt lat="45.55241" lon="5.91105">
        <ele>378.42</ele>
        <time>2011-05-15T10:10:56Z</time>
      </trkpt>
      <trkpt lat="45.5523" lon="5.91106">
        <ele>380.34</ele>
        <time>2011-05-15T10:11:02Z</time>
      </trkpt>
      <trkpt lat="45.55228" lon="5.91105">
        <ele>380.34</ele>
        <time>2011-05-15T10:11:03Z</time>
      </trkpt>
      <trkpt lat="45.55226" lon="5.91105">
        <ele>380.82</ele>
        <time>2011-05-15T10:11:04Z</time>
      </trkpt>
      <trkpt lat="45.55209" lon="5.91098">
        <ele>384.18</ele>
        <time>2011-05-15T10:11:14Z</time>
      </trkpt>
      <trkpt lat="45.55183" lon="5.91067">
        <ele>387.07</ele>
        <time>2011-05-15T10:11:30Z</time>
      </trkpt>
      <trkpt lat="45.55145" lon="5.91038">
        <ele>389.95</ele>
        <time>2011-05-15T10:11:47Z</time>
      </trkpt>
      <trkpt lat="45.55114" lon="5.91024">
        <ele>393.32</ele>
        <time>2011-05-15T10:12:02Z</time>
      </trkpt>
      <trkpt lat="45.55094" lon="5.91009">
        <ele>396.68</ele>
        <time>2011-05-15T10:12:15Z</time>
      </trkpt>
      <trkpt lat="45.55073" lon="5.90998">
        <ele>399.57</ele>
        <time>2011-05-15T10:12:29Z</time>
      </trkpt>
      <trkpt lat="45.55055" lon="5.9099">
        <ele>402.93</ele>
        <time>2011-05-15T10:12:42Z</time>
      </trkpt>
      <trkpt lat="45.5503" lon="5.90982">
        <ele>406.29</ele>
        <time>2011-05-15T10:12:58Z</time>
      </trkpt>
      <trkpt lat="45.55017" lon="5.90978">
        <ele>408.22</ele>
        <time>2011-05-15T10:13:07Z</time>
      </trkpt>
      <trkpt lat="45.55016" lon="5.90979">
        <ele>408.7</ele>
        <time>2011-05-15T10:13:08Z</time>
      </trkpt>
      <trkpt lat="45.55014" lon="5.90979">
        <ele>408.7</ele>
        <time>2011-05-15T10:13:09Z</time>
      </trkpt>
      <trkpt lat="45.55013" lon="5.90979">
        <ele>409.18</ele>
        <time>2011-05-15T10:13:10Z</time>
      </trkpt>
      <trkpt lat="45.55012" lon="5.90978">
        <ele>409.18</ele>
        <time>2011-05-15T10:13:11Z</time>
      </trkpt>
      <trkpt lat="45.55011" lon="5.90977">
        <ele>409.18</ele>
        <time>2011-05-15T10:13:12Z</time>
      </trkpt>
      <trkpt lat="45.5501" lon="5.90976">
        <ele>409.66</ele>
        <time>2011-05-15T10:13:13Z</time>
      </trkpt>
      <trkpt lat="45.55008" lon="5.90975">
        <ele>409.66</ele>
        <time>2011-05-15T10:13:14Z</time>
      </trkpt>
      <trkpt lat="45.55007" lon="5.90974">
        <ele>410.14</ele>
        <time>2011-05-15T10:13:15Z</time>
      </trkpt>
      <trkpt lat="45.55006" lon="5.90974">
        <ele>410.62</ele>
        <time>2011-05-15T10:13:16Z</time>
      </trkpt>
      <trkpt lat="45.55004" lon="5.90974">
        <ele>410.62</ele>
        <time>2011-05-15T10:13:17Z</time>
      </trkpt>
      <trkpt lat="45.55003" lon="5.90973">
        <ele>411.1</ele>
        <time>2011-05-15T10:13:18Z</time>
      </trkpt>
      <trkpt lat="45.54981" lon="5.90957">
        <ele>413.98</ele>
        <time>2011-05-15T10:13:32Z</time>
      </trkpt>
      <trkpt lat="45.54952" lon="5.90939">
        <ele>416.87</ele>
        <time>2011-05-15T10:13:47Z</time>
      </trkpt>
      <trkpt lat="45.54922" lon="5.9092">
        <ele>418.31</ele>
        <time>2011-05-15T10:14:00Z</time>
      </trkpt>
      <trkpt lat="45.54869" lon="5.90892">
        <ele>420.23</ele>
        <time>2011-05-15T10:14:16Z</time>
      </trkpt>
      <trkpt lat="45.54827" lon="5.9086">
        <ele>421.19</ele>
        <time>2011-05-15T10:14:29Z</time>
      </trkpt>
      <trkpt lat="45.54816" lon="5.90849">
        <ele>420.23</ele>
        <time>2011-05-15T10:14:31Z</time>
      </trkpt>
      <trkpt lat="45.54812" lon="5.90842">
        <ele>419.75</ele>
        <time>2011-05-15T10:14:32Z</time>
      </trkpt>
      <trkpt lat="45.54789" lon="5.90809">
        <ele>418.31</ele>
        <time>2011-05-15T10:14:36Z</time>
      </trkpt>
      <trkpt lat="45.5475" lon="5.90757">
        <ele>415.43</ele>
        <time>2011-05-15T10:14:42Z</time>
      </trkpt>
      <trkpt lat="45.54667" lon="5.90638">
        <ele>415.43</ele>
        <time>2011-05-15T10:14:57Z</time>
      </trkpt>
      <trkpt lat="45.54664" lon="5.90631">
        <ele>416.39</ele>
        <time>2011-05-15T10:14:58Z</time>
      </trkpt>
      <trkpt lat="45.54662" lon="5.90623">
        <ele>415.43</ele>
        <time>2011-05-15T10:14:59Z</time>
      </trkpt>
      <trkpt lat="45.54659" lon="5.90615">
        <ele>415.43</ele>
        <time>2011-05-15T10:15:00Z</time>
      </trkpt>
      <trkpt lat="45.54655" lon="5.90608">
        <ele>414.47</ele>
        <time>2011-05-15T10:15:01Z</time>
      </trkpt>
      <trkpt lat="45.5465" lon="5.90603">
        <ele>414.95</ele>
        <time>2011-05-15T10:15:02Z</time>
      </trkpt>
      <trkpt lat="45.54645" lon="5.90599">
        <ele>415.43</ele>
        <time>2011-05-15T10:15:03Z</time>
      </trkpt>
      <trkpt lat="45.54631" lon="5.90587">
        <ele>417.35</ele>
        <time>2011-05-15T10:15:06Z</time>
      </trkpt>
      <trkpt lat="45.5458" lon="5.90543">
        <ele>418.79</ele>
        <time>2011-05-15T10:15:18Z</time>
      </trkpt>
      <trkpt lat="45.54558" lon="5.90532">
        <ele>420.23</ele>
        <time>2011-05-15T10:15:23Z</time>
      </trkpt>
      <trkpt lat="45.54549" lon="5.9053">
        <ele>420.23</ele>
        <time>2011-05-15T10:15:25Z</time>
      </trkpt>
      <trkpt lat="45.54496" lon="5.9051">
        <ele>421.19</ele>
        <time>2011-05-15T10:15:36Z</time>
      </trkpt>
      <trkpt lat="45.5449" lon="5.90508">
        <ele>420.71</ele>
        <time>2011-05-15T10:15:37Z</time>
      </trkpt>
      <trkpt lat="45.54485" lon="5.90504">
        <ele>420.23</ele>
        <time>2011-05-15T10:15:38Z</time>
      </trkpt>
      <trkpt lat="45.54465" lon="5.90492">
        <ele>418.79</ele>
        <time>2011-05-15T10:15:41Z</time>
      </trkpt>
      <trkpt lat="45.5445" lon="5.90481">
        <ele>417.35</ele>
        <time>2011-05-15T10:15:43Z</time>
      </trkpt>
      <trkpt lat="45.54444" lon="5.90473">
        <ele>416.87</ele>
        <time>2011-05-15T10:15:44Z</time>
      </trkpt>
      <trkpt lat="45.54438" lon="5.90463">
        <ele>415.91</ele>
        <time>2011-05-15T10:15:45Z</time>
      </trkpt>
      <trkpt lat="45.54433" lon="5.90451">
        <ele>414.95</ele>
        <time>2011-05-15T10:15:46Z</time>
      </trkpt>
      <trkpt lat="45.54428" lon="5.90439">
        <ele>413.98</ele>
        <time>2011-05-15T10:15:47Z</time>
      </trkpt>
      <trkpt lat="45.54422" lon="5.90428">
        <ele>413.5</ele>
        <time>2011-05-15T10:15:48Z</time>
      </trkpt>
      <trkpt lat="45.54416" lon="5.90419">
        <ele>412.54</ele>
        <time>2011-05-15T10:15:49Z</time>
      </trkpt>
      <trkpt lat="45.54411" lon="5.90409">
        <ele>412.06</ele>
        <time>2011-05-15T10:15:50Z</time>
      </trkpt>
      <trkpt lat="45.54409" lon="5.90398">
        <ele>411.58</ele>
        <time>2011-05-15T10:15:51Z</time>
      </trkpt>
      <trkpt lat="45.54411" lon="5.90388">
        <ele>410.14</ele>
        <time>2011-05-15T10:15:52Z</time>
      </trkpt>
      <trkpt lat="45.54416" lon="5.9038">
        <ele>409.18</ele>
        <time>2011-05-15T10:15:53Z</time>
      </trkpt>
      <trkpt lat="45.54424" lon="5.90374">
        <ele>408.22</ele>
        <time>2011-05-15T10:15:54Z</time>
      </trkpt>
      <trkpt lat="45.54432" lon="5.9037">
        <ele>407.74</ele>
        <time>2011-05-15T10:15:55Z</time>
      </trkpt>
      <trkpt lat="45.54441" lon="5.90367">
        <ele>407.26</ele>
        <time>2011-05-15T10:15:56Z</time>
      </trkpt>
      <trkpt lat="45.54468" lon="5.90354">
        <ele>404.37</ele>
        <time>2011-05-15T10:15:59Z</time>
      </trkpt>
      <trkpt lat="45.54498" lon="5.90339">
        <ele>401.01</ele>
        <time>2011-05-15T10:16:02Z</time>
      </trkpt>
      <trkpt lat="45.54508" lon="5.90332">
        <ele>400.05</ele>
        <time>2011-05-15T10:16:03Z</time>
      </trkpt>
      <trkpt lat="45.54516" lon="5.90321">
        <ele>398.6</ele>
        <time>2011-05-15T10:16:04Z</time>
      </trkpt>
      <trkpt lat="45.54522" lon="5.90308">
        <ele>398.12</ele>
        <time>2011-05-15T10:16:05Z</time>
      </trkpt>
      <trkpt lat="45.54526" lon="5.90293">
        <ele>397.16</ele>
        <time>2011-05-15T10:16:06Z</time>
      </trkpt>
      <trkpt lat="45.5453" lon="5.90278">
        <ele>396.2</ele>
        <time>2011-05-15T10:16:07Z</time>
      </trkpt>
      <trkpt lat="45.54532" lon="5.90262">
        <ele>396.2</ele>
        <time>2011-05-15T10:16:08Z</time>
      </trkpt>
      <trkpt lat="45.5454" lon="5.90217">
        <ele>393.32</ele>
        <time>2011-05-15T10:16:11Z</time>
      </trkpt>
      <trkpt lat="45.54544" lon="5.90205">
        <ele>392.36</ele>
        <time>2011-05-15T10:16:12Z</time>
      </trkpt>
      <trkpt lat="45.54551" lon="5.90194">
        <ele>391.39</ele>
        <time>2011-05-15T10:16:13Z</time>
      </trkpt>
      <trkpt lat="45.54559" lon="5.90186">
        <ele>390.43</ele>
        <time>2011-05-15T10:16:14Z</time>
      </trkpt>
      <trkpt lat="45.54569" lon="5.90182">
        <ele>388.99</ele>
        <time>2011-05-15T10:16:15Z</time>
      </trkpt>
      <trkpt lat="45.54579" lon="5.90181">
        <ele>388.03</ele>
        <time>2011-05-15T10:16:16Z</time>
      </trkpt>
      <trkpt lat="45.5459" lon="5.90182">
        <ele>387.55</ele>
        <time>2011-05-15T10:16:17Z</time>
      </trkpt>
      <trkpt lat="45.54623" lon="5.90185">
        <ele>383.7</ele>
        <time>2011-05-15T10:16:20Z</time>
      </trkpt>
      <trkpt lat="45.54669" lon="5.90189">
        <ele>380.34</ele>
        <time>2011-05-15T10:16:24Z</time>
      </trkpt>
      <trkpt lat="45.54705" lon="5.90191">
        <ele>378.42</ele>
        <time>2011-05-15T10:16:27Z</time>
      </trkpt>
      <trkpt lat="45.54728" lon="5.90193">
        <ele>376.49</ele>
        <time>2011-05-15T10:16:29Z</time>
      </trkpt>
      <trkpt lat="45.54738" lon="5.9019">
        <ele>375.05</ele>
        <time>2011-05-15T10:16:30Z</time>
      </trkpt>
      <trkpt lat="45.54748" lon="5.90182">
        <ele>372.65</ele>
        <time>2011-05-15T10:16:31Z</time>
      </trkpt>
      <trkpt lat="45.54755" lon="5.90172">
        <ele>371.69</ele>
        <time>2011-05-15T10:16:32Z</time>
      </trkpt>
      <trkpt lat="45.54762" lon="5.9016">
        <ele>371.21</ele>
        <time>2011-05-15T10:16:33Z</time>
      </trkpt>
      <trkpt lat="45.54768" lon="5.90147">
        <ele>369.76</ele>
        <time>2011-05-15T10:16:34Z</time>
      </trkpt>
      <trkpt lat="45.54792" lon="5.90097">
        <ele>366.4</ele>
        <time>2011-05-15T10:16:38Z</time>
      </trkpt>
      <trkpt lat="45.54805" lon="5.90072">
        <ele>365.44</ele>
        <time>2011-05-15T10:16:41Z</time>
      </trkpt>
      <trkpt lat="45.54808" lon="5.90066">
        <ele>364</ele>
        <time>2011-05-15T10:16:42Z</time>
      </trkpt>
      <trkpt lat="45.5481" lon="5.90062">
        <ele>364</ele>
        <time>2011-05-15T10:16:43Z</time>
      </trkpt>
      <trkpt lat="45.54812" lon="5.90059">
        <ele>363.52</ele>
        <time>2011-05-15T10:16:44Z</time>
      </trkpt>
      <trkpt lat="45.54813" lon="5.90056">
        <ele>363.04</ele>
        <time>2011-05-15T10:16:45Z</time>
      </trkpt>
      <trkpt lat="45.54815" lon="5.90053">
        <ele>363.52</ele>
        <time>2011-05-15T10:16:46Z</time>
      </trkpt>
      <trkpt lat="45.54816" lon="5.9005">
        <ele>363.04</ele>
        <time>2011-05-15T10:16:47Z</time>
      </trkpt>
      <trkpt lat="45.54821" lon="5.90041">
        <ele>363.04</ele>
        <time>2011-05-15T10:16:51Z</time>
      </trkpt>
      <trkpt lat="45.5482" lon="5.90038">
        <ele>362.55</ele>
        <time>2011-05-15T10:16:52Z</time>
      </trkpt>
      <trkpt lat="45.54818" lon="5.90036">
        <ele>363.04</ele>
        <time>2011-05-15T10:16:53Z</time>
      </trkpt>
      <trkpt lat="45.54818" lon="5.90036">
        <ele>362.55</ele>
        <time>2011-05-15T10:17:05Z</time>
      </trkpt>
      <trkpt lat="45.54817" lon="5.90034">
        <ele>362.55</ele>
        <time>2011-05-15T10:17:35Z</time>
      </trkpt>
      <trkpt lat="45.54817" lon="5.90035">
        <ele>361.59</ele>
        <time>2011-05-15T10:18:16Z</time>
      </trkpt>
      <trkpt lat="45.54817" lon="5.90035">
        <ele>363.04</ele>
        <time>2011-05-15T10:18:47Z</time>
      </trkpt>
      <trkpt lat="45.54818" lon="5.90035">
        <ele>363.04</ele>
        <time>2011-05-15T10:19:02Z</time>
      </trkpt>
      <trkpt lat="45.54818" lon="5.90035">
        <ele>363.04</ele>
        <time>2011-05-15T10:19:26Z</time>
      </trkpt>
      <trkpt lat="45.54817" lon="5.90035">
        <ele>363.52</ele>
        <time>2011-05-15T10:19:47Z</time>
      </trkpt>
      <trkpt lat="45.54808" lon="5.90032">
        <ele>363.04</ele>
        <time>2011-05-15T10:20:07Z</time>
      </trkpt>
      <trkpt lat="45.54778" lon="5.90011">
        <ele>364</ele>
        <time>2011-05-15T10:20:20Z</time>
      </trkpt>
      <trkpt lat="45.54733" lon="5.89973">
        <ele>365.92</ele>
        <time>2011-05-15T10:20:36Z</time>
      </trkpt>
      <trkpt lat="45.54686" lon="5.89928">
        <ele>367.84</ele>
        <time>2011-05-15T10:20:52Z</time>
      </trkpt>
      <trkpt lat="45.54638" lon="5.8989">
        <ele>371.21</ele>
        <time>2011-05-15T10:21:08Z</time>
      </trkpt>
      <trkpt lat="45.54601" lon="5.89839">
        <ele>369.76</ele>
        <time>2011-05-15T10:21:19Z</time>
      </trkpt>
      <trkpt lat="45.54595" lon="5.89834">
        <ele>369.28</ele>
        <time>2011-05-15T10:21:20Z</time>
      </trkpt>
      <trkpt lat="45.54589" lon="5.89831">
        <ele>368.8</ele>
        <time>2011-05-15T10:21:21Z</time>
      </trkpt>
      <trkpt lat="45.54582" lon="5.89828">
        <ele>367.84</ele>
        <time>2011-05-15T10:21:22Z</time>
      </trkpt>
      <trkpt lat="45.54575" lon="5.89826">
        <ele>366.88</ele>
        <time>2011-05-15T10:21:23Z</time>
      </trkpt>
      <trkpt lat="45.54509" lon="5.89806">
        <ele>365.92</ele>
        <time>2011-05-15T10:21:32Z</time>
      </trkpt>
      <trkpt lat="45.54503" lon="5.89806">
        <ele>365.92</ele>
        <time>2011-05-15T10:21:33Z</time>
      </trkpt>
      <trkpt lat="45.54497" lon="5.89809">
        <ele>366.4</ele>
        <time>2011-05-15T10:21:34Z</time>
      </trkpt>
      <trkpt lat="45.54491" lon="5.89813">
        <ele>365.92</ele>
        <time>2011-05-15T10:21:35Z</time>
      </trkpt>
      <trkpt lat="45.54487" lon="5.89818">
        <ele>366.4</ele>
        <time>2011-05-15T10:21:36Z</time>
      </trkpt>
      <trkpt lat="45.54483" lon="5.89824">
        <ele>366.4</ele>
        <time>2011-05-15T10:21:37Z</time>
      </trkpt>
      <trkpt lat="45.54462" lon="5.89864">
        <ele>367.84</ele>
        <time>2011-05-15T10:21:44Z</time>
      </trkpt>
      <trkpt lat="45.54458" lon="5.89869">
        <ele>367.84</ele>
        <time>2011-05-15T10:21:45Z</time>
      </trkpt>
      <trkpt lat="45.54454" lon="5.89873">
        <ele>368.8</ele>
        <time>2011-05-15T10:21:46Z</time>
      </trkpt>
      <trkpt lat="45.5445" lon="5.89876">
        <ele>368.8</ele>
        <time>2011-05-15T10:21:47Z</time>
      </trkpt>
      <trkpt lat="45.54446" lon="5.89878">
        <ele>368.8</ele>
        <time>2011-05-15T10:21:48Z</time>
      </trkpt>
      <trkpt lat="45.54443" lon="5.89879">
        <ele>368.8</ele>
        <time>2011-05-15T10:21:49Z</time>
      </trkpt>
      <trkpt lat="45.54439" lon="5.8988">
        <ele>368.8</ele>
        <time>2011-05-15T10:21:50Z</time>
      </trkpt>
      <trkpt lat="45.54435" lon="5.89879">
        <ele>369.28</ele>
        <time>2011-05-15T10:21:51Z</time>
      </trkpt>
      <trkpt lat="45.54432" lon="5.89878">
        <ele>369.76</ele>
        <time>2011-05-15T10:21:52Z</time>
      </trkpt>
      <trkpt lat="45.54428" lon="5.89876">
        <ele>369.76</ele>
        <time>2011-05-15T10:21:53Z</time>
      </trkpt>
      <trkpt lat="45.54425" lon="5.89874">
        <ele>370.24</ele>
        <time>2011-05-15T10:21:54Z</time>
      </trkpt>
      <trkpt lat="45.54423" lon="5.89871">
        <ele>370.73</ele>
        <time>2011-05-15T10:21:55Z</time>
      </trkpt>
      <trkpt lat="45.54422" lon="5.89867">
        <ele>370.73</ele>
        <time>2011-05-15T10:21:56Z</time>
      </trkpt>
      <trkpt lat="45.54421" lon="5.89864">
        <ele>370.73</ele>
        <time>2011-05-15T10:21:57Z</time>
      </trkpt>
      <trkpt lat="45.5442" lon="5.8986">
        <ele>370.73</ele>
        <time>2011-05-15T10:21:58Z</time>
      </trkpt>
      <trkpt lat="45.54412" lon="5.8982">
        <ele>373.61</ele>
        <time>2011-05-15T10:22:08Z</time>
      </trkpt>
      <trkpt lat="45.54393" lon="5.89796">
        <ele>375.05</ele>
        <time>2011-05-15T10:22:17Z</time>
      </trkpt>
      <trkpt lat="45.54386" lon="5.89786">
        <ele>376.01</ele>
        <time>2011-05-15T10:22:21Z</time>
      </trkpt>
      <trkpt lat="45.54368" lon="5.89751">
        <ele>379.38</ele>
        <time>2011-05-15T10:22:33Z</time>
      </trkpt>
      <trkpt lat="45.54352" lon="5.89693">
        <ele>382.26</ele>
        <time>2011-05-15T10:22:49Z</time>
      </trkpt>
      <trkpt lat="45.54334" lon="5.89633">
        <ele>383.7</ele>
        <time>2011-05-15T10:23:03Z</time>
      </trkpt>
      <trkpt lat="45.54326" lon="5.89552">
        <ele>385.63</ele>
        <time>2011-05-15T10:23:20Z</time>
      </trkpt>
      <trkpt lat="45.54345" lon="5.89489">
        <ele>388.51</ele>
        <time>2011-05-15T10:23:35Z</time>
      </trkpt>
      <trkpt lat="45.54364" lon="5.89414">
        <ele>389.47</ele>
        <time>2011-05-15T10:23:50Z</time>
      </trkpt>
      <trkpt lat="45.54376" lon="5.89366">
        <ele>390.43</ele>
        <time>2011-05-15T10:23:59Z</time>
      </trkpt>
      <trkpt lat="45.54377" lon="5.8936">
        <ele>389.95</ele>
        <time>2011-05-15T10:24:00Z</time>
      </trkpt>
      <trkpt lat="45.54395" lon="5.8928">
        <ele>391.87</ele>
        <time>2011-05-15T10:24:16Z</time>
      </trkpt>
      <trkpt lat="45.54392" lon="5.89218">
        <ele>394.76</ele>
        <time>2011-05-15T10:24:30Z</time>
      </trkpt>
      <trkpt lat="45.54368" lon="5.89176">
        <ele>397.16</ele>
        <time>2011-05-15T10:24:44Z</time>
      </trkpt>
      <trkpt lat="45.54339" lon="5.89139">
        <ele>400.53</ele>
        <time>2011-05-15T10:25:00Z</time>
      </trkpt>
      <trkpt lat="45.54311" lon="5.89106">
        <ele>402.93</ele>
        <time>2011-05-15T10:25:15Z</time>
      </trkpt>
      <trkpt lat="45.54293" lon="5.89075">
        <ele>406.29</ele>
        <time>2011-05-15T10:25:27Z</time>
      </trkpt>
      <trkpt lat="45.54271" lon="5.8902">
        <ele>408.7</ele>
        <time>2011-05-15T10:25:45Z</time>
      </trkpt>
      <trkpt lat="45.54253" lon="5.88972">
        <ele>412.06</ele>
        <time>2011-05-15T10:26:00Z</time>
      </trkpt>
      <trkpt lat="45.54233" lon="5.88963">
        <ele>413.98</ele>
        <time>2011-05-15T10:26:11Z</time>
      </trkpt>
      <trkpt lat="45.54232" lon="5.88966">
        <ele>413.98</ele>
        <time>2011-05-15T10:26:12Z</time>
      </trkpt>
      <trkpt lat="45.54232" lon="5.8897">
        <ele>413.5</ele>
        <time>2011-05-15T10:26:13Z</time>
      </trkpt>
      <trkpt lat="45.54233" lon="5.88974">
        <ele>413.98</ele>
        <time>2011-05-15T10:26:14Z</time>
      </trkpt>
      <trkpt lat="45.54234" lon="5.88978">
        <ele>413.5</ele>
        <time>2011-05-15T10:26:15Z</time>
      </trkpt>
      <trkpt lat="45.54233" lon="5.89032">
        <ele>416.87</ele>
        <time>2011-05-15T10:26:31Z</time>
      </trkpt>
      <trkpt lat="45.54218" lon="5.89069">
        <ele>419.75</ele>
        <time>2011-05-15T10:26:45Z</time>
      </trkpt>
      <trkpt lat="45.54198" lon="5.89108">
        <ele>422.64</ele>
        <time>2011-05-15T10:27:00Z</time>
      </trkpt>
      <trkpt lat="45.54181" lon="5.8915">
        <ele>426</ele>
        <time>2011-05-15T10:27:15Z</time>
      </trkpt>
      <trkpt lat="45.54166" lon="5.89207">
        <ele>429.37</ele>
        <time>2011-05-15T10:27:34Z</time>
      </trkpt>
      <trkpt lat="45.5415" lon="5.89251">
        <ele>431.77</ele>
        <time>2011-05-15T10:27:49Z</time>
      </trkpt>
      <trkpt lat="45.54125" lon="5.89297">
        <ele>435.13</ele>
        <time>2011-05-15T10:28:07Z</time>
      </trkpt>
      <trkpt lat="45.54105" lon="5.89342">
        <ele>438.02</ele>
        <time>2011-05-15T10:28:22Z</time>
      </trkpt>
      <trkpt lat="45.54085" lon="5.89395">
        <ele>439.94</ele>
        <time>2011-05-15T10:28:37Z</time>
      </trkpt>
      <trkpt lat="45.54076" lon="5.89453">
        <ele>442.34</ele>
        <time>2011-05-15T10:28:53Z</time>
      </trkpt>
      <trkpt lat="45.54078" lon="5.89505">
        <ele>444.75</ele>
        <time>2011-05-15T10:29:08Z</time>
      </trkpt>
      <trkpt lat="45.54068" lon="5.89544">
        <ele>448.11</ele>
        <time>2011-05-15T10:29:21Z</time>
      </trkpt>
      <trkpt lat="45.54044" lon="5.89576">
        <ele>451</ele>
        <time>2011-05-15T10:29:36Z</time>
      </trkpt>
      <trkpt lat="45.54023" lon="5.89594">
        <ele>454.36</ele>
        <time>2011-05-15T10:29:49Z</time>
      </trkpt>
      <trkpt lat="45.53996" lon="5.89611">
        <ele>457.24</ele>
        <time>2011-05-15T10:30:02Z</time>
      </trkpt>
      <trkpt lat="45.53963" lon="5.89631">
        <ele>461.09</ele>
        <time>2011-05-15T10:30:19Z</time>
      </trkpt>
      <trkpt lat="45.53939" lon="5.89665">
        <ele>463.49</ele>
        <time>2011-05-15T10:30:34Z</time>
      </trkpt>
      <trkpt lat="45.53923" lon="5.89713">
        <ele>466.38</ele>
        <time>2011-05-15T10:30:50Z</time>
      </trkpt>
      <trkpt lat="45.5391" lon="5.89755">
        <ele>468.3</ele>
        <time>2011-05-15T10:31:04Z</time>
      </trkpt>
      <trkpt lat="45.53882" lon="5.89783">
        <ele>470.22</ele>
        <time>2011-05-15T10:31:18Z</time>
      </trkpt>
      <trkpt lat="45.53845" lon="5.89792">
        <ele>472.14</ele>
        <time>2011-05-15T10:31:32Z</time>
      </trkpt>
      <trkpt lat="45.53818" lon="5.89758">
        <ele>475.03</ele>
        <time>2011-05-15T10:31:47Z</time>
      </trkpt>
      <trkpt lat="45.5383" lon="5.8972">
        <ele>476.95</ele>
        <time>2011-05-15T10:31:59Z</time>
      </trkpt>
      <trkpt lat="45.53865" lon="5.89678">
        <ele>478.39</ele>
        <time>2011-05-15T10:32:14Z</time>
      </trkpt>
      <trkpt lat="45.53904" lon="5.89624">
        <ele>480.32</ele>
        <time>2011-05-15T10:32:31Z</time>
      </trkpt>
      <trkpt lat="45.53941" lon="5.89557">
        <ele>481.76</ele>
        <time>2011-05-15T10:32:48Z</time>
      </trkpt>
      <trkpt lat="45.53975" lon="5.89489">
        <ele>484.16</ele>
        <time>2011-05-15T10:33:05Z</time>
      </trkpt>
      <trkpt lat="45.53976" lon="5.89438">
        <ele>485.6</ele>
        <time>2011-05-15T10:33:17Z</time>
      </trkpt>
      <trkpt lat="45.53943" lon="5.89403">
        <ele>488.01</ele>
        <time>2011-05-15T10:33:31Z</time>
      </trkpt>
      <trkpt lat="45.53913" lon="5.89358">
        <ele>489.93</ele>
        <time>2011-05-15T10:33:45Z</time>
      </trkpt>
      <trkpt lat="45.53857" lon="5.89359">
        <ele>489.93</ele>
        <time>2011-05-15T10:34:00Z</time>
      </trkpt>
      <trkpt lat="45.53811" lon="5.89365">
        <ele>492.81</ele>
        <time>2011-05-15T10:34:14Z</time>
      </trkpt>
      <trkpt lat="45.53762" lon="5.89366">
        <ele>492.81</ele>
        <time>2011-05-15T10:34:29Z</time>
      </trkpt>
      <trkpt lat="45.53717" lon="5.89388">
        <ele>495.7</ele>
        <time>2011-05-15T10:34:42Z</time>
      </trkpt>
      <trkpt lat="45.53691" lon="5.8939">
        <ele>499.06</ele>
        <time>2011-05-15T10:34:52Z</time>
      </trkpt>
      <trkpt lat="45.53659" lon="5.89377">
        <ele>501.95</ele>
        <time>2011-05-15T10:35:07Z</time>
      </trkpt>
      <trkpt lat="45.53626" lon="5.89356">
        <ele>503.87</ele>
        <time>2011-05-15T10:35:22Z</time>
      </trkpt>
      <trkpt lat="45.53618" lon="5.89348">
        <ele>505.79</ele>
        <time>2011-05-15T10:35:26Z</time>
      </trkpt>
      <trkpt lat="45.53589" lon="5.89333">
        <ele>508.67</ele>
        <time>2011-05-15T10:35:39Z</time>
      </trkpt>
      <trkpt lat="45.53555" lon="5.89329">
        <ele>511.56</ele>
        <time>2011-05-15T10:35:54Z</time>
      </trkpt>
      <trkpt lat="45.53521" lon="5.89326">
        <ele>514.92</ele>
        <time>2011-05-15T10:36:08Z</time>
      </trkpt>
      <trkpt lat="45.53473" lon="5.89326">
        <ele>517.33</ele>
        <time>2011-05-15T10:36:27Z</time>
      </trkpt>
      <trkpt lat="45.53432" lon="5.89324">
        <ele>520.21</ele>
        <time>2011-05-15T10:36:42Z</time>
      </trkpt>
      <trkpt lat="45.53378" lon="5.89319">
        <ele>522.13</ele>
        <time>2011-05-15T10:37:01Z</time>
      </trkpt>
      <trkpt lat="45.53327" lon="5.89313">
        <ele>524.06</ele>
        <time>2011-05-15T10:37:19Z</time>
      </trkpt>
      <trkpt lat="45.53286" lon="5.89286">
        <ele>520.21</ele>
        <time>2011-05-15T10:37:30Z</time>
      </trkpt>
      <trkpt lat="45.53271" lon="5.89269">
        <ele>518.29</ele>
        <time>2011-05-15T10:37:33Z</time>
      </trkpt>
      <trkpt lat="45.53267" lon="5.89261">
        <ele>516.85</ele>
        <time>2011-05-15T10:37:34Z</time>
      </trkpt>
      <trkpt lat="45.53253" lon="5.89238">
        <ele>515.4</ele>
        <time>2011-05-15T10:37:37Z</time>
      </trkpt>
      <trkpt lat="45.53248" lon="5.89232">
        <ele>515.4</ele>
        <time>2011-05-15T10:37:38Z</time>
      </trkpt>
      <trkpt lat="45.53236" lon="5.89224">
        <ele>514.44</ele>
        <time>2011-05-15T10:37:40Z</time>
      </trkpt>
      <trkpt lat="45.53223" lon="5.8922">
        <ele>513.48</ele>
        <time>2011-05-15T10:37:42Z</time>
      </trkpt>
      <trkpt lat="45.53214" lon="5.89214">
        <ele>513.48</ele>
        <time>2011-05-15T10:37:44Z</time>
      </trkpt>
      <trkpt lat="45.53212" lon="5.89208">
        <ele>513</ele>
        <time>2011-05-15T10:37:45Z</time>
      </trkpt>
      <trkpt lat="45.5321" lon="5.89201">
        <ele>512.04</ele>
        <time>2011-05-15T10:37:46Z</time>
      </trkpt>
      <trkpt lat="45.5321" lon="5.89194">
        <ele>513</ele>
        <time>2011-05-15T10:37:47Z</time>
      </trkpt>
      <trkpt lat="45.53213" lon="5.89189">
        <ele>512.52</ele>
        <time>2011-05-15T10:37:48Z</time>
      </trkpt>
      <trkpt lat="45.53216" lon="5.89184">
        <ele>512.52</ele>
        <time>2011-05-15T10:37:49Z</time>
      </trkpt>
      <trkpt lat="45.5322" lon="5.89181">
        <ele>513</ele>
        <time>2011-05-15T10:37:50Z</time>
      </trkpt>
      <trkpt lat="45.53251" lon="5.89142">
        <ele>515.88</ele>
        <time>2011-05-15T10:38:03Z</time>
      </trkpt>
      <trkpt lat="45.53274" lon="5.89118">
        <ele>519.25</ele>
        <time>2011-05-15T10:38:14Z</time>
      </trkpt>
      <trkpt lat="45.53299" lon="5.89076">
        <ele>521.17</ele>
        <time>2011-05-15T10:38:30Z</time>
      </trkpt>
      <trkpt lat="45.53277" lon="5.89043">
        <ele>522.13</ele>
        <time>2011-05-15T10:38:40Z</time>
      </trkpt>
      <trkpt lat="45.53257" lon="5.88988">
        <ele>525.5</ele>
        <time>2011-05-15T10:38:54Z</time>
      </trkpt>
      <trkpt lat="45.53271" lon="5.8894">
        <ele>527.9</ele>
        <time>2011-05-15T10:39:07Z</time>
      </trkpt>
      <trkpt lat="45.53272" lon="5.8889">
        <ele>531.27</ele>
        <time>2011-05-15T10:39:21Z</time>
      </trkpt>
      <trkpt lat="45.53277" lon="5.88875">
        <ele>531.75</ele>
        <time>2011-05-15T10:39:26Z</time>
      </trkpt>
      <trkpt lat="45.533" lon="5.88846">
        <ele>535.11</ele>
        <time>2011-05-15T10:39:40Z</time>
      </trkpt>
      <trkpt lat="45.53317" lon="5.88806">
        <ele>537.99</ele>
        <time>2011-05-15T10:39:55Z</time>
      </trkpt>
      <trkpt lat="45.53304" lon="5.88776">
        <ele>541.36</ele>
        <time>2011-05-15T10:40:07Z</time>
      </trkpt>
      <trkpt lat="45.53283" lon="5.88751">
        <ele>544.24</ele>
        <time>2011-05-15T10:40:21Z</time>
      </trkpt>
      <trkpt lat="45.53264" lon="5.88724">
        <ele>546.65</ele>
        <time>2011-05-15T10:40:35Z</time>
      </trkpt>
      <trkpt lat="45.53263" lon="5.88721">
        <ele>546.65</ele>
        <time>2011-05-15T10:40:36Z</time>
      </trkpt>
      <trkpt lat="45.53278" lon="5.88693">
        <ele>548.57</ele>
        <time>2011-05-15T10:40:49Z</time>
      </trkpt>
      <trkpt lat="45.53311" lon="5.88682">
        <ele>550.97</ele>
        <time>2011-05-15T10:41:05Z</time>
      </trkpt>
      <trkpt lat="45.53327" lon="5.88651">
        <ele>553.38</ele>
        <time>2011-05-15T10:41:20Z</time>
      </trkpt>
      <trkpt lat="45.53328" lon="5.88605">
        <ele>556.26</ele>
        <time>2011-05-15T10:41:37Z</time>
      </trkpt>
      <trkpt lat="45.53342" lon="5.88571">
        <ele>559.62</ele>
        <time>2011-05-15T10:41:52Z</time>
      </trkpt>
      <trkpt lat="45.53359" lon="5.88545">
        <ele>561.55</ele>
        <time>2011-05-15T10:42:05Z</time>
      </trkpt>
      <trkpt lat="45.53378" lon="5.88511">
        <ele>563.95</ele>
        <time>2011-05-15T10:42:21Z</time>
      </trkpt>
      <trkpt lat="45.53408" lon="5.88502">
        <ele>565.87</ele>
        <time>2011-05-15T10:42:37Z</time>
      </trkpt>
      <trkpt lat="45.5344" lon="5.88499">
        <ele>569.24</ele>
        <time>2011-05-15T10:42:53Z</time>
      </trkpt>
      <trkpt lat="45.53476" lon="5.88497">
        <ele>570.68</ele>
        <time>2011-05-15T10:43:11Z</time>
      </trkpt>
      <trkpt lat="45.53507" lon="5.88488">
        <ele>573.08</ele>
        <time>2011-05-15T10:43:27Z</time>
      </trkpt>
      <trkpt lat="45.53539" lon="5.88494">
        <ele>575.01</ele>
        <time>2011-05-15T10:43:43Z</time>
      </trkpt>
      <trkpt lat="45.53563" lon="5.88503">
        <ele>576.93</ele>
        <time>2011-05-15T10:43:56Z</time>
      </trkpt>
      <trkpt lat="45.53595" lon="5.88494">
        <ele>578.85</ele>
        <time>2011-05-15T10:44:12Z</time>
      </trkpt>
      <trkpt lat="45.53606" lon="5.88461">
        <ele>581.25</ele>
        <time>2011-05-15T10:44:26Z</time>
      </trkpt>
      <trkpt lat="45.53606" lon="5.88459">
        <ele>581.25</ele>
        <time>2011-05-15T10:44:27Z</time>
      </trkpt>
      <trkpt lat="45.53605" lon="5.88457">
        <ele>581.25</ele>
        <time>2011-05-15T10:44:28Z</time>
      </trkpt>
      <trkpt lat="45.53605" lon="5.88454">
        <ele>581.73</ele>
        <time>2011-05-15T10:44:29Z</time>
      </trkpt>
      <trkpt lat="45.53605" lon="5.88452">
        <ele>581.73</ele>
        <time>2011-05-15T10:44:30Z</time>
      </trkpt>
      <trkpt lat="45.53605" lon="5.88449">
        <ele>582.22</ele>
        <time>2011-05-15T10:44:31Z</time>
      </trkpt>
      <trkpt lat="45.53605" lon="5.88446">
        <ele>582.22</ele>
        <time>2011-05-15T10:44:32Z</time>
      </trkpt>
      <trkpt lat="45.53603" lon="5.88413">
        <ele>584.14</ele>
        <time>2011-05-15T10:44:45Z</time>
      </trkpt>
      <trkpt lat="45.536" lon="5.88367">
        <ele>587.5</ele>
        <time>2011-05-15T10:45:03Z</time>
      </trkpt>
      <trkpt lat="45.53599" lon="5.88347">
        <ele>588.46</ele>
        <time>2011-05-15T10:45:11Z</time>
      </trkpt>
      <trkpt lat="45.53599" lon="5.88344">
        <ele>588.46</ele>
        <time>2011-05-15T10:45:12Z</time>
      </trkpt>
      <trkpt lat="45.53599" lon="5.88342">
        <ele>587.98</ele>
        <time>2011-05-15T10:45:13Z</time>
      </trkpt>
      <trkpt lat="45.53599" lon="5.88339">
        <ele>588.46</ele>
        <time>2011-05-15T10:45:14Z</time>
      </trkpt>
      <trkpt lat="45.53599" lon="5.88337">
        <ele>588.95</ele>
        <time>2011-05-15T10:45:15Z</time>
      </trkpt>
      <trkpt lat="45.53597" lon="5.88297">
        <ele>591.83</ele>
        <time>2011-05-15T10:45:31Z</time>
      </trkpt>
      <trkpt lat="45.53595" lon="5.88254">
        <ele>594.23</ele>
        <time>2011-05-15T10:45:48Z</time>
      </trkpt>
      <trkpt lat="45.53596" lon="5.88217">
        <ele>596.15</ele>
        <time>2011-05-15T10:46:03Z</time>
      </trkpt>
      <trkpt lat="45.53598" lon="5.8818">
        <ele>598.08</ele>
        <time>2011-05-15T10:46:17Z</time>
      </trkpt>
      <trkpt lat="45.53605" lon="5.88136">
        <ele>600.96</ele>
        <time>2011-05-15T10:46:34Z</time>
      </trkpt>
      <trkpt lat="45.53609" lon="5.88095">
        <ele>603.36</ele>
        <time>2011-05-15T10:46:50Z</time>
      </trkpt>
      <trkpt lat="45.53592" lon="5.88062">
        <ele>604.81</ele>
        <time>2011-05-15T10:47:05Z</time>
      </trkpt>
      <trkpt lat="45.53567" lon="5.88026">
        <ele>607.69</ele>
        <time>2011-05-15T10:47:23Z</time>
      </trkpt>
      <trkpt lat="45.53548" lon="5.88">
        <ele>609.61</ele>
        <time>2011-05-15T10:47:37Z</time>
      </trkpt>
      <trkpt lat="45.5353" lon="5.87974">
        <ele>612.5</ele>
        <time>2011-05-15T10:47:51Z</time>
      </trkpt>
      <trkpt lat="45.53504" lon="5.87945">
        <ele>614.42</ele>
        <time>2011-05-15T10:48:09Z</time>
      </trkpt>
      <trkpt lat="45.53484" lon="5.87934">
        <ele>616.82</ele>
        <time>2011-05-15T10:48:20Z</time>
      </trkpt>
      <trkpt lat="45.53463" lon="5.87921">
        <ele>618.75</ele>
        <time>2011-05-15T10:48:32Z</time>
      </trkpt>
      <trkpt lat="45.53441" lon="5.87909">
        <ele>620.67</ele>
        <time>2011-05-15T10:48:45Z</time>
      </trkpt>
      <trkpt lat="45.53407" lon="5.87884">
        <ele>623.07</ele>
        <time>2011-05-15T10:49:03Z</time>
      </trkpt>
      <trkpt lat="45.53381" lon="5.8786">
        <ele>624.03</ele>
        <time>2011-05-15T10:49:15Z</time>
      </trkpt>
      <trkpt lat="45.53338" lon="5.87818">
        <ele>626.44</ele>
        <time>2011-05-15T10:49:34Z</time>
      </trkpt>
      <trkpt lat="45.53296" lon="5.87787">
        <ele>627.88</ele>
        <time>2011-05-15T10:49:52Z</time>
      </trkpt>
      <trkpt lat="45.53292" lon="5.87788">
        <ele>628.36</ele>
        <time>2011-05-15T10:50:05Z</time>
      </trkpt>
      <trkpt lat="45.53293" lon="5.87789">
        <ele>628.36</ele>
        <time>2011-05-15T10:50:26Z</time>
      </trkpt>
      <trkpt lat="45.5329" lon="5.87791">
        <ele>627.88</ele>
        <time>2011-05-15T10:50:48Z</time>
      </trkpt>
      <trkpt lat="45.53269" lon="5.87792">
        <ele>627.4</ele>
        <time>2011-05-15T10:50:59Z</time>
      </trkpt>
      <trkpt lat="45.53251" lon="5.87792">
        <ele>625.47</ele>
        <time>2011-05-15T10:51:07Z</time>
      </trkpt>
      <trkpt lat="45.53225" lon="5.87813">
        <ele>627.4</ele>
        <time>2011-05-15T10:51:18Z</time>
      </trkpt>
      <trkpt lat="45.53191" lon="5.87847">
        <ele>627.4</ele>
        <time>2011-05-15T10:51:32Z</time>
      </trkpt>
      <trkpt lat="45.53144" lon="5.87861">
        <ele>627.4</ele>
        <time>2011-05-15T10:51:45Z</time>
      </trkpt>
      <trkpt lat="45.53102" lon="5.87868">
        <ele>628.84</ele>
        <time>2011-05-15T10:51:58Z</time>
      </trkpt>
      <trkpt lat="45.53085" lon="5.87818">
        <ele>630.76</ele>
        <time>2011-05-15T10:52:12Z</time>
      </trkpt>
      <trkpt lat="45.53059" lon="5.87777">
        <ele>632.2</ele>
        <time>2011-05-15T10:52:28Z</time>
      </trkpt>
      <trkpt lat="45.53042" lon="5.87751">
        <ele>635.57</ele>
        <time>2011-05-15T10:52:43Z</time>
      </trkpt>
      <trkpt lat="45.5303" lon="5.8773">
        <ele>638.45</ele>
        <time>2011-05-15T10:52:55Z</time>
      </trkpt>
      <trkpt lat="45.53014" lon="5.87719">
        <ele>641.34</ele>
        <time>2011-05-15T10:53:07Z</time>
      </trkpt>
      <trkpt lat="45.52998" lon="5.87714">
        <ele>643.26</ele>
        <time>2011-05-15T10:53:19Z</time>
      </trkpt>
      <trkpt lat="45.5298" lon="5.87694">
        <ele>646.14</ele>
        <time>2011-05-15T10:53:34Z</time>
      </trkpt>
      <trkpt lat="45.52965" lon="5.87673">
        <ele>648.55</ele>
        <time>2011-05-15T10:53:49Z</time>
      </trkpt>
      <trkpt lat="45.52951" lon="5.8765">
        <ele>652.39</ele>
        <time>2011-05-15T10:54:05Z</time>
      </trkpt>
      <trkpt lat="45.5294" lon="5.87622">
        <ele>653.83</ele>
        <time>2011-05-15T10:54:21Z</time>
      </trkpt>
      <trkpt lat="45.52927" lon="5.87601">
        <ele>656.72</ele>
        <time>2011-05-15T10:54:36Z</time>
      </trkpt>
      <trkpt lat="45.52917" lon="5.87582">
        <ele>658.64</ele>
        <time>2011-05-15T10:54:49Z</time>
      </trkpt>
      <trkpt lat="45.52917" lon="5.8758">
        <ele>659.12</ele>
        <time>2011-05-15T10:54:50Z</time>
      </trkpt>
      <trkpt lat="45.52916" lon="5.87578">
        <ele>659.6</ele>
        <time>2011-05-15T10:54:51Z</time>
      </trkpt>
      <trkpt lat="45.52916" lon="5.87576">
        <ele>659.12</ele>
        <time>2011-05-15T10:54:52Z</time>
      </trkpt>
      <trkpt lat="45.52916" lon="5.87574">
        <ele>659.6</ele>
        <time>2011-05-15T10:54:53Z</time>
      </trkpt>
      <trkpt lat="45.52915" lon="5.87572">
        <ele>659.6</ele>
        <time>2011-05-15T10:54:54Z</time>
      </trkpt>
      <trkpt lat="45.5291" lon="5.87547">
        <ele>662.97</ele>
        <time>2011-05-15T10:55:07Z</time>
      </trkpt>
      <trkpt lat="45.52893" lon="5.8752">
        <ele>665.37</ele>
        <time>2011-05-15T10:55:23Z</time>
      </trkpt>
      <trkpt lat="45.52884" lon="5.87499">
        <ele>667.29</ele>
        <time>2011-05-15T10:55:37Z</time>
      </trkpt>
      <trkpt lat="45.52869" lon="5.87511">
        <ele>669.22</ele>
        <time>2011-05-15T10:55:51Z</time>
      </trkpt>
      <trkpt lat="45.52882" lon="5.87533">
        <ele>671.14</ele>
        <time>2011-05-15T10:56:05Z</time>
      </trkpt>
      <trkpt lat="45.5289" lon="5.87565">
        <ele>673.06</ele>
        <time>2011-05-15T10:56:20Z</time>
      </trkpt>
      <trkpt lat="45.52891" lon="5.87593">
        <ele>675.46</ele>
        <time>2011-05-15T10:56:34Z</time>
      </trkpt>
      <trkpt lat="45.52889" lon="5.87607">
        <ele>676.91</ele>
        <time>2011-05-15T10:56:41Z</time>
      </trkpt>
      <trkpt lat="45.52889" lon="5.87609">
        <ele>677.39</ele>
        <time>2011-05-15T10:56:42Z</time>
      </trkpt>
      <trkpt lat="45.52889" lon="5.87611">
        <ele>677.87</ele>
        <time>2011-05-15T10:56:43Z</time>
      </trkpt>
      <trkpt lat="45.52889" lon="5.87613">
        <ele>677.87</ele>
        <time>2011-05-15T10:56:44Z</time>
      </trkpt>
      <trkpt lat="45.52888" lon="5.87614">
        <ele>677.87</ele>
        <time>2011-05-15T10:56:45Z</time>
      </trkpt>
      <trkpt lat="45.52888" lon="5.87616">
        <ele>678.35</ele>
        <time>2011-05-15T10:56:46Z</time>
      </trkpt>
      <trkpt lat="45.52888" lon="5.87618">
        <ele>678.35</ele>
        <time>2011-05-15T10:56:47Z</time>
      </trkpt>
      <trkpt lat="45.52889" lon="5.87647">
        <ele>681.23</ele>
        <time>2011-05-15T10:57:02Z</time>
      </trkpt>
      <trkpt lat="45.52895" lon="5.87674">
        <ele>684.6</ele>
        <time>2011-05-15T10:57:16Z</time>
      </trkpt>
      <trkpt lat="45.529" lon="5.87701">
        <ele>686.04</ele>
        <time>2011-05-15T10:57:29Z</time>
      </trkpt>
      <trkpt lat="45.529" lon="5.87703">
        <ele>686.52</ele>
        <time>2011-05-15T10:57:30Z</time>
      </trkpt>
      <trkpt lat="45.52901" lon="5.87705">
        <ele>686.04</ele>
        <time>2011-05-15T10:57:31Z</time>
      </trkpt>
      <trkpt lat="45.52901" lon="5.87707">
        <ele>686.52</ele>
        <time>2011-05-15T10:57:32Z</time>
      </trkpt>
      <trkpt lat="45.52901" lon="5.87709">
        <ele>686.52</ele>
        <time>2011-05-15T10:57:33Z</time>
      </trkpt>
      <trkpt lat="45.52901" lon="5.87711">
        <ele>686.52</ele>
        <time>2011-05-15T10:57:34Z</time>
      </trkpt>
      <trkpt lat="45.52896" lon="5.87738">
        <ele>688.92</ele>
        <time>2011-05-15T10:57:48Z</time>
      </trkpt>
      <trkpt lat="45.52894" lon="5.87739">
        <ele>688.92</ele>
        <time>2011-05-15T10:57:49Z</time>
      </trkpt>
      <trkpt lat="45.52879" lon="5.87733">
        <ele>690.84</ele>
        <time>2011-05-15T10:58:02Z</time>
      </trkpt>
      <trkpt lat="45.52871" lon="5.87701">
        <ele>693.25</ele>
        <time>2011-05-15T10:58:17Z</time>
      </trkpt>
      <trkpt lat="45.52858" lon="5.87689">
        <ele>695.17</ele>
        <time>2011-05-15T10:58:29Z</time>
      </trkpt>
      <trkpt lat="45.52848" lon="5.87686">
        <ele>696.13</ele>
        <time>2011-05-15T10:58:35Z</time>
      </trkpt>
      <trkpt lat="45.52844" lon="5.87691">
        <ele>697.09</ele>
        <time>2011-05-15T10:58:39Z</time>
      </trkpt>
      <trkpt lat="45.52842" lon="5.87713">
        <ele>699.02</ele>
        <time>2011-05-15T10:58:52Z</time>
      </trkpt>
      <trkpt lat="45.52841" lon="5.87722">
        <ele>699.02</ele>
        <time>2011-05-15T10:58:55Z</time>
      </trkpt>
      <trkpt lat="45.52842" lon="5.87738">
        <ele>699.98</ele>
        <time>2011-05-15T10:59:02Z</time>
      </trkpt>
      <trkpt lat="45.52837" lon="5.87761">
        <ele>700.94</ele>
        <time>2011-05-15T10:59:12Z</time>
      </trkpt>
      <trkpt lat="45.52829" lon="5.87767">
        <ele>700.94</ele>
        <time>2011-05-15T10:59:19Z</time>
      </trkpt>
      <trkpt lat="45.52818" lon="5.87759">
        <ele>702.38</ele>
        <time>2011-05-15T10:59:28Z</time>
      </trkpt>
      <trkpt lat="45.52815" lon="5.87746">
        <ele>704.3</ele>
        <time>2011-05-15T10:59:35Z</time>
      </trkpt>
      <trkpt lat="45.52815" lon="5.87733">
        <ele>705.26</ele>
        <time>2011-05-15T10:59:41Z</time>
      </trkpt>
      <trkpt lat="45.52811" lon="5.8771">
        <ele>707.67</ele>
        <time>2011-05-15T10:59:52Z</time>
      </trkpt>
      <trkpt lat="45.52807" lon="5.87677">
        <ele>710.55</ele>
        <time>2011-05-15T11:00:08Z</time>
      </trkpt>
      <trkpt lat="45.52805" lon="5.87658">
        <ele>712.47</ele>
        <time>2011-05-15T11:00:18Z</time>
      </trkpt>
      <trkpt lat="45.52801" lon="5.87635">
        <ele>715.84</ele>
        <time>2011-05-15T11:00:31Z</time>
      </trkpt>
      <trkpt lat="45.528" lon="5.87633">
        <ele>715.84</ele>
        <time>2011-05-15T11:00:32Z</time>
      </trkpt>
      <trkpt lat="45.52794" lon="5.87631">
        <ele>716.8</ele>
        <time>2011-05-15T11:00:36Z</time>
      </trkpt>
      <trkpt lat="45.52792" lon="5.87629">
        <ele>716.8</ele>
        <time>2011-05-15T11:00:38Z</time>
      </trkpt>
      <trkpt lat="45.5277" lon="5.8762">
        <ele>720.65</ele>
        <time>2011-05-15T11:00:54Z</time>
      </trkpt>
      <trkpt lat="45.52755" lon="5.87611">
        <ele>723.05</ele>
        <time>2011-05-15T11:01:07Z</time>
      </trkpt>
      <trkpt lat="45.52742" lon="5.87592">
        <ele>725.93</ele>
        <time>2011-05-15T11:01:21Z</time>
      </trkpt>
      <trkpt lat="45.5274" lon="5.87586">
        <ele>726.41</ele>
        <time>2011-05-15T11:01:24Z</time>
      </trkpt>
      <trkpt lat="45.52739" lon="5.87583">
        <ele>726.89</ele>
        <time>2011-05-15T11:01:26Z</time>
      </trkpt>
      <trkpt lat="45.52735" lon="5.87576">
        <ele>727.86</ele>
        <time>2011-05-15T11:01:31Z</time>
      </trkpt>
      <trkpt lat="45.52726" lon="5.87546">
        <ele>730.74</ele>
        <time>2011-05-15T11:01:47Z</time>
      </trkpt>
      <trkpt lat="45.52714" lon="5.87525">
        <ele>734.1</ele>
        <time>2011-05-15T11:02:01Z</time>
      </trkpt>
      <trkpt lat="45.52702" lon="5.87506">
        <ele>736.03</ele>
        <time>2011-05-15T11:02:16Z</time>
      </trkpt>
      <trkpt lat="45.52697" lon="5.87526">
        <ele>737.95</ele>
        <time>2011-05-15T11:02:29Z</time>
      </trkpt>
      <trkpt lat="45.52707" lon="5.87549">
        <ele>739.87</ele>
        <time>2011-05-15T11:02:44Z</time>
      </trkpt>
      <trkpt lat="45.52714" lon="5.8758">
        <ele>742.28</ele>
        <time>2011-05-15T11:03:00Z</time>
      </trkpt>
      <trkpt lat="45.52713" lon="5.87602">
        <ele>744.2</ele>
        <time>2011-05-15T11:03:12Z</time>
      </trkpt>
      <trkpt lat="45.52701" lon="5.87599">
        <ele>746.12</ele>
        <time>2011-05-15T11:03:23Z</time>
      </trkpt>
      <trkpt lat="45.52694" lon="5.87575">
        <ele>749.49</ele>
        <time>2011-05-15T11:03:37Z</time>
      </trkpt>
      <trkpt lat="45.52693" lon="5.8757">
        <ele>749.49</ele>
        <time>2011-05-15T11:03:40Z</time>
      </trkpt>
      <trkpt lat="45.52687" lon="5.87562">
        <ele>750.45</ele>
        <time>2011-05-15T11:03:52Z</time>
      </trkpt>
      <trkpt lat="45.52675" lon="5.87544">
        <ele>753.81</ele>
        <time>2011-05-15T11:04:07Z</time>
      </trkpt>
      <trkpt lat="45.52667" lon="5.87525">
        <ele>756.21</ele>
        <time>2011-05-15T11:04:21Z</time>
      </trkpt>
      <trkpt lat="45.5266" lon="5.87503">
        <ele>759.1</ele>
        <time>2011-05-15T11:04:35Z</time>
      </trkpt>
      <trkpt lat="45.52653" lon="5.87475">
        <ele>761.98</ele>
        <time>2011-05-15T11:04:51Z</time>
      </trkpt>
      <trkpt lat="45.52651" lon="5.87447">
        <ele>764.39</ele>
        <time>2011-05-15T11:05:06Z</time>
      </trkpt>
      <trkpt lat="45.52634" lon="5.87424">
        <ele>766.79</ele>
        <time>2011-05-15T11:05:21Z</time>
      </trkpt>
      <trkpt lat="45.5262" lon="5.87408">
        <ele>768.71</ele>
        <time>2011-05-15T11:05:36Z</time>
      </trkpt>
      <trkpt lat="45.52617" lon="5.87404">
        <ele>768.71</ele>
        <time>2011-05-15T11:05:39Z</time>
      </trkpt>
      <trkpt lat="45.52607" lon="5.87373">
        <ele>772.56</ele>
        <time>2011-05-15T11:05:56Z</time>
      </trkpt>
      <trkpt lat="45.52599" lon="5.87346">
        <ele>774.96</ele>
        <time>2011-05-15T11:06:12Z</time>
      </trkpt>
      <trkpt lat="45.52593" lon="5.8732">
        <ele>777.84</ele>
        <time>2011-05-15T11:06:27Z</time>
      </trkpt>
      <trkpt lat="45.52579" lon="5.873">
        <ele>780.25</ele>
        <time>2011-05-15T11:06:42Z</time>
      </trkpt>
      <trkpt lat="45.52578" lon="5.87297">
        <ele>780.25</ele>
        <time>2011-05-15T11:06:44Z</time>
      </trkpt>
      <trkpt lat="45.52574" lon="5.87285">
        <ele>781.21</ele>
        <time>2011-05-15T11:06:50Z</time>
      </trkpt>
      <trkpt lat="45.5257" lon="5.87253">
        <ele>784.09</ele>
        <time>2011-05-15T11:07:06Z</time>
      </trkpt>
      <trkpt lat="45.52568" lon="5.87221">
        <ele>786.5</ele>
        <time>2011-05-15T11:07:22Z</time>
      </trkpt>
      <trkpt lat="45.52568" lon="5.87219">
        <ele>786.98</ele>
        <time>2011-05-15T11:07:23Z</time>
      </trkpt>
      <trkpt lat="45.52568" lon="5.87197">
        <ele>788.9</ele>
        <time>2011-05-15T11:07:35Z</time>
      </trkpt>
      <trkpt lat="45.52575" lon="5.87173">
        <ele>791.3</ele>
        <time>2011-05-15T11:07:50Z</time>
      </trkpt>
      <trkpt lat="45.52578" lon="5.87171">
        <ele>790.82</ele>
        <time>2011-05-15T11:07:52Z</time>
      </trkpt>
      <trkpt lat="45.52591" lon="5.87155">
        <ele>793.22</ele>
        <time>2011-05-15T11:08:08Z</time>
      </trkpt>
      <trkpt lat="45.52597" lon="5.87147">
        <ele>793.71</ele>
        <time>2011-05-15T11:08:14Z</time>
      </trkpt>
      <trkpt lat="45.52605" lon="5.87117">
        <ele>796.11</ele>
        <time>2011-05-15T11:08:31Z</time>
      </trkpt>
      <trkpt lat="45.52617" lon="5.87094">
        <ele>799.47</ele>
        <time>2011-05-15T11:08:45Z</time>
      </trkpt>
      <trkpt lat="45.52615" lon="5.87072">
        <ele>801.4</ele>
        <time>2011-05-15T11:08:56Z</time>
      </trkpt>
      <trkpt lat="45.52611" lon="5.87059">
        <ele>801.88</ele>
        <time>2011-05-15T11:09:01Z</time>
      </trkpt>
      <trkpt lat="45.52609" lon="5.87024">
        <ele>804.28</ele>
        <time>2011-05-15T11:09:17Z</time>
      </trkpt>
      <trkpt lat="45.52609" lon="5.86997">
        <ele>807.64</ele>
        <time>2011-05-15T11:09:31Z</time>
      </trkpt>
      <trkpt lat="45.52599" lon="5.86971">
        <ele>810.05</ele>
        <time>2011-05-15T11:09:45Z</time>
      </trkpt>
      <trkpt lat="45.52585" lon="5.86952">
        <ele>812.93</ele>
        <time>2011-05-15T11:10:00Z</time>
      </trkpt>
      <trkpt lat="45.52575" lon="5.86928">
        <ele>814.85</ele>
        <time>2011-05-15T11:10:15Z</time>
      </trkpt>
      <trkpt lat="45.52562" lon="5.86904">
        <ele>816.78</ele>
        <time>2011-05-15T11:10:31Z</time>
      </trkpt>
      <trkpt lat="45.5256" lon="5.86902">
        <ele>816.78</ele>
        <time>2011-05-15T11:10:33Z</time>
      </trkpt>
      <trkpt lat="45.52559" lon="5.869">
        <ele>816.78</ele>
        <time>2011-05-15T11:10:35Z</time>
      </trkpt>
      <trkpt lat="45.52549" lon="5.86874">
        <ele>819.66</ele>
        <time>2011-05-15T11:10:52Z</time>
      </trkpt>
      <trkpt lat="45.52548" lon="5.86872">
        <ele>819.66</ele>
        <time>2011-05-15T11:10:54Z</time>
      </trkpt>
      <trkpt lat="45.52544" lon="5.86868">
        <ele>820.14</ele>
        <time>2011-05-15T11:10:57Z</time>
      </trkpt>
      <trkpt lat="45.52537" lon="5.86881">
        <ele>821.58</ele>
        <time>2011-05-15T11:11:07Z</time>
      </trkpt>
      <trkpt lat="45.52543" lon="5.86915">
        <ele>823.99</ele>
        <time>2011-05-15T11:11:25Z</time>
      </trkpt>
      <trkpt lat="45.52546" lon="5.8695">
        <ele>826.39</ele>
        <time>2011-05-15T11:11:43Z</time>
      </trkpt>
      <trkpt lat="45.52548" lon="5.86973">
        <ele>828.31</ele>
        <time>2011-05-15T11:11:56Z</time>
      </trkpt>
      <trkpt lat="45.52538" lon="5.86988">
        <ele>829.76</ele>
        <time>2011-05-15T11:12:08Z</time>
      </trkpt>
      <trkpt lat="45.52536" lon="5.86987">
        <ele>829.76</ele>
        <time>2011-05-15T11:12:09Z</time>
      </trkpt>
      <trkpt lat="45.52529" lon="5.8696">
        <ele>831.2</ele>
        <time>2011-05-15T11:12:23Z</time>
      </trkpt>
      <trkpt lat="45.5252" lon="5.86933">
        <ele>834.56</ele>
        <time>2011-05-15T11:12:38Z</time>
      </trkpt>
      <trkpt lat="45.5251" lon="5.8691">
        <ele>836</ele>
        <time>2011-05-15T11:12:52Z</time>
      </trkpt>
      <trkpt lat="45.52502" lon="5.86892">
        <ele>837.93</ele>
        <time>2011-05-15T11:13:02Z</time>
      </trkpt>
      <trkpt lat="45.52501" lon="5.86882">
        <ele>838.41</ele>
        <time>2011-05-15T11:13:08Z</time>
      </trkpt>
      <trkpt lat="45.52498" lon="5.86867">
        <ele>839.37</ele>
        <time>2011-05-15T11:13:16Z</time>
      </trkpt>
      <trkpt lat="45.52493" lon="5.86843">
        <ele>840.81</ele>
        <time>2011-05-15T11:13:29Z</time>
      </trkpt>
      <trkpt lat="45.52484" lon="5.86846">
        <ele>842.25</ele>
        <time>2011-05-15T11:13:36Z</time>
      </trkpt>
      <trkpt lat="45.52483" lon="5.86868">
        <ele>843.21</ele>
        <time>2011-05-15T11:13:46Z</time>
      </trkpt>
      <trkpt lat="45.52484" lon="5.86892">
        <ele>846.1</ele>
        <time>2011-05-15T11:13:58Z</time>
      </trkpt>
      <trkpt lat="45.52483" lon="5.86901">
        <ele>846.58</ele>
        <time>2011-05-15T11:14:03Z</time>
      </trkpt>
      <trkpt lat="45.52487" lon="5.86927">
        <ele>848.5</ele>
        <time>2011-05-15T11:14:17Z</time>
      </trkpt>
      <trkpt lat="45.5249" lon="5.86951">
        <ele>851.38</ele>
        <time>2011-05-15T11:14:29Z</time>
      </trkpt>
      <trkpt lat="45.52492" lon="5.86978">
        <ele>853.31</ele>
        <time>2011-05-15T11:14:43Z</time>
      </trkpt>
      <trkpt lat="45.52483" lon="5.87005">
        <ele>856.67</ele>
        <time>2011-05-15T11:14:57Z</time>
      </trkpt>
      <trkpt lat="45.52481" lon="5.87036">
        <ele>857.63</ele>
        <time>2011-05-15T11:15:12Z</time>
      </trkpt>
      <trkpt lat="45.52481" lon="5.87044">
        <ele>858.59</ele>
        <time>2011-05-15T11:15:16Z</time>
      </trkpt>
      <trkpt lat="45.52477" lon="5.87074">
        <ele>861</ele>
        <time>2011-05-15T11:15:31Z</time>
      </trkpt>
      <trkpt lat="45.52465" lon="5.871">
        <ele>863.88</ele>
        <time>2011-05-15T11:15:46Z</time>
      </trkpt>
      <trkpt lat="45.52457" lon="5.87113">
        <ele>865.32</ele>
        <time>2011-05-15T11:15:55Z</time>
      </trkpt>
      <trkpt lat="45.52445" lon="5.87137">
        <ele>868.69</ele>
        <time>2011-05-15T11:16:11Z</time>
      </trkpt>
      <trkpt lat="45.52435" lon="5.87154">
        <ele>870.61</ele>
        <time>2011-05-15T11:16:22Z</time>
      </trkpt>
      <trkpt lat="45.52424" lon="5.87139">
        <ele>872.53</ele>
        <time>2011-05-15T11:16:34Z</time>
      </trkpt>
      <trkpt lat="45.52424" lon="5.87114">
        <ele>873.5</ele>
        <time>2011-05-15T11:16:48Z</time>
      </trkpt>
      <trkpt lat="45.52417" lon="5.87084">
        <ele>876.38</ele>
        <time>2011-05-15T11:17:05Z</time>
      </trkpt>
      <trkpt lat="45.52411" lon="5.87063">
        <ele>877.82</ele>
        <time>2011-05-15T11:17:19Z</time>
      </trkpt>
      <trkpt lat="45.52399" lon="5.87038">
        <ele>880.71</ele>
        <time>2011-05-15T11:17:33Z</time>
      </trkpt>
      <trkpt lat="45.52384" lon="5.87014">
        <ele>883.11</ele>
        <time>2011-05-15T11:17:49Z</time>
      </trkpt>
      <trkpt lat="45.52371" lon="5.86995">
        <ele>885.99</ele>
        <time>2011-05-15T11:18:03Z</time>
      </trkpt>
      <trkpt lat="45.5236" lon="5.86977">
        <ele>887.91</ele>
        <time>2011-05-15T11:18:16Z</time>
      </trkpt>
      <trkpt lat="45.52348" lon="5.86951">
        <ele>890.8</ele>
        <time>2011-05-15T11:18:33Z</time>
      </trkpt>
      <trkpt lat="45.52335" lon="5.86931">
        <ele>892.24</ele>
        <time>2011-05-15T11:18:48Z</time>
      </trkpt>
      <trkpt lat="45.52324" lon="5.8691">
        <ele>894.64</ele>
        <time>2011-05-15T11:19:03Z</time>
      </trkpt>
      <trkpt lat="45.52317" lon="5.86895">
        <ele>897.05</ele>
        <time>2011-05-15T11:19:13Z</time>
      </trkpt>
      <trkpt lat="45.52308" lon="5.86873">
        <ele>898.49</ele>
        <time>2011-05-15T11:19:28Z</time>
      </trkpt>
      <trkpt lat="45.52303" lon="5.86872">
        <ele>898.97</ele>
        <time>2011-05-15T11:19:31Z</time>
      </trkpt>
      <trkpt lat="45.52297" lon="5.86877">
        <ele>899.93</ele>
        <time>2011-05-15T11:19:36Z</time>
      </trkpt>
      <trkpt lat="45.52297" lon="5.86881">
        <ele>900.41</ele>
        <time>2011-05-15T11:19:39Z</time>
      </trkpt>
      <trkpt lat="45.52296" lon="5.86889">
        <ele>900.41</ele>
        <time>2011-05-15T11:19:43Z</time>
      </trkpt>
      <trkpt lat="45.52295" lon="5.86928">
        <ele>902.82</ele>
        <time>2011-05-15T11:20:03Z</time>
      </trkpt>
      <trkpt lat="45.5229" lon="5.86959">
        <ele>905.22</ele>
        <time>2011-05-15T11:20:19Z</time>
      </trkpt>
      <trkpt lat="45.52287" lon="5.86988">
        <ele>907.14</ele>
        <time>2011-05-15T11:20:34Z</time>
      </trkpt>
      <trkpt lat="45.52282" lon="5.87011">
        <ele>909.54</ele>
        <time>2011-05-15T11:20:47Z</time>
      </trkpt>
      <trkpt lat="45.5228" lon="5.8704">
        <ele>910.99</ele>
        <time>2011-05-15T11:21:01Z</time>
      </trkpt>
      <trkpt lat="45.52282" lon="5.87056">
        <ele>912.91</ele>
        <time>2011-05-15T11:21:10Z</time>
      </trkpt>
      <trkpt lat="45.52268" lon="5.87065">
        <ele>913.39</ele>
        <time>2011-05-15T11:21:22Z</time>
      </trkpt>
      <trkpt lat="45.52266" lon="5.87062">
        <ele>913.39</ele>
        <time>2011-05-15T11:21:24Z</time>
      </trkpt>
      <trkpt lat="45.52258" lon="5.87031">
        <ele>915.31</ele>
        <time>2011-05-15T11:21:38Z</time>
      </trkpt>
      <trkpt lat="45.52256" lon="5.86995">
        <ele>916.75</ele>
        <time>2011-05-15T11:21:52Z</time>
      </trkpt>
      <trkpt lat="45.52251" lon="5.86962">
        <ele>919.64</ele>
        <time>2011-05-15T11:22:05Z</time>
      </trkpt>
      <trkpt lat="45.52239" lon="5.86937">
        <ele>922.04</ele>
        <time>2011-05-15T11:22:17Z</time>
      </trkpt>
      <trkpt lat="45.52222" lon="5.86917">
        <ele>923.96</ele>
        <time>2011-05-15T11:22:31Z</time>
      </trkpt>
      <trkpt lat="45.52206" lon="5.86897">
        <ele>927.33</ele>
        <time>2011-05-15T11:22:44Z</time>
      </trkpt>
      <trkpt lat="45.52203" lon="5.86892">
        <ele>927.33</ele>
        <time>2011-05-15T11:22:47Z</time>
      </trkpt>
      <trkpt lat="45.52192" lon="5.86868">
        <ele>930.69</ele>
        <time>2011-05-15T11:23:02Z</time>
      </trkpt>
      <trkpt lat="45.52181" lon="5.86846">
        <ele>933.1</ele>
        <time>2011-05-15T11:23:16Z</time>
      </trkpt>
      <trkpt lat="45.52176" lon="5.86839">
        <ele>934.06</ele>
        <time>2011-05-15T11:23:22Z</time>
      </trkpt>
      <trkpt lat="45.52169" lon="5.86832">
        <ele>935.02</ele>
        <time>2011-05-15T11:23:29Z</time>
      </trkpt>
      <trkpt lat="45.52158" lon="5.86825">
        <ele>936.46</ele>
        <time>2011-05-15T11:23:38Z</time>
      </trkpt>
      <trkpt lat="45.52147" lon="5.86835">
        <ele>938.86</ele>
        <time>2011-05-15T11:23:48Z</time>
      </trkpt>
      <trkpt lat="45.52146" lon="5.86869">
        <ele>940.31</ele>
        <time>2011-05-15T11:24:03Z</time>
      </trkpt>
      <trkpt lat="45.52145" lon="5.86896">
        <ele>942.71</ele>
        <time>2011-05-15T11:24:15Z</time>
      </trkpt>
      <trkpt lat="45.52146" lon="5.86932">
        <ele>945.11</ele>
        <time>2011-05-15T11:24:29Z</time>
      </trkpt>
      <trkpt lat="45.52147" lon="5.86938">
        <ele>945.11</ele>
        <time>2011-05-15T11:24:31Z</time>
      </trkpt>
      <trkpt lat="45.52147" lon="5.8698">
        <ele>946.56</ele>
        <time>2011-05-15T11:24:47Z</time>
      </trkpt>
      <trkpt lat="45.5214" lon="5.86986">
        <ele>947.04</ele>
        <time>2011-05-15T11:24:52Z</time>
      </trkpt>
      <trkpt lat="45.52132" lon="5.8698">
        <ele>948</ele>
        <time>2011-05-15T11:24:57Z</time>
      </trkpt>
      <trkpt lat="45.52114" lon="5.86956">
        <ele>950.4</ele>
        <time>2011-05-15T11:25:12Z</time>
      </trkpt>
      <trkpt lat="45.52099" lon="5.86933">
        <ele>952.8</ele>
        <time>2011-05-15T11:25:27Z</time>
      </trkpt>
      <trkpt lat="45.52087" lon="5.86912">
        <ele>955.69</ele>
        <time>2011-05-15T11:25:42Z</time>
      </trkpt>
      <trkpt lat="45.52074" lon="5.86894">
        <ele>957.61</ele>
        <time>2011-05-15T11:25:55Z</time>
      </trkpt>
      <trkpt lat="45.52057" lon="5.86877">
        <ele>960.49</ele>
        <time>2011-05-15T11:26:11Z</time>
      </trkpt>
      <trkpt lat="45.52055" lon="5.86875">
        <ele>960.98</ele>
        <time>2011-05-15T11:26:14Z</time>
      </trkpt>
      <trkpt lat="45.52042" lon="5.86861">
        <ele>962.9</ele>
        <time>2011-05-15T11:26:28Z</time>
      </trkpt>
      <trkpt lat="45.52034" lon="5.86852">
        <ele>963.38</ele>
        <time>2011-05-15T11:26:36Z</time>
      </trkpt>
      <trkpt lat="45.5202" lon="5.8683">
        <ele>966.26</ele>
        <time>2011-05-15T11:26:50Z</time>
      </trkpt>
      <trkpt lat="45.52004" lon="5.86808">
        <ele>969.15</ele>
        <time>2011-05-15T11:27:06Z</time>
      </trkpt>
      <trkpt lat="45.51989" lon="5.86792">
        <ele>972.03</ele>
        <time>2011-05-15T11:27:20Z</time>
      </trkpt>
      <trkpt lat="45.51971" lon="5.86778">
        <ele>973.95</ele>
        <time>2011-05-15T11:27:36Z</time>
      </trkpt>
      <trkpt lat="45.51949" lon="5.86762">
        <ele>976.84</ele>
        <time>2011-05-15T11:27:50Z</time>
      </trkpt>
      <trkpt lat="45.51947" lon="5.86762">
        <ele>976.36</ele>
        <time>2011-05-15T11:27:51Z</time>
      </trkpt>
      <trkpt lat="45.51941" lon="5.86773">
        <ele>977.32</ele>
        <time>2011-05-15T11:27:57Z</time>
      </trkpt>
      <trkpt lat="45.51943" lon="5.86797">
        <ele>978.76</ele>
        <time>2011-05-15T11:28:06Z</time>
      </trkpt>
      <trkpt lat="45.51957" lon="5.86821">
        <ele>981.16</ele>
        <time>2011-05-15T11:28:19Z</time>
      </trkpt>
      <trkpt lat="45.51967" lon="5.86853">
        <ele>983.09</ele>
        <time>2011-05-15T11:28:34Z</time>
      </trkpt>
      <trkpt lat="45.51972" lon="5.86888">
        <ele>984.53</ele>
        <time>2011-05-15T11:28:48Z</time>
      </trkpt>
      <trkpt lat="45.51958" lon="5.86901">
        <ele>986.45</ele>
        <time>2011-05-15T11:29:00Z</time>
      </trkpt>
      <trkpt lat="45.51939" lon="5.86883">
        <ele>988.85</ele>
        <time>2011-05-15T11:29:14Z</time>
      </trkpt>
      <trkpt lat="45.51922" lon="5.86865">
        <ele>991.74</ele>
        <time>2011-05-15T11:29:28Z</time>
      </trkpt>
      <trkpt lat="45.51902" lon="5.8685">
        <ele>994.14</ele>
        <time>2011-05-15T11:29:41Z</time>
      </trkpt>
      <trkpt lat="45.51896" lon="5.86845">
        <ele>995.1</ele>
        <time>2011-05-15T11:29:46Z</time>
      </trkpt>
      <trkpt lat="45.51889" lon="5.86835">
        <ele>996.54</ele>
        <time>2011-05-15T11:29:54Z</time>
      </trkpt>
      <trkpt lat="45.51875" lon="5.86825">
        <ele>998.95</ele>
        <time>2011-05-15T11:30:07Z</time>
      </trkpt>
      <trkpt lat="45.51857" lon="5.86815">
        <ele>1000.87</ele>
        <time>2011-05-15T11:30:21Z</time>
      </trkpt>
      <trkpt lat="45.51835" lon="5.86808">
        <ele>1003.75</ele>
        <time>2011-05-15T11:30:37Z</time>
      </trkpt>
      <trkpt lat="45.51815" lon="5.86804">
        <ele>1006.16</ele>
        <time>2011-05-15T11:30:52Z</time>
      </trkpt>
      <trkpt lat="45.51794" lon="5.868">
        <ele>1008.56</ele>
        <time>2011-05-15T11:31:09Z</time>
      </trkpt>
      <trkpt lat="45.51772" lon="5.868">
        <ele>1011.44</ele>
        <time>2011-05-15T11:31:24Z</time>
      </trkpt>
      <trkpt lat="45.51763" lon="5.868">
        <ele>1012.89</ele>
        <time>2011-05-15T11:31:30Z</time>
      </trkpt>
      <trkpt lat="45.51743" lon="5.86805">
        <ele>1015.29</ele>
        <time>2011-05-15T11:31:44Z</time>
      </trkpt>
      <trkpt lat="45.51726" lon="5.86804">
        <ele>1017.69</ele>
        <time>2011-05-15T11:31:58Z</time>
      </trkpt>
      <trkpt lat="45.51706" lon="5.86803">
        <ele>1020.1</ele>
        <time>2011-05-15T11:32:13Z</time>
      </trkpt>
      <trkpt lat="45.51687" lon="5.86805">
        <ele>1022.98</ele>
        <time>2011-05-15T11:32:27Z</time>
      </trkpt>
      <trkpt lat="45.51664" lon="5.86805">
        <ele>1024.9</ele>
        <time>2011-05-15T11:32:43Z</time>
      </trkpt>
      <trkpt lat="45.51643" lon="5.868">
        <ele>1026.83</ele>
        <time>2011-05-15T11:32:58Z</time>
      </trkpt>
      <trkpt lat="45.51616" lon="5.86801">
        <ele>1028.75</ele>
        <time>2011-05-15T11:33:15Z</time>
      </trkpt>
      <trkpt lat="45.51605" lon="5.86803">
        <ele>1030.19</ele>
        <time>2011-05-15T11:33:23Z</time>
      </trkpt>
      <trkpt lat="45.51579" lon="5.86814">
        <ele>1032.59</ele>
        <time>2011-05-15T11:33:41Z</time>
      </trkpt>
      <trkpt lat="45.51562" lon="5.86812">
        <ele>1035</ele>
        <time>2011-05-15T11:33:54Z</time>
      </trkpt>
      <trkpt lat="45.51544" lon="5.86792">
        <ele>1036.92</ele>
        <time>2011-05-15T11:34:09Z</time>
      </trkpt>
      <trkpt lat="45.51534" lon="5.86762">
        <ele>1039.32</ele>
        <time>2011-05-15T11:34:25Z</time>
      </trkpt>
      <trkpt lat="45.51519" lon="5.86737">
        <ele>1041.73</ele>
        <time>2011-05-15T11:34:41Z</time>
      </trkpt>
      <trkpt lat="45.51508" lon="5.86718">
        <ele>1044.13</ele>
        <time>2011-05-15T11:34:55Z</time>
      </trkpt>
      <trkpt lat="45.51502" lon="5.86694">
        <ele>1045.09</ele>
        <time>2011-05-15T11:35:10Z</time>
      </trkpt>
      <trkpt lat="45.51501" lon="5.86693">
        <ele>1044.13</ele>
        <time>2011-05-15T11:35:28Z</time>
      </trkpt>
      <trkpt lat="45.515" lon="5.86693">
        <ele>1044.13</ele>
        <time>2011-05-15T11:36:06Z</time>
      </trkpt>
      <trkpt lat="45.515" lon="5.86693">
        <ele>1043.65</ele>
        <time>2011-05-15T11:36:41Z</time>
      </trkpt>
      <trkpt lat="45.515" lon="5.86693">
        <ele>1044.13</ele>
        <time>2011-05-15T11:37:15Z</time>
      </trkpt>
      <trkpt lat="45.515" lon="5.86693">
        <ele>1043.65</ele>
        <time>2011-05-15T11:37:54Z</time>
      </trkpt>
      <trkpt lat="45.515" lon="5.86693">
        <ele>1043.17</ele>
        <time>2011-05-15T11:38:31Z</time>
      </trkpt>
      <trkpt lat="45.51498" lon="5.86693">
        <ele>1043.17</ele>
        <time>2011-05-15T11:39:02Z</time>
      </trkpt>
      <trkpt lat="45.51498" lon="5.86693">
        <ele>1043.65</ele>
        <time>2011-05-15T11:39:32Z</time>
      </trkpt>
      <trkpt lat="45.51499" lon="5.86693">
        <ele>1039.8</ele>
        <time>2011-05-15T11:39:50Z</time>
      </trkpt>
      <trkpt lat="45.51499" lon="5.86693">
        <ele>1039.8</ele>
        <time>2011-05-15T11:39:51Z</time>
      </trkpt>
      <trkpt lat="45.51499" lon="5.86693">
        <ele>1044.13</ele>
        <time>2011-05-15T11:40:05Z</time>
      </trkpt>
      <trkpt lat="45.51499" lon="5.86693">
        <ele>1044.13</ele>
        <time>2011-05-15T11:40:06Z</time>
      </trkpt>
      <trkpt lat="45.51499" lon="5.86693">
        <ele>1043.17</ele>
        <time>2011-05-15T11:40:44Z</time>
      </trkpt>
      <trkpt lat="45.515" lon="5.86692">
        <ele>1043.65</ele>
        <time>2011-05-15T11:41:17Z</time>
      </trkpt>
      <trkpt lat="45.515" lon="5.86696">
        <ele>1044.13</ele>
        <time>2011-05-15T11:41:40Z</time>
      </trkpt>
      <trkpt lat="45.515" lon="5.86701">
        <ele>1044.61</ele>
        <time>2011-05-15T11:41:42Z</time>
      </trkpt>
      <trkpt lat="45.51497" lon="5.86704">
        <ele>1044.61</ele>
        <time>2011-05-15T11:41:45Z</time>
      </trkpt>
      <trkpt lat="45.51494" lon="5.86701">
        <ele>1046.05</ele>
        <time>2011-05-15T11:41:48Z</time>
      </trkpt>
      <trkpt lat="45.51482" lon="5.86683">
        <ele>1048.94</ele>
        <time>2011-05-15T11:42:00Z</time>
      </trkpt>
      <trkpt lat="45.51461" lon="5.86674">
        <ele>1051.34</ele>
        <time>2011-05-15T11:42:16Z</time>
      </trkpt>
      <trkpt lat="45.51455" lon="5.86698">
        <ele>1053.74</ele>
        <time>2011-05-15T11:42:29Z</time>
      </trkpt>
      <trkpt lat="45.51465" lon="5.86732">
        <ele>1056.15</ele>
        <time>2011-05-15T11:42:44Z</time>
      </trkpt>
      <trkpt lat="45.51465" lon="5.8675">
        <ele>1058.07</ele>
        <time>2011-05-15T11:42:52Z</time>
      </trkpt>
      <trkpt lat="45.51464" lon="5.86756">
        <ele>1058.07</ele>
        <time>2011-05-15T11:42:55Z</time>
      </trkpt>
      <trkpt lat="45.51455" lon="5.86756">
        <ele>1058.55</ele>
        <time>2011-05-15T11:43:00Z</time>
      </trkpt>
      <trkpt lat="45.51435" lon="5.86726">
        <ele>1061.91</ele>
        <time>2011-05-15T11:43:18Z</time>
      </trkpt>
      <trkpt lat="45.51416" lon="5.86703">
        <ele>1063.36</ele>
        <time>2011-05-15T11:43:33Z</time>
      </trkpt>
      <trkpt lat="45.51397" lon="5.86667">
        <ele>1065.76</ele>
        <time>2011-05-15T11:43:52Z</time>
      </trkpt>
      <trkpt lat="45.51382" lon="5.86639">
        <ele>1067.68</ele>
        <time>2011-05-15T11:44:06Z</time>
      </trkpt>
      <trkpt lat="45.51365" lon="5.8661">
        <ele>1070.57</ele>
        <time>2011-05-15T11:44:22Z</time>
      </trkpt>
      <trkpt lat="45.51348" lon="5.8658">
        <ele>1073.45</ele>
        <time>2011-05-15T11:44:39Z</time>
      </trkpt>
      <trkpt lat="45.5133" lon="5.86558">
        <ele>1076.81</ele>
        <time>2011-05-15T11:44:56Z</time>
      </trkpt>
      <trkpt lat="45.51321" lon="5.86546">
        <ele>1079.22</ele>
        <time>2011-05-15T11:45:05Z</time>
      </trkpt>
      <trkpt lat="45.51304" lon="5.86546">
        <ele>1081.62</ele>
        <time>2011-05-15T11:45:18Z</time>
      </trkpt>
      <trkpt lat="45.51288" lon="5.86557">
        <ele>1083.54</ele>
        <time>2011-05-15T11:45:31Z</time>
      </trkpt>
      <trkpt lat="45.51275" lon="5.8654">
        <ele>1086.91</ele>
        <time>2011-05-15T11:45:44Z</time>
      </trkpt>
      <trkpt lat="45.5127" lon="5.86535">
        <ele>1087.39</ele>
        <time>2011-05-15T11:45:49Z</time>
      </trkpt>
      <trkpt lat="45.51255" lon="5.86523">
        <ele>1088.83</ele>
        <time>2011-05-15T11:46:01Z</time>
      </trkpt>
      <trkpt lat="45.5125" lon="5.86523">
        <ele>1090.27</ele>
        <time>2011-05-15T11:46:05Z</time>
      </trkpt>
      <trkpt lat="45.51232" lon="5.86521">
        <ele>1092.68</ele>
        <time>2011-05-15T11:46:21Z</time>
      </trkpt>
      <trkpt lat="45.51214" lon="5.8651">
        <ele>1095.56</ele>
        <time>2011-05-15T11:46:37Z</time>
      </trkpt>
      <trkpt lat="45.51196" lon="5.86506">
        <ele>1097.96</ele>
        <time>2011-05-15T11:46:51Z</time>
      </trkpt>
      <trkpt lat="45.51178" lon="5.86497">
        <ele>1100.37</ele>
        <time>2011-05-15T11:47:06Z</time>
      </trkpt>
      <trkpt lat="45.51168" lon="5.86483">
        <ele>1102.29</ele>
        <time>2011-05-15T11:47:16Z</time>
      </trkpt>
      <trkpt lat="45.51152" lon="5.86474">
        <ele>1104.69</ele>
        <time>2011-05-15T11:47:30Z</time>
      </trkpt>
      <trkpt lat="45.51136" lon="5.8646">
        <ele>1106.61</ele>
        <time>2011-05-15T11:47:45Z</time>
      </trkpt>
      <trkpt lat="45.51133" lon="5.86457">
        <ele>1107.1</ele>
        <time>2011-05-15T11:47:49Z</time>
      </trkpt>
      <trkpt lat="45.51125" lon="5.8645">
        <ele>1108.06</ele>
        <time>2011-05-15T11:47:56Z</time>
      </trkpt>
      <trkpt lat="45.51119" lon="5.86442">
        <ele>1109.5</ele>
        <time>2011-05-15T11:48:02Z</time>
      </trkpt>
      <trkpt lat="45.51114" lon="5.86435">
        <ele>1109.98</ele>
        <time>2011-05-15T11:48:07Z</time>
      </trkpt>
      <trkpt lat="45.51102" lon="5.86421">
        <ele>1111.9</ele>
        <time>2011-05-15T11:48:22Z</time>
      </trkpt>
      <trkpt lat="45.51091" lon="5.86415">
        <ele>1113.82</ele>
        <time>2011-05-15T11:48:31Z</time>
      </trkpt>
      <trkpt lat="45.51076" lon="5.86408">
        <ele>1116.23</ele>
        <time>2011-05-15T11:48:47Z</time>
      </trkpt>
      <trkpt lat="45.51057" lon="5.86393">
        <ele>1118.15</ele>
        <time>2011-05-15T11:49:04Z</time>
      </trkpt>
      <trkpt lat="45.51053" lon="5.8639">
        <ele>1119.11</ele>
        <time>2011-05-15T11:49:08Z</time>
      </trkpt>
      <trkpt lat="45.51037" lon="5.86377">
        <ele>1122.48</ele>
        <time>2011-05-15T11:49:25Z</time>
      </trkpt>
      <trkpt lat="45.51022" lon="5.86369">
        <ele>1123.92</ele>
        <time>2011-05-15T11:49:40Z</time>
      </trkpt>
      <trkpt lat="45.51018" lon="5.86366">
        <ele>1124.4</ele>
        <time>2011-05-15T11:49:46Z</time>
      </trkpt>
      <trkpt lat="45.51004" lon="5.86359">
        <ele>1126.8</ele>
        <time>2011-05-15T11:50:01Z</time>
      </trkpt>
      <trkpt lat="45.50994" lon="5.86347">
        <ele>1127.76</ele>
        <time>2011-05-15T11:50:11Z</time>
      </trkpt>
      <trkpt lat="45.50986" lon="5.86344">
        <ele>1130.17</ele>
        <time>2011-05-15T11:50:27Z</time>
      </trkpt>
      <trkpt lat="45.50978" lon="5.86339">
        <ele>1132.09</ele>
        <time>2011-05-15T11:50:42Z</time>
      </trkpt>
      <trkpt lat="45.50975" lon="5.86338">
        <ele>1132.09</ele>
        <time>2011-05-15T11:50:45Z</time>
      </trkpt>
      <trkpt lat="45.50968" lon="5.86333">
        <ele>1133.53</ele>
        <time>2011-05-15T11:50:54Z</time>
      </trkpt>
      <trkpt lat="45.50959" lon="5.86324">
        <ele>1134.97</ele>
        <time>2011-05-15T11:51:04Z</time>
      </trkpt>
      <trkpt lat="45.50946" lon="5.86315">
        <ele>1136.9</ele>
        <time>2011-05-15T11:51:20Z</time>
      </trkpt>
      <trkpt lat="45.50946" lon="5.86315">
        <ele>1137.38</ele>
        <time>2011-05-15T11:51:44Z</time>
      </trkpt>
      <trkpt lat="45.50946" lon="5.86315">
        <ele>1137.38</ele>
        <time>2011-05-15T11:52:16Z</time>
      </trkpt>
      <trkpt lat="45.50933" lon="5.86308">
        <ele>1138.82</ele>
        <time>2011-05-15T11:52:29Z</time>
      </trkpt>
      <trkpt lat="45.50911" lon="5.86304">
        <ele>1141.22</ele>
        <time>2011-05-15T11:52:44Z</time>
      </trkpt>
      <trkpt lat="45.50893" lon="5.86301">
        <ele>1143.14</ele>
        <time>2011-05-15T11:52:59Z</time>
      </trkpt>
      <trkpt lat="45.50876" lon="5.86296">
        <ele>1145.07</ele>
        <time>2011-05-15T11:53:15Z</time>
      </trkpt>
      <trkpt lat="45.50858" lon="5.86296">
        <ele>1148.43</ele>
        <time>2011-05-15T11:53:29Z</time>
      </trkpt>
      <trkpt lat="45.50845" lon="5.86291">
        <ele>1149.87</ele>
        <time>2011-05-15T11:53:43Z</time>
      </trkpt>
      <trkpt lat="45.50835" lon="5.86288">
        <ele>1153.24</ele>
        <time>2011-05-15T11:53:57Z</time>
      </trkpt>
      <trkpt lat="45.50819" lon="5.86283">
        <ele>1155.64</ele>
        <time>2011-05-15T11:54:14Z</time>
      </trkpt>
      <trkpt lat="45.50805" lon="5.86274">
        <ele>1158.05</ele>
        <time>2011-05-15T11:54:30Z</time>
      </trkpt>
      <trkpt lat="45.50797" lon="5.8627">
        <ele>1160.45</ele>
        <time>2011-05-15T11:54:44Z</time>
      </trkpt>
      <trkpt lat="45.50787" lon="5.86269">
        <ele>1162.37</ele>
        <time>2011-05-15T11:54:57Z</time>
      </trkpt>
      <trkpt lat="45.50778" lon="5.86258">
        <ele>1164.77</ele>
        <time>2011-05-15T11:55:12Z</time>
      </trkpt>
      <trkpt lat="45.50766" lon="5.86247">
        <ele>1167.18</ele>
        <time>2011-05-15T11:55:27Z</time>
      </trkpt>
      <trkpt lat="45.50753" lon="5.86245">
        <ele>1169.1</ele>
        <time>2011-05-15T11:55:42Z</time>
      </trkpt>
      <trkpt lat="45.5074" lon="5.86245">
        <ele>1171.5</ele>
        <time>2011-05-15T11:55:58Z</time>
      </trkpt>
      <trkpt lat="45.50729" lon="5.86238">
        <ele>1173.43</ele>
        <time>2011-05-15T11:56:10Z</time>
      </trkpt>
      <trkpt lat="45.50712" lon="5.86233">
        <ele>1175.35</ele>
        <time>2011-05-15T11:56:27Z</time>
      </trkpt>
      <trkpt lat="45.507" lon="5.86235">
        <ele>1177.75</ele>
        <time>2011-05-15T11:56:43Z</time>
      </trkpt>
      <trkpt lat="45.50686" lon="5.86232">
        <ele>1179.67</ele>
        <time>2011-05-15T11:57:00Z</time>
      </trkpt>
      <trkpt lat="45.50682" lon="5.86228">
        <ele>1180.64</ele>
        <time>2011-05-15T11:57:04Z</time>
      </trkpt>
      <trkpt lat="45.50663" lon="5.86219">
        <ele>1182.56</ele>
        <time>2011-05-15T11:57:23Z</time>
      </trkpt>
      <trkpt lat="45.50651" lon="5.86218">
        <ele>1184.48</ele>
        <time>2011-05-15T11:57:38Z</time>
      </trkpt>
      <trkpt lat="45.50639" lon="5.86216">
        <ele>1187.37</ele>
        <time>2011-05-15T11:57:54Z</time>
      </trkpt>
      <trkpt lat="45.50637" lon="5.86215">
        <ele>1187.85</ele>
        <time>2011-05-15T11:57:57Z</time>
      </trkpt>
      <trkpt lat="45.50622" lon="5.86218">
        <ele>1190.25</ele>
        <time>2011-05-15T11:58:15Z</time>
      </trkpt>
      <trkpt lat="45.50608" lon="5.86217">
        <ele>1192.65</ele>
        <time>2011-05-15T11:58:31Z</time>
      </trkpt>
      <trkpt lat="45.50598" lon="5.86212">
        <ele>1194.58</ele>
        <time>2011-05-15T11:58:45Z</time>
      </trkpt>
      <trkpt lat="45.50586" lon="5.86204">
        <ele>1196.02</ele>
        <time>2011-05-15T11:58:59Z</time>
      </trkpt>
      <trkpt lat="45.50569" lon="5.862">
        <ele>1198.42</ele>
        <time>2011-05-15T11:59:15Z</time>
      </trkpt>
      <trkpt lat="45.50557" lon="5.86194">
        <ele>1199.86</ele>
        <time>2011-05-15T11:59:29Z</time>
      </trkpt>
      <trkpt lat="45.50541" lon="5.86185">
        <ele>1201.79</ele>
        <time>2011-05-15T11:59:47Z</time>
      </trkpt>
      <trkpt lat="45.5053" lon="5.86185">
        <ele>1203.71</ele>
        <time>2011-05-15T12:00:02Z</time>
      </trkpt>
      <trkpt lat="45.50515" lon="5.86182">
        <ele>1206.59</ele>
        <time>2011-05-15T12:00:16Z</time>
      </trkpt>
      <trkpt lat="45.50502" lon="5.86173">
        <ele>1208.51</ele>
        <time>2011-05-15T12:00:31Z</time>
      </trkpt>
      <trkpt lat="45.50487" lon="5.86158">
        <ele>1209.48</ele>
        <time>2011-05-15T12:00:46Z</time>
      </trkpt>
      <trkpt lat="45.50472" lon="5.86143">
        <ele>1210.44</ele>
        <time>2011-05-15T12:01:03Z</time>
      </trkpt>
      <trkpt lat="45.50468" lon="5.8614">
        <ele>1211.4</ele>
        <time>2011-05-15T12:01:15Z</time>
      </trkpt>
      <trkpt lat="45.50452" lon="5.86142">
        <ele>1213.32</ele>
        <time>2011-05-15T12:01:29Z</time>
      </trkpt>
      <trkpt lat="45.50447" lon="5.86143">
        <ele>1213.8</ele>
        <time>2011-05-15T12:01:32Z</time>
      </trkpt>
      <trkpt lat="45.50419" lon="5.8612">
        <ele>1214.76</ele>
        <time>2011-05-15T12:01:48Z</time>
      </trkpt>
      <trkpt lat="45.50388" lon="5.86093">
        <ele>1216.21</ele>
        <time>2011-05-15T12:02:03Z</time>
      </trkpt>
      <trkpt lat="45.50367" lon="5.86078">
        <ele>1219.09</ele>
        <time>2011-05-15T12:02:16Z</time>
      </trkpt>
      <trkpt lat="45.50349" lon="5.86071">
        <ele>1221.97</ele>
        <time>2011-05-15T12:02:27Z</time>
      </trkpt>
      <trkpt lat="45.50328" lon="5.86065">
        <ele>1223.9</ele>
        <time>2011-05-15T12:02:40Z</time>
      </trkpt>
      <trkpt lat="45.50308" lon="5.86055">
        <ele>1225.82</ele>
        <time>2011-05-15T12:02:53Z</time>
      </trkpt>
      <trkpt lat="45.50287" lon="5.86043">
        <ele>1228.22</ele>
        <time>2011-05-15T12:03:09Z</time>
      </trkpt>
      <trkpt lat="45.50274" lon="5.86041">
        <ele>1229.66</ele>
        <time>2011-05-15T12:03:18Z</time>
      </trkpt>
      <trkpt lat="45.50266" lon="5.86035">
        <ele>1230.14</ele>
        <time>2011-05-15T12:03:24Z</time>
      </trkpt>
      <trkpt lat="45.50263" lon="5.86032">
        <ele>1230.14</ele>
        <time>2011-05-15T12:03:28Z</time>
      </trkpt>
      <trkpt lat="45.50238" lon="5.86019">
        <ele>1231.11</ele>
        <time>2011-05-15T12:03:44Z</time>
      </trkpt>
      <trkpt lat="45.50212" lon="5.86006">
        <ele>1232.07</ele>
        <time>2011-05-15T12:03:59Z</time>
      </trkpt>
      <trkpt lat="45.50207" lon="5.86005">
        <ele>1232.07</ele>
        <time>2011-05-15T12:04:13Z</time>
      </trkpt>
      <trkpt lat="45.50207" lon="5.86005">
        <ele>1232.07</ele>
        <time>2011-05-15T12:04:44Z</time>
      </trkpt>
      <trkpt lat="45.50207" lon="5.86005">
        <ele>1232.07</ele>
        <time>2011-05-15T12:05:13Z</time>
      </trkpt>
      <trkpt lat="45.50203" lon="5.86004">
        <ele>1231.11</ele>
        <time>2011-05-15T12:05:38Z</time>
      </trkpt>
      <trkpt lat="45.5016" lon="5.86003">
        <ele>1229.66</ele>
        <time>2011-05-15T12:05:52Z</time>
      </trkpt>
      <trkpt lat="45.50147" lon="5.86015">
        <ele>1228.22</ele>
        <time>2011-05-15T12:05:56Z</time>
      </trkpt>
      <trkpt lat="45.50126" lon="5.86045">
        <ele>1225.34</ele>
        <time>2011-05-15T12:06:03Z</time>
      </trkpt>
      <trkpt lat="45.501" lon="5.86097">
        <ele>1221.49</ele>
        <time>2011-05-15T12:06:13Z</time>
      </trkpt>
      <trkpt lat="45.50096" lon="5.86104">
        <ele>1221.01</ele>
        <time>2011-05-15T12:06:14Z</time>
      </trkpt>
      <trkpt lat="45.50083" lon="5.86124">
        <ele>1219.09</ele>
        <time>2011-05-15T12:06:17Z</time>
      </trkpt>
      <trkpt lat="45.50079" lon="5.86132">
        <ele>1217.17</ele>
        <time>2011-05-15T12:06:18Z</time>
      </trkpt>
      <trkpt lat="45.50076" lon="5.8614">
        <ele>1216.69</ele>
        <time>2011-05-15T12:06:19Z</time>
      </trkpt>
      <trkpt lat="45.50073" lon="5.86149">
        <ele>1216.21</ele>
        <time>2011-05-15T12:06:20Z</time>
      </trkpt>
      <trkpt lat="45.50073" lon="5.86157">
        <ele>1216.21</ele>
        <time>2011-05-15T12:06:21Z</time>
      </trkpt>
      <trkpt lat="45.50072" lon="5.86165">
        <ele>1215.72</ele>
        <time>2011-05-15T12:06:22Z</time>
      </trkpt>
      <trkpt lat="45.50072" lon="5.86173">
        <ele>1215.72</ele>
        <time>2011-05-15T12:06:23Z</time>
      </trkpt>
      <trkpt lat="45.50073" lon="5.8618">
        <ele>1214.76</ele>
        <time>2011-05-15T12:06:24Z</time>
      </trkpt>
      <trkpt lat="45.50074" lon="5.86187">
        <ele>1214.28</ele>
        <time>2011-05-15T12:06:25Z</time>
      </trkpt>
      <trkpt lat="45.50074" lon="5.862">
        <ele>1212.84</ele>
        <time>2011-05-15T12:06:27Z</time>
      </trkpt>
      <trkpt lat="45.50073" lon="5.86207">
        <ele>1210.92</ele>
        <time>2011-05-15T12:06:28Z</time>
      </trkpt>
      <trkpt lat="45.5007" lon="5.86214">
        <ele>1210.92</ele>
        <time>2011-05-15T12:06:29Z</time>
      </trkpt>
      <trkpt lat="45.50068" lon="5.86221">
        <ele>1210.92</ele>
        <time>2011-05-15T12:06:30Z</time>
      </trkpt>
      <trkpt lat="45.50065" lon="5.86227">
        <ele>1210.44</ele>
        <time>2011-05-15T12:06:31Z</time>
      </trkpt>
      <trkpt lat="45.5006" lon="5.86232">
        <ele>1209.96</ele>
        <time>2011-05-15T12:06:32Z</time>
      </trkpt>
      <trkpt lat="45.50055" lon="5.86238">
        <ele>1209.48</ele>
        <time>2011-05-15T12:06:33Z</time>
      </trkpt>
      <trkpt lat="45.50051" lon="5.86245">
        <ele>1208.51</ele>
        <time>2011-05-15T12:06:34Z</time>
      </trkpt>
      <trkpt lat="45.50032" lon="5.86276">
        <ele>1205.15</ele>
        <time>2011-05-15T12:06:38Z</time>
      </trkpt>
      <trkpt lat="45.50014" lon="5.86305">
        <ele>1202.27</ele>
        <time>2011-05-15T12:06:42Z</time>
      </trkpt>
      <trkpt lat="45.50006" lon="5.86318">
        <ele>1200.82</ele>
        <time>2011-05-15T12:06:44Z</time>
      </trkpt>
      <trkpt lat="45.49993" lon="5.86348">
        <ele>1197.94</ele>
        <time>2011-05-15T12:06:48Z</time>
      </trkpt>
      <trkpt lat="45.49988" lon="5.86364">
        <ele>1196.5</ele>
        <time>2011-05-15T12:06:50Z</time>
      </trkpt>
      <trkpt lat="45.4998" lon="5.86386">
        <ele>1194.58</ele>
        <time>2011-05-15T12:06:53Z</time>
      </trkpt>
      <trkpt lat="45.49976" lon="5.86403">
        <ele>1192.65</ele>
        <time>2011-05-15T12:06:55Z</time>
      </trkpt>
      <trkpt lat="45.49968" lon="5.86431">
        <ele>1190.73</ele>
        <time>2011-05-15T12:06:58Z</time>
      </trkpt>
      <trkpt lat="45.49962" lon="5.86459">
        <ele>1189.29</ele>
        <time>2011-05-15T12:07:01Z</time>
      </trkpt>
      <trkpt lat="45.4996" lon="5.86469">
        <ele>1188.81</ele>
        <time>2011-05-15T12:07:02Z</time>
      </trkpt>
      <trkpt lat="45.49958" lon="5.8648">
        <ele>1187.85</ele>
        <time>2011-05-15T12:07:03Z</time>
      </trkpt>
      <trkpt lat="45.49955" lon="5.86489">
        <ele>1187.85</ele>
        <time>2011-05-15T12:07:04Z</time>
      </trkpt>
      <trkpt lat="45.49935" lon="5.86534">
        <ele>1184.48</ele>
        <time>2011-05-15T12:07:09Z</time>
      </trkpt>
      <trkpt lat="45.49913" lon="5.86589">
        <ele>1182.08</ele>
        <time>2011-05-15T12:07:15Z</time>
      </trkpt>
      <trkpt lat="45.49901" lon="5.86635">
        <ele>1180.16</ele>
        <time>2011-05-15T12:07:20Z</time>
      </trkpt>
      <trkpt lat="45.49899" lon="5.86645">
        <ele>1180.64</ele>
        <time>2011-05-15T12:07:21Z</time>
      </trkpt>
      <trkpt lat="45.49883" lon="5.86692">
        <ele>1177.75</ele>
        <time>2011-05-15T12:07:26Z</time>
      </trkpt>
      <trkpt lat="45.49875" lon="5.86708">
        <ele>1177.75</ele>
        <time>2011-05-15T12:07:28Z</time>
      </trkpt>
      <trkpt lat="45.4986" lon="5.86731">
        <ele>1176.31</ele>
        <time>2011-05-15T12:07:32Z</time>
      </trkpt>
      <trkpt lat="45.49858" lon="5.86735">
        <ele>1175.83</ele>
        <time>2011-05-15T12:07:33Z</time>
      </trkpt>
      <trkpt lat="45.49854" lon="5.86739">
        <ele>1175.35</ele>
        <time>2011-05-15T12:07:34Z</time>
      </trkpt>
      <trkpt lat="45.4985" lon="5.8674">
        <ele>1175.35</ele>
        <time>2011-05-15T12:07:35Z</time>
      </trkpt>
      <trkpt lat="45.49846" lon="5.8674">
        <ele>1175.35</ele>
        <time>2011-05-15T12:07:36Z</time>
      </trkpt>
      <trkpt lat="45.49841" lon="5.8674">
        <ele>1175.35</ele>
        <time>2011-05-15T12:07:37Z</time>
      </trkpt>
      <trkpt lat="45.49837" lon="5.86739">
        <ele>1174.87</ele>
        <time>2011-05-15T12:07:38Z</time>
      </trkpt>
      <trkpt lat="45.49832" lon="5.86738">
        <ele>1174.87</ele>
        <time>2011-05-15T12:07:39Z</time>
      </trkpt>
      <trkpt lat="45.49788" lon="5.86735">
        <ele>1174.87</ele>
        <time>2011-05-15T12:07:53Z</time>
      </trkpt>
      <trkpt lat="45.49787" lon="5.86735">
        <ele>1174.87</ele>
        <time>2011-05-15T12:07:54Z</time>
      </trkpt>
      <trkpt lat="45.49785" lon="5.86736">
        <ele>1175.35</ele>
        <time>2011-05-15T12:07:56Z</time>
      </trkpt>
      <trkpt lat="45.49783" lon="5.86736">
        <ele>1175.35</ele>
        <time>2011-05-15T12:07:57Z</time>
      </trkpt>
      <trkpt lat="45.49782" lon="5.86736">
        <ele>1175.35</ele>
        <time>2011-05-15T12:07:58Z</time>
      </trkpt>
      <trkpt lat="45.4978" lon="5.86736">
        <ele>1175.35</ele>
        <time>2011-05-15T12:07:59Z</time>
      </trkpt>
      <trkpt lat="45.49778" lon="5.86736">
        <ele>1174.87</ele>
        <time>2011-05-15T12:08:00Z</time>
      </trkpt>
      <trkpt lat="45.49776" lon="5.86736">
        <ele>1174.87</ele>
        <time>2011-05-15T12:08:01Z</time>
      </trkpt>
      <trkpt lat="45.49773" lon="5.86736">
        <ele>1175.35</ele>
        <time>2011-05-15T12:08:02Z</time>
      </trkpt>
      <trkpt lat="45.49771" lon="5.86736">
        <ele>1175.35</ele>
        <time>2011-05-15T12:08:03Z</time>
      </trkpt>
      <trkpt lat="45.49748" lon="5.86735">
        <ele>1177.27</ele>
        <time>2011-05-15T12:08:16Z</time>
      </trkpt>
      <trkpt lat="45.49725" lon="5.86716">
        <ele>1179.67</ele>
        <time>2011-05-15T12:08:29Z</time>
      </trkpt>
      <trkpt lat="45.49707" lon="5.86689">
        <ele>1182.08</ele>
        <time>2011-05-15T12:08:43Z</time>
      </trkpt>
      <trkpt lat="45.49696" lon="5.86656">
        <ele>1184.48</ele>
        <time>2011-05-15T12:08:58Z</time>
      </trkpt>
      <trkpt lat="45.49698" lon="5.86628">
        <ele>1186.4</ele>
        <time>2011-05-15T12:09:11Z</time>
      </trkpt>
      <trkpt lat="45.49699" lon="5.86595">
        <ele>1188.81</ele>
        <time>2011-05-15T12:09:26Z</time>
      </trkpt>
      <trkpt lat="45.49698" lon="5.86567">
        <ele>1190.73</ele>
        <time>2011-05-15T12:09:38Z</time>
      </trkpt>
      <trkpt lat="45.49693" lon="5.86537">
        <ele>1193.13</ele>
        <time>2011-05-15T12:09:52Z</time>
      </trkpt>
      <trkpt lat="45.4969" lon="5.86508">
        <ele>1195.54</ele>
        <time>2011-05-15T12:10:04Z</time>
      </trkpt>
      <trkpt lat="45.49688" lon="5.86491">
        <ele>1197.46</ele>
        <time>2011-05-15T12:10:12Z</time>
      </trkpt>
      <trkpt lat="45.49688" lon="5.86489">
        <ele>1197.46</ele>
        <time>2011-05-15T12:10:13Z</time>
      </trkpt>
      <trkpt lat="45.49681" lon="5.86452">
        <ele>1200.34</ele>
        <time>2011-05-15T12:10:29Z</time>
      </trkpt>
      <trkpt lat="45.49676" lon="5.8642">
        <ele>1201.79</ele>
        <time>2011-05-15T12:10:42Z</time>
      </trkpt>
      <trkpt lat="45.4966" lon="5.86396">
        <ele>1203.71</ele>
        <time>2011-05-15T12:10:56Z</time>
      </trkpt>
      <trkpt lat="45.49638" lon="5.86378">
        <ele>1205.63</ele>
        <time>2011-05-15T12:11:11Z</time>
      </trkpt>
      <trkpt lat="45.49613" lon="5.86373">
        <ele>1207.55</ele>
        <time>2011-05-15T12:11:25Z</time>
      </trkpt>
      <trkpt lat="45.49587" lon="5.86373">
        <ele>1209.48</ele>
        <time>2011-05-15T12:11:40Z</time>
      </trkpt>
      <trkpt lat="45.49569" lon="5.86363">
        <ele>1210.44</ele>
        <time>2011-05-15T12:11:53Z</time>
      </trkpt>
      <trkpt lat="45.4955" lon="5.86344">
        <ele>1212.36</ele>
        <time>2011-05-15T12:12:07Z</time>
      </trkpt>
      <trkpt lat="45.4953" lon="5.8631">
        <ele>1214.28</ele>
        <time>2011-05-15T12:12:22Z</time>
      </trkpt>
      <trkpt lat="45.49514" lon="5.86271">
        <ele>1216.21</ele>
        <time>2011-05-15T12:12:36Z</time>
      </trkpt>
      <trkpt lat="45.49507" lon="5.86237">
        <ele>1217.17</ele>
        <time>2011-05-15T12:12:49Z</time>
      </trkpt>
      <trkpt lat="45.49493" lon="5.86205">
        <ele>1218.61</ele>
        <time>2011-05-15T12:13:01Z</time>
      </trkpt>
      <trkpt lat="45.49472" lon="5.86169">
        <ele>1220.05</ele>
        <time>2011-05-15T12:13:17Z</time>
      </trkpt>
      <trkpt lat="45.49468" lon="5.86125">
        <ele>1221.49</ele>
        <time>2011-05-15T12:13:31Z</time>
      </trkpt>
      <trkpt lat="45.4947" lon="5.86066">
        <ele>1222.93</ele>
        <time>2011-05-15T12:13:47Z</time>
      </trkpt>
      <trkpt lat="45.49481" lon="5.8602">
        <ele>1225.34</ele>
        <time>2011-05-15T12:14:01Z</time>
      </trkpt>
      <trkpt lat="45.49497" lon="5.85986">
        <ele>1226.78</ele>
        <time>2011-05-15T12:14:15Z</time>
      </trkpt>
      <trkpt lat="45.49513" lon="5.8596">
        <ele>1228.7</ele>
        <time>2011-05-15T12:14:27Z</time>
      </trkpt>
      <trkpt lat="45.4953" lon="5.85939">
        <ele>1230.62</ele>
        <time>2011-05-15T12:14:39Z</time>
      </trkpt>
      <trkpt lat="45.49546" lon="5.85906">
        <ele>1233.03</ele>
        <time>2011-05-15T12:14:54Z</time>
      </trkpt>
      <trkpt lat="45.49538" lon="5.85868">
        <ele>1234.47</ele>
        <time>2011-05-15T12:15:07Z</time>
      </trkpt>
      <trkpt lat="45.49521" lon="5.85821">
        <ele>1235.91</ele>
        <time>2011-05-15T12:15:23Z</time>
      </trkpt>
      <trkpt lat="45.49502" lon="5.85787">
        <ele>1237.35</ele>
        <time>2011-05-15T12:15:36Z</time>
      </trkpt>
      <trkpt lat="45.49491" lon="5.85763">
        <ele>1237.83</ele>
        <time>2011-05-15T12:15:45Z</time>
      </trkpt>
      <trkpt lat="45.49479" lon="5.85733">
        <ele>1238.8</ele>
        <time>2011-05-15T12:15:59Z</time>
      </trkpt>
      <trkpt lat="45.49471" lon="5.85719">
        <ele>1238.8</ele>
        <time>2011-05-15T12:16:17Z</time>
      </trkpt>
      <trkpt lat="45.4945" lon="5.85669">
        <ele>1240.24</ele>
        <time>2011-05-15T12:16:32Z</time>
      </trkpt>
      <trkpt lat="45.49415" lon="5.85616">
        <ele>1241.68</ele>
        <time>2011-05-15T12:16:48Z</time>
      </trkpt>
      <trkpt lat="45.49374" lon="5.85578">
        <ele>1243.12</ele>
        <time>2011-05-15T12:17:01Z</time>
      </trkpt>
      <trkpt lat="45.49336" lon="5.85538">
        <ele>1242.64</ele>
        <time>2011-05-15T12:17:14Z</time>
      </trkpt>
      <trkpt lat="45.49301" lon="5.85513">
        <ele>1242.64</ele>
        <time>2011-05-15T12:17:25Z</time>
      </trkpt>
      <trkpt lat="45.49265" lon="5.85486">
        <ele>1243.12</ele>
        <time>2011-05-15T12:17:38Z</time>
      </trkpt>
      <trkpt lat="45.49214" lon="5.85458">
        <ele>1244.08</ele>
        <time>2011-05-15T12:17:54Z</time>
      </trkpt>
      <trkpt lat="45.49176" lon="5.85447">
        <ele>1245.53</ele>
        <time>2011-05-15T12:18:06Z</time>
      </trkpt>
      <trkpt lat="45.49132" lon="5.85427">
        <ele>1247.45</ele>
        <time>2011-05-15T12:18:22Z</time>
      </trkpt>
      <trkpt lat="45.49094" lon="5.85403">
        <ele>1249.85</ele>
        <time>2011-05-15T12:18:37Z</time>
      </trkpt>
      <trkpt lat="45.49051" lon="5.85378">
        <ele>1251.29</ele>
        <time>2011-05-15T12:18:53Z</time>
      </trkpt>
      <trkpt lat="45.49007" lon="5.85359">
        <ele>1252.74</ele>
        <time>2011-05-15T12:19:08Z</time>
      </trkpt>
      <trkpt lat="45.48961" lon="5.85349">
        <ele>1254.66</ele>
        <time>2011-05-15T12:19:24Z</time>
      </trkpt>
      <trkpt lat="45.48928" lon="5.85326">
        <ele>1256.58</ele>
        <time>2011-05-15T12:19:37Z</time>
      </trkpt>
      <trkpt lat="45.48888" lon="5.85302">
        <ele>1257.54</ele>
        <time>2011-05-15T12:19:51Z</time>
      </trkpt>
      <trkpt lat="45.48842" lon="5.85284">
        <ele>1258.5</ele>
        <time>2011-05-15T12:20:05Z</time>
      </trkpt>
      <trkpt lat="45.48785" lon="5.85272">
        <ele>1259.46</ele>
        <time>2011-05-15T12:20:21Z</time>
      </trkpt>
      <trkpt lat="45.48736" lon="5.85253">
        <ele>1260.43</ele>
        <time>2011-05-15T12:20:36Z</time>
      </trkpt>
      <trkpt lat="45.48683" lon="5.85233">
        <ele>1261.87</ele>
        <time>2011-05-15T12:20:52Z</time>
      </trkpt>
      <trkpt lat="45.48632" lon="5.85215">
        <ele>1263.79</ele>
        <time>2011-05-15T12:21:07Z</time>
      </trkpt>
      <trkpt lat="45.48578" lon="5.85188">
        <ele>1263.79</ele>
        <time>2011-05-15T12:21:22Z</time>
      </trkpt>
      <trkpt lat="45.48524" lon="5.85162">
        <ele>1263.79</ele>
        <time>2011-05-15T12:21:35Z</time>
      </trkpt>
      <trkpt lat="45.48517" lon="5.85156">
        <ele>1263.79</ele>
        <time>2011-05-15T12:21:37Z</time>
      </trkpt>
      <trkpt lat="45.48497" lon="5.85141">
        <ele>1263.31</ele>
        <time>2011-05-15T12:21:42Z</time>
      </trkpt>
      <trkpt lat="45.48492" lon="5.85141">
        <ele>1263.31</ele>
        <time>2011-05-15T12:21:43Z</time>
      </trkpt>
      <trkpt lat="45.48488" lon="5.85141">
        <ele>1263.31</ele>
        <time>2011-05-15T12:21:44Z</time>
      </trkpt>
      <trkpt lat="45.48462" lon="5.85149">
        <ele>1263.79</ele>
        <time>2011-05-15T12:21:51Z</time>
      </trkpt>
      <trkpt lat="45.48457" lon="5.8515">
        <ele>1264.27</ele>
        <time>2011-05-15T12:21:52Z</time>
      </trkpt>
      <trkpt lat="45.48441" lon="5.85149">
        <ele>1263.79</ele>
        <time>2011-05-15T12:21:56Z</time>
      </trkpt>
      <trkpt lat="45.48405" lon="5.85135">
        <ele>1263.31</ele>
        <time>2011-05-15T12:22:04Z</time>
      </trkpt>
      <trkpt lat="45.4833" lon="5.85119">
        <ele>1264.27</ele>
        <time>2011-05-15T12:22:22Z</time>
      </trkpt>
      <trkpt lat="45.48326" lon="5.85115">
        <ele>1264.27</ele>
        <time>2011-05-15T12:22:23Z</time>
      </trkpt>
      <trkpt lat="45.48322" lon="5.85112">
        <ele>1263.79</ele>
        <time>2011-05-15T12:22:24Z</time>
      </trkpt>
      <trkpt lat="45.48275" lon="5.85086">
        <ele>1265.23</ele>
        <time>2011-05-15T12:22:37Z</time>
      </trkpt>
      <trkpt lat="45.48257" lon="5.85054">
        <ele>1267.64</ele>
        <time>2011-05-15T12:22:50Z</time>
      </trkpt>
      <trkpt lat="45.4823" lon="5.85035">
        <ele>1270.52</ele>
        <time>2011-05-15T12:23:05Z</time>
      </trkpt>
      <trkpt lat="45.48199" lon="5.85036">
        <ele>1271.96</ele>
        <time>2011-05-15T12:23:20Z</time>
      </trkpt>
      <trkpt lat="45.48175" lon="5.85016">
        <ele>1273.4</ele>
        <time>2011-05-15T12:23:33Z</time>
      </trkpt>
      <trkpt lat="45.48152" lon="5.84989">
        <ele>1275.81</ele>
        <time>2011-05-15T12:23:47Z</time>
      </trkpt>
      <trkpt lat="45.48126" lon="5.84981">
        <ele>1277.25</ele>
        <time>2011-05-15T12:24:01Z</time>
      </trkpt>
      <trkpt lat="45.48102" lon="5.8497">
        <ele>1279.17</ele>
        <time>2011-05-15T12:24:15Z</time>
      </trkpt>
      <trkpt lat="45.48084" lon="5.84956">
        <ele>1281.57</ele>
        <time>2011-05-15T12:24:28Z</time>
      </trkpt>
      <trkpt lat="45.48082" lon="5.84955">
        <ele>1280.61</ele>
        <time>2011-05-15T12:24:44Z</time>
      </trkpt>
      <trkpt lat="45.48082" lon="5.84955">
        <ele>1280.13</ele>
        <time>2011-05-15T12:25:15Z</time>
      </trkpt>
      <trkpt lat="45.48081" lon="5.84955">
        <ele>1280.13</ele>
        <time>2011-05-15T12:25:50Z</time>
      </trkpt>
      <trkpt lat="45.48081" lon="5.84956">
        <ele>1280.13</ele>
        <time>2011-05-15T12:26:23Z</time>
      </trkpt>
      <trkpt lat="45.48081" lon="5.84956">
        <ele>1279.65</ele>
        <time>2011-05-15T12:26:55Z</time>
      </trkpt>
      <trkpt lat="45.48081" lon="5.84957">
        <ele>1279.17</ele>
        <time>2011-05-15T12:27:28Z</time>
      </trkpt>
      <trkpt lat="45.48081" lon="5.84957">
        <ele>1279.17</ele>
        <time>2011-05-15T12:28:02Z</time>
      </trkpt>
      <trkpt lat="45.48082" lon="5.84957">
        <ele>1279.17</ele>
        <time>2011-05-15T12:28:39Z</time>
      </trkpt>
      <trkpt lat="45.48082" lon="5.84957">
        <ele>1279.65</ele>
        <time>2011-05-15T12:29:09Z</time>
      </trkpt>
      <trkpt lat="45.48082" lon="5.84957">
        <ele>1279.17</ele>
        <time>2011-05-15T12:29:37Z</time>
      </trkpt>
      <trkpt lat="45.48078" lon="5.84957">
        <ele>1279.65</ele>
        <time>2011-05-15T12:29:48Z</time>
      </trkpt>
      <trkpt lat="45.48076" lon="5.84956">
        <ele>1279.65</ele>
        <time>2011-05-15T12:29:49Z</time>
      </trkpt>
      <trkpt lat="45.48074" lon="5.84954">
        <ele>1280.13</ele>
        <time>2011-05-15T12:29:50Z</time>
      </trkpt>
      <trkpt lat="45.48073" lon="5.84952">
        <ele>1280.13</ele>
        <time>2011-05-15T12:29:51Z</time>
      </trkpt>
      <trkpt lat="45.48071" lon="5.84951">
        <ele>1280.13</ele>
        <time>2011-05-15T12:29:52Z</time>
      </trkpt>
      <trkpt lat="45.48046" lon="5.84947">
        <ele>1282.54</ele>
        <time>2011-05-15T12:30:06Z</time>
      </trkpt>
      <trkpt lat="45.48023" lon="5.84947">
        <ele>1284.46</ele>
        <time>2011-05-15T12:30:20Z</time>
      </trkpt>
      <trkpt lat="45.47992" lon="5.8495">
        <ele>1286.86</ele>
        <time>2011-05-15T12:30:36Z</time>
      </trkpt>
      <trkpt lat="45.47959" lon="5.8495">
        <ele>1288.78</ele>
        <time>2011-05-15T12:30:52Z</time>
      </trkpt>
      <trkpt lat="45.47929" lon="5.84937">
        <ele>1290.71</ele>
        <time>2011-05-15T12:31:07Z</time>
      </trkpt>
      <trkpt lat="45.47902" lon="5.84918">
        <ele>1292.63</ele>
        <time>2011-05-15T12:31:22Z</time>
      </trkpt>
      <trkpt lat="45.47871" lon="5.84896">
        <ele>1294.55</ele>
        <time>2011-05-15T12:31:39Z</time>
      </trkpt>
      <trkpt lat="45.47834" lon="5.84892">
        <ele>1296.96</ele>
        <time>2011-05-15T12:31:56Z</time>
      </trkpt>
      <trkpt lat="45.47807" lon="5.84882">
        <ele>1298.4</ele>
        <time>2011-05-15T12:32:10Z</time>
      </trkpt>
      <trkpt lat="45.47783" lon="5.84868">
        <ele>1301.28</ele>
        <time>2011-05-15T12:32:26Z</time>
      </trkpt>
      <trkpt lat="45.47759" lon="5.84864">
        <ele>1304.17</ele>
        <time>2011-05-15T12:32:41Z</time>
      </trkpt>
      <trkpt lat="45.47739" lon="5.84877">
        <ele>1307.05</ele>
        <time>2011-05-15T12:32:56Z</time>
      </trkpt>
      <trkpt lat="45.47719" lon="5.84888">
        <ele>1309.93</ele>
        <time>2011-05-15T12:33:12Z</time>
      </trkpt>
      <trkpt lat="45.47699" lon="5.84885">
        <ele>1313.3</ele>
        <time>2011-05-15T12:33:28Z</time>
      </trkpt>
      <trkpt lat="45.47681" lon="5.84884">
        <ele>1315.7</ele>
        <time>2011-05-15T12:33:44Z</time>
      </trkpt>
      <trkpt lat="45.4767" lon="5.84883">
        <ele>1316.18</ele>
        <time>2011-05-15T12:33:53Z</time>
      </trkpt>
      <trkpt lat="45.4767" lon="5.84882">
        <ele>1316.66</ele>
        <time>2011-05-15T12:33:54Z</time>
      </trkpt>
      <trkpt lat="45.47669" lon="5.84881">
        <ele>1317.14</ele>
        <time>2011-05-15T12:33:55Z</time>
      </trkpt>
      <trkpt lat="45.47668" lon="5.84881">
        <ele>1316.66</ele>
        <time>2011-05-15T12:33:56Z</time>
      </trkpt>
      <trkpt lat="45.47667" lon="5.8488">
        <ele>1317.14</ele>
        <time>2011-05-15T12:33:57Z</time>
      </trkpt>
      <trkpt lat="45.47666" lon="5.84879">
        <ele>1317.14</ele>
        <time>2011-05-15T12:33:58Z</time>
      </trkpt>
      <trkpt lat="45.47665" lon="5.84879">
        <ele>1317.14</ele>
        <time>2011-05-15T12:33:59Z</time>
      </trkpt>
      <trkpt lat="45.47664" lon="5.84878">
        <ele>1317.62</ele>
        <time>2011-05-15T12:34:00Z</time>
      </trkpt>
      <trkpt lat="45.47662" lon="5.84878">
        <ele>1317.62</ele>
        <time>2011-05-15T12:34:01Z</time>
      </trkpt>
      <trkpt lat="45.47661" lon="5.84877">
        <ele>1318.1</ele>
        <time>2011-05-15T12:34:02Z</time>
      </trkpt>
      <trkpt lat="45.47647" lon="5.84866">
        <ele>1320.03</ele>
        <time>2011-05-15T12:34:16Z</time>
      </trkpt>
      <trkpt lat="45.47641" lon="5.84858">
        <ele>1320.99</ele>
        <time>2011-05-15T12:34:24Z</time>
      </trkpt>
      <trkpt lat="45.4764" lon="5.84857">
        <ele>1321.47</ele>
        <time>2011-05-15T12:34:25Z</time>
      </trkpt>
      <trkpt lat="45.47639" lon="5.84856">
        <ele>1321.95</ele>
        <time>2011-05-15T12:34:26Z</time>
      </trkpt>
      <trkpt lat="45.47638" lon="5.84855">
        <ele>1322.43</ele>
        <time>2011-05-15T12:34:27Z</time>
      </trkpt>
      <trkpt lat="45.47623" lon="5.84841">
        <ele>1324.35</ele>
        <time>2011-05-15T12:34:43Z</time>
      </trkpt>
      <trkpt lat="45.47609" lon="5.8483">
        <ele>1326.76</ele>
        <time>2011-05-15T12:34:59Z</time>
      </trkpt>
      <trkpt lat="45.47608" lon="5.84828">
        <ele>1327.24</ele>
        <time>2011-05-15T12:35:00Z</time>
      </trkpt>
      <trkpt lat="45.47603" lon="5.84818">
        <ele>1328.68</ele>
        <time>2011-05-15T12:35:08Z</time>
      </trkpt>
      <trkpt lat="45.47601" lon="5.84817">
        <ele>1328.68</ele>
        <time>2011-05-15T12:35:10Z</time>
      </trkpt>
      <trkpt lat="45.476" lon="5.84816">
        <ele>1329.16</ele>
        <time>2011-05-15T12:35:11Z</time>
      </trkpt>
      <trkpt lat="45.47599" lon="5.84815">
        <ele>1329.16</ele>
        <time>2011-05-15T12:35:12Z</time>
      </trkpt>
      <trkpt lat="45.47585" lon="5.84794">
        <ele>1332.04</ele>
        <time>2011-05-15T12:35:31Z</time>
      </trkpt>
      <trkpt lat="45.47575" lon="5.84785">
        <ele>1333.01</ele>
        <time>2011-05-15T12:35:44Z</time>
      </trkpt>
      <trkpt lat="45.47574" lon="5.84784">
        <ele>1333.49</ele>
        <time>2011-05-15T12:35:45Z</time>
      </trkpt>
      <trkpt lat="45.47572" lon="5.84783">
        <ele>1333.49</ele>
        <time>2011-05-15T12:35:46Z</time>
      </trkpt>
      <trkpt lat="45.47554" lon="5.84786">
        <ele>1336.37</ele>
        <time>2011-05-15T12:36:02Z</time>
      </trkpt>
      <trkpt lat="45.47537" lon="5.84791">
        <ele>1338.29</ele>
        <time>2011-05-15T12:36:18Z</time>
      </trkpt>
      <trkpt lat="45.47533" lon="5.84791">
        <ele>1338.29</ele>
        <time>2011-05-15T12:36:22Z</time>
      </trkpt>
      <trkpt lat="45.47517" lon="5.8478">
        <ele>1341.18</ele>
        <time>2011-05-15T12:36:39Z</time>
      </trkpt>
      <trkpt lat="45.47503" lon="5.84768">
        <ele>1343.58</ele>
        <time>2011-05-15T12:36:54Z</time>
      </trkpt>
      <trkpt lat="45.47488" lon="5.84757">
        <ele>1344.54</ele>
        <time>2011-05-15T12:37:10Z</time>
      </trkpt>
      <trkpt lat="45.47471" lon="5.84741">
        <ele>1346.46</ele>
        <time>2011-05-15T12:37:28Z</time>
      </trkpt>
      <trkpt lat="45.47466" lon="5.84735">
        <ele>1346.94</ele>
        <time>2011-05-15T12:37:33Z</time>
      </trkpt>
      <trkpt lat="45.47465" lon="5.84733">
        <ele>1346.94</ele>
        <time>2011-05-15T12:37:34Z</time>
      </trkpt>
      <trkpt lat="45.47465" lon="5.84731">
        <ele>1346.94</ele>
        <time>2011-05-15T12:37:35Z</time>
      </trkpt>
      <trkpt lat="45.47461" lon="5.84722">
        <ele>1347.43</ele>
        <time>2011-05-15T12:37:41Z</time>
      </trkpt>
      <trkpt lat="45.4746" lon="5.84722">
        <ele>1347.91</ele>
        <time>2011-05-15T12:37:42Z</time>
      </trkpt>
      <trkpt lat="45.47458" lon="5.8472">
        <ele>1347.91</ele>
        <time>2011-05-15T12:37:43Z</time>
      </trkpt>
      <trkpt lat="45.47457" lon="5.84719">
        <ele>1348.39</ele>
        <time>2011-05-15T12:37:44Z</time>
      </trkpt>
      <trkpt lat="45.47457" lon="5.84718">
        <ele>1347.91</ele>
        <time>2011-05-15T12:37:45Z</time>
      </trkpt>
      <trkpt lat="45.47456" lon="5.84717">
        <ele>1348.39</ele>
        <time>2011-05-15T12:37:46Z</time>
      </trkpt>
      <trkpt lat="45.47456" lon="5.84715">
        <ele>1348.39</ele>
        <time>2011-05-15T12:37:47Z</time>
      </trkpt>
      <trkpt lat="45.47455" lon="5.84714">
        <ele>1348.39</ele>
        <time>2011-05-15T12:37:48Z</time>
      </trkpt>
      <trkpt lat="45.47454" lon="5.84713">
        <ele>1348.39</ele>
        <time>2011-05-15T12:37:49Z</time>
      </trkpt>
      <trkpt lat="45.47453" lon="5.84712">
        <ele>1348.87</ele>
        <time>2011-05-15T12:37:50Z</time>
      </trkpt>
      <trkpt lat="45.47452" lon="5.84711">
        <ele>1349.35</ele>
        <time>2011-05-15T12:37:51Z</time>
      </trkpt>
      <trkpt lat="45.47451" lon="5.84711">
        <ele>1348.87</ele>
        <time>2011-05-15T12:37:52Z</time>
      </trkpt>
      <trkpt lat="45.4745" lon="5.84708">
        <ele>1349.35</ele>
        <time>2011-05-15T12:37:54Z</time>
      </trkpt>
      <trkpt lat="45.47449" lon="5.84706">
        <ele>1349.35</ele>
        <time>2011-05-15T12:37:55Z</time>
      </trkpt>
      <trkpt lat="45.47449" lon="5.84704">
        <ele>1349.83</ele>
        <time>2011-05-15T12:37:56Z</time>
      </trkpt>
      <trkpt lat="45.47448" lon="5.84703">
        <ele>1349.35</ele>
        <time>2011-05-15T12:37:57Z</time>
      </trkpt>
      <trkpt lat="45.47448" lon="5.84702">
        <ele>1349.83</ele>
        <time>2011-05-15T12:37:58Z</time>
      </trkpt>
      <trkpt lat="45.47447" lon="5.84701">
        <ele>1350.31</ele>
        <time>2011-05-15T12:37:59Z</time>
      </trkpt>
      <trkpt lat="45.47446" lon="5.847">
        <ele>1350.31</ele>
        <time>2011-05-15T12:38:00Z</time>
      </trkpt>
      <trkpt lat="45.47445" lon="5.84699">
        <ele>1349.83</ele>
        <time>2011-05-15T12:38:01Z</time>
      </trkpt>
      <trkpt lat="45.47445" lon="5.84698">
        <ele>1350.31</ele>
        <time>2011-05-15T12:38:02Z</time>
      </trkpt>
      <trkpt lat="45.4743" lon="5.84688">
        <ele>1352.71</ele>
        <time>2011-05-15T12:38:17Z</time>
      </trkpt>
      <trkpt lat="45.47415" lon="5.84683">
        <ele>1355.6</ele>
        <time>2011-05-15T12:38:33Z</time>
      </trkpt>
      <trkpt lat="45.47413" lon="5.84679">
        <ele>1356.08</ele>
        <time>2011-05-15T12:38:36Z</time>
      </trkpt>
      <trkpt lat="45.4741" lon="5.84675">
        <ele>1357.52</ele>
        <time>2011-05-15T12:38:43Z</time>
      </trkpt>
      <trkpt lat="45.47408" lon="5.84674">
        <ele>1357.52</ele>
        <time>2011-05-15T12:38:45Z</time>
      </trkpt>
      <trkpt lat="45.47406" lon="5.84673">
        <ele>1357.52</ele>
        <time>2011-05-15T12:38:46Z</time>
      </trkpt>
      <trkpt lat="45.47406" lon="5.84673">
        <ele>1358</ele>
        <time>2011-05-15T12:38:47Z</time>
      </trkpt>
      <trkpt lat="45.47404" lon="5.84672">
        <ele>1358.96</ele>
        <time>2011-05-15T12:38:49Z</time>
      </trkpt>
      <trkpt lat="45.47389" lon="5.84665">
        <ele>1361.36</ele>
        <time>2011-05-15T12:39:05Z</time>
      </trkpt>
      <trkpt lat="45.47374" lon="5.84658">
        <ele>1363.29</ele>
        <time>2011-05-15T12:39:24Z</time>
      </trkpt>
      <trkpt lat="45.47358" lon="5.84651">
        <ele>1365.21</ele>
        <time>2011-05-15T12:39:40Z</time>
      </trkpt>
      <trkpt lat="45.47348" lon="5.8464">
        <ele>1368.57</ele>
        <time>2011-05-15T12:39:55Z</time>
      </trkpt>
      <trkpt lat="45.47337" lon="5.84628">
        <ele>1370.98</ele>
        <time>2011-05-15T12:40:10Z</time>
      </trkpt>
      <trkpt lat="45.47327" lon="5.84617">
        <ele>1372.9</ele>
        <time>2011-05-15T12:40:25Z</time>
      </trkpt>
      <trkpt lat="45.47317" lon="5.84607">
        <ele>1375.3</ele>
        <time>2011-05-15T12:40:40Z</time>
      </trkpt>
      <trkpt lat="45.47306" lon="5.84595">
        <ele>1377.23</ele>
        <time>2011-05-15T12:40:55Z</time>
      </trkpt>
      <trkpt lat="45.47297" lon="5.84585">
        <ele>1379.63</ele>
        <time>2011-05-15T12:41:10Z</time>
      </trkpt>
      <trkpt lat="45.47294" lon="5.84579">
        <ele>1380.11</ele>
        <time>2011-05-15T12:41:17Z</time>
      </trkpt>
      <trkpt lat="45.47289" lon="5.84567">
        <ele>1381.55</ele>
        <time>2011-05-15T12:41:30Z</time>
      </trkpt>
      <trkpt lat="45.47288" lon="5.84565">
        <ele>1382.51</ele>
        <time>2011-05-15T12:41:32Z</time>
      </trkpt>
      <trkpt lat="45.47288" lon="5.84563">
        <ele>1382.51</ele>
        <time>2011-05-15T12:41:33Z</time>
      </trkpt>
      <trkpt lat="45.47286" lon="5.84544">
        <ele>1384.92</ele>
        <time>2011-05-15T12:41:50Z</time>
      </trkpt>
      <trkpt lat="45.47284" lon="5.84537">
        <ele>1385.4</ele>
        <time>2011-05-15T12:41:55Z</time>
      </trkpt>
      <trkpt lat="45.47274" lon="5.84516">
        <ele>1387.8</ele>
        <time>2011-05-15T12:42:12Z</time>
      </trkpt>
      <trkpt lat="45.4726" lon="5.84493">
        <ele>1389.72</ele>
        <time>2011-05-15T12:42:31Z</time>
      </trkpt>
      <trkpt lat="45.47247" lon="5.84485">
        <ele>1392.61</ele>
        <time>2011-05-15T12:42:46Z</time>
      </trkpt>
      <trkpt lat="45.47234" lon="5.84477">
        <ele>1394.53</ele>
        <time>2011-05-15T12:42:59Z</time>
      </trkpt>
      <trkpt lat="45.47232" lon="5.84477">
        <ele>1394.53</ele>
        <time>2011-05-15T12:43:02Z</time>
      </trkpt>
      <trkpt lat="45.4723" lon="5.84476">
        <ele>1395.01</ele>
        <time>2011-05-15T12:43:03Z</time>
      </trkpt>
      <trkpt lat="45.47214" lon="5.84474">
        <ele>1396.93</ele>
        <time>2011-05-15T12:43:20Z</time>
      </trkpt>
      <trkpt lat="45.47199" lon="5.84468">
        <ele>1399.82</ele>
        <time>2011-05-15T12:43:36Z</time>
      </trkpt>
      <trkpt lat="45.47184" lon="5.84456">
        <ele>1400.3</ele>
        <time>2011-05-15T12:43:52Z</time>
      </trkpt>
      <trkpt lat="45.47179" lon="5.84442">
        <ele>1402.22</ele>
        <time>2011-05-15T12:44:04Z</time>
      </trkpt>
      <trkpt lat="45.47178" lon="5.84441">
        <ele>1402.22</ele>
        <time>2011-05-15T12:44:05Z</time>
      </trkpt>
      <trkpt lat="45.47166" lon="5.8443">
        <ele>1402.7</ele>
        <time>2011-05-15T12:44:21Z</time>
      </trkpt>
      <trkpt lat="45.47164" lon="5.84429">
        <ele>1403.66</ele>
        <time>2011-05-15T12:44:28Z</time>
      </trkpt>
      <trkpt lat="45.47163" lon="5.84429">
        <ele>1403.66</ele>
        <time>2011-05-15T12:44:29Z</time>
      </trkpt>
      <trkpt lat="45.47162" lon="5.84429">
        <ele>1403.66</ele>
        <time>2011-05-15T12:44:30Z</time>
      </trkpt>
      <trkpt lat="45.4716" lon="5.84429">
        <ele>1403.66</ele>
        <time>2011-05-15T12:44:31Z</time>
      </trkpt>
      <trkpt lat="45.47159" lon="5.84429">
        <ele>1403.18</ele>
        <time>2011-05-15T12:44:32Z</time>
      </trkpt>
      <trkpt lat="45.47158" lon="5.84428">
        <ele>1404.14</ele>
        <time>2011-05-15T12:44:33Z</time>
      </trkpt>
      <trkpt lat="45.47156" lon="5.84428">
        <ele>1404.14</ele>
        <time>2011-05-15T12:44:34Z</time>
      </trkpt>
      <trkpt lat="45.47155" lon="5.84429">
        <ele>1404.14</ele>
        <time>2011-05-15T12:44:35Z</time>
      </trkpt>
      <trkpt lat="45.47153" lon="5.84429">
        <ele>1404.14</ele>
        <time>2011-05-15T12:44:36Z</time>
      </trkpt>
      <trkpt lat="45.47152" lon="5.84429">
        <ele>1404.62</ele>
        <time>2011-05-15T12:44:37Z</time>
      </trkpt>
      <trkpt lat="45.4715" lon="5.84429">
        <ele>1405.1</ele>
        <time>2011-05-15T12:44:38Z</time>
      </trkpt>
      <trkpt lat="45.47128" lon="5.84436">
        <ele>1407.51</ele>
        <time>2011-05-15T12:44:56Z</time>
      </trkpt>
      <trkpt lat="45.47116" lon="5.84453">
        <ele>1407.99</ele>
        <time>2011-05-15T12:45:09Z</time>
      </trkpt>
      <trkpt lat="45.47115" lon="5.84454">
        <ele>1408.47</ele>
        <time>2011-05-15T12:45:10Z</time>
      </trkpt>
      <trkpt lat="45.47114" lon="5.84455">
        <ele>1408.47</ele>
        <time>2011-05-15T12:45:11Z</time>
      </trkpt>
      <trkpt lat="45.47113" lon="5.84456">
        <ele>1408.47</ele>
        <time>2011-05-15T12:45:12Z</time>
      </trkpt>
      <trkpt lat="45.47111" lon="5.84455">
        <ele>1408.95</ele>
        <time>2011-05-15T12:45:13Z</time>
      </trkpt>
      <trkpt lat="45.47092" lon="5.84462">
        <ele>1410.39</ele>
        <time>2011-05-15T12:45:28Z</time>
      </trkpt>
      <trkpt lat="45.47074" lon="5.84465">
        <ele>1412.31</ele>
        <time>2011-05-15T12:45:45Z</time>
      </trkpt>
      <trkpt lat="45.47057" lon="5.84466">
        <ele>1414.24</ele>
        <time>2011-05-15T12:46:00Z</time>
      </trkpt>
      <trkpt lat="45.47038" lon="5.8446">
        <ele>1416.64</ele>
        <time>2011-05-15T12:46:17Z</time>
      </trkpt>
      <trkpt lat="45.47031" lon="5.8446">
        <ele>1417.12</ele>
        <time>2011-05-15T12:46:23Z</time>
      </trkpt>
      <trkpt lat="45.4703" lon="5.8446">
        <ele>1417.12</ele>
        <time>2011-05-15T12:46:24Z</time>
      </trkpt>
      <trkpt lat="45.47029" lon="5.84459">
        <ele>1417.6</ele>
        <time>2011-05-15T12:46:25Z</time>
      </trkpt>
      <trkpt lat="45.47028" lon="5.84459">
        <ele>1417.6</ele>
        <time>2011-05-15T12:46:26Z</time>
      </trkpt>
      <trkpt lat="45.47026" lon="5.84458">
        <ele>1417.6</ele>
        <time>2011-05-15T12:46:27Z</time>
      </trkpt>
      <trkpt lat="45.47025" lon="5.84458">
        <ele>1417.6</ele>
        <time>2011-05-15T12:46:28Z</time>
      </trkpt>
      <trkpt lat="45.47021" lon="5.84456">
        <ele>1418.08</ele>
        <time>2011-05-15T12:46:31Z</time>
      </trkpt>
      <trkpt lat="45.4702" lon="5.84455">
        <ele>1418.08</ele>
        <time>2011-05-15T12:46:32Z</time>
      </trkpt>
      <trkpt lat="45.4702" lon="5.84454">
        <ele>1418.56</ele>
        <time>2011-05-15T12:46:33Z</time>
      </trkpt>
      <trkpt lat="45.47007" lon="5.84432">
        <ele>1420.49</ele>
        <time>2011-05-15T12:46:50Z</time>
      </trkpt>
      <trkpt lat="45.47002" lon="5.8441">
        <ele>1421.93</ele>
        <time>2011-05-15T12:47:04Z</time>
      </trkpt>
      <trkpt lat="45.46998" lon="5.84393">
        <ele>1421.93</ele>
        <time>2011-05-15T12:47:16Z</time>
      </trkpt>
      <trkpt lat="45.46997" lon="5.84392">
        <ele>1422.41</ele>
        <time>2011-05-15T12:47:17Z</time>
      </trkpt>
      <trkpt lat="45.46996" lon="5.84391">
        <ele>1422.41</ele>
        <time>2011-05-15T12:47:18Z</time>
      </trkpt>
      <trkpt lat="45.46995" lon="5.84389">
        <ele>1422.41</ele>
        <time>2011-05-15T12:47:19Z</time>
      </trkpt>
      <trkpt lat="45.46994" lon="5.84388">
        <ele>1422.89</ele>
        <time>2011-05-15T12:47:20Z</time>
      </trkpt>
      <trkpt lat="45.46993" lon="5.84387">
        <ele>1422.89</ele>
        <time>2011-05-15T12:47:21Z</time>
      </trkpt>
      <trkpt lat="45.46992" lon="5.84386">
        <ele>1423.37</ele>
        <time>2011-05-15T12:47:22Z</time>
      </trkpt>
      <trkpt lat="45.4699" lon="5.84385">
        <ele>1423.37</ele>
        <time>2011-05-15T12:47:23Z</time>
      </trkpt>
      <trkpt lat="45.46989" lon="5.84384">
        <ele>1422.89</ele>
        <time>2011-05-15T12:47:24Z</time>
      </trkpt>
      <trkpt lat="45.46988" lon="5.84383">
        <ele>1422.89</ele>
        <time>2011-05-15T12:47:25Z</time>
      </trkpt>
      <trkpt lat="45.46987" lon="5.84382">
        <ele>1422.89</ele>
        <time>2011-05-15T12:47:26Z</time>
      </trkpt>
      <trkpt lat="45.46986" lon="5.84381">
        <ele>1423.37</ele>
        <time>2011-05-15T12:47:27Z</time>
      </trkpt>
      <trkpt lat="45.46985" lon="5.84381">
        <ele>1423.37</ele>
        <time>2011-05-15T12:47:28Z</time>
      </trkpt>
      <trkpt lat="45.46982" lon="5.84382">
        <ele>1423.37</ele>
        <time>2011-05-15T12:47:31Z</time>
      </trkpt>
      <trkpt lat="45.46981" lon="5.84381">
        <ele>1422.89</ele>
        <time>2011-05-15T12:47:32Z</time>
      </trkpt>
      <trkpt lat="45.4698" lon="5.84379">
        <ele>1422.89</ele>
        <time>2011-05-15T12:47:33Z</time>
      </trkpt>
      <trkpt lat="45.46979" lon="5.84378">
        <ele>1423.37</ele>
        <time>2011-05-15T12:47:34Z</time>
      </trkpt>
      <trkpt lat="45.46978" lon="5.84377">
        <ele>1423.37</ele>
        <time>2011-05-15T12:47:35Z</time>
      </trkpt>
      <trkpt lat="45.46961" lon="5.84364">
        <ele>1424.81</ele>
        <time>2011-05-15T12:47:49Z</time>
      </trkpt>
      <trkpt lat="45.46935" lon="5.84341">
        <ele>1425.77</ele>
        <time>2011-05-15T12:48:04Z</time>
      </trkpt>
      <trkpt lat="45.46909" lon="5.84322">
        <ele>1427.7</ele>
        <time>2011-05-15T12:48:18Z</time>
      </trkpt>
      <trkpt lat="45.46869" lon="5.84307">
        <ele>1428.66</ele>
        <time>2011-05-15T12:48:37Z</time>
      </trkpt>
      <trkpt lat="45.46846" lon="5.84287">
        <ele>1430.58</ele>
        <time>2011-05-15T12:48:52Z</time>
      </trkpt>
      <trkpt lat="45.46818" lon="5.84265">
        <ele>1432.02</ele>
        <time>2011-05-15T12:49:10Z</time>
      </trkpt>
      <trkpt lat="45.46795" lon="5.84284">
        <ele>1432.02</ele>
        <time>2011-05-15T12:49:23Z</time>
      </trkpt>
      <trkpt lat="45.46763" lon="5.84286">
        <ele>1431.54</ele>
        <time>2011-05-15T12:49:37Z</time>
      </trkpt>
      <trkpt lat="45.46743" lon="5.84277">
        <ele>1432.5</ele>
        <time>2011-05-15T12:49:50Z</time>
      </trkpt>
      <trkpt lat="45.46742" lon="5.84276">
        <ele>1432.98</ele>
        <time>2011-05-15T12:49:51Z</time>
      </trkpt>
      <trkpt lat="45.46741" lon="5.84274">
        <ele>1432.98</ele>
        <time>2011-05-15T12:49:52Z</time>
      </trkpt>
      <trkpt lat="45.4674" lon="5.84272">
        <ele>1432.5</ele>
        <time>2011-05-15T12:49:53Z</time>
      </trkpt>
      <trkpt lat="45.46731" lon="5.84247">
        <ele>1433.94</ele>
        <time>2011-05-15T12:50:06Z</time>
      </trkpt>
      <trkpt lat="45.46703" lon="5.84228">
        <ele>1433.94</ele>
        <time>2011-05-15T12:50:22Z</time>
      </trkpt>
      <trkpt lat="45.46681" lon="5.84229">
        <ele>1433.94</ele>
        <time>2011-05-15T12:50:37Z</time>
      </trkpt>
      <trkpt lat="45.4666" lon="5.84217">
        <ele>1434.91</ele>
        <time>2011-05-15T12:50:50Z</time>
      </trkpt>
      <trkpt lat="45.4664" lon="5.84195">
        <ele>1434.42</ele>
        <time>2011-05-15T12:51:04Z</time>
      </trkpt>
      <trkpt lat="45.4665" lon="5.84155">
        <ele>1433.46</ele>
        <time>2011-05-15T12:51:17Z</time>
      </trkpt>
      <trkpt lat="45.46658" lon="5.84107">
        <ele>1432.5</ele>
        <time>2011-05-15T12:51:31Z</time>
      </trkpt>
      <trkpt lat="45.46658" lon="5.84105">
        <ele>1432.5</ele>
        <time>2011-05-15T12:51:35Z</time>
      </trkpt>
      <trkpt lat="45.46658" lon="5.84103">
        <ele>1432.98</ele>
        <time>2011-05-15T12:51:36Z</time>
      </trkpt>
      <trkpt lat="45.46658" lon="5.841">
        <ele>1432.5</ele>
        <time>2011-05-15T12:51:37Z</time>
      </trkpt>
      <trkpt lat="45.46659" lon="5.84094">
        <ele>1432.5</ele>
        <time>2011-05-15T12:51:43Z</time>
      </trkpt>
      <trkpt lat="45.4666" lon="5.8409">
        <ele>1433.46</ele>
        <time>2011-05-15T12:51:45Z</time>
      </trkpt>
      <trkpt lat="45.4666" lon="5.84088">
        <ele>1433.46</ele>
        <time>2011-05-15T12:51:46Z</time>
      </trkpt>
      <trkpt lat="45.46655" lon="5.84056">
        <ele>1433.94</ele>
        <time>2011-05-15T12:51:59Z</time>
      </trkpt>
      <trkpt lat="45.46621" lon="5.84017">
        <ele>1433.94</ele>
        <time>2011-05-15T12:52:12Z</time>
      </trkpt>
      <trkpt lat="45.46592" lon="5.83988">
        <ele>1432.98</ele>
        <time>2011-05-15T12:52:24Z</time>
      </trkpt>
      <trkpt lat="45.46562" lon="5.83973">
        <ele>1433.94</ele>
        <time>2011-05-15T12:52:37Z</time>
      </trkpt>
      <trkpt lat="45.46533" lon="5.83989">
        <ele>1434.91</ele>
        <time>2011-05-15T12:52:50Z</time>
      </trkpt>
      <trkpt lat="45.46514" lon="5.83977">
        <ele>1435.39</ele>
        <time>2011-05-15T12:53:02Z</time>
      </trkpt>
      <trkpt lat="45.465" lon="5.83937">
        <ele>1434.91</ele>
        <time>2011-05-15T12:53:15Z</time>
      </trkpt>
      <trkpt lat="45.46482" lon="5.83895">
        <ele>1434.91</ele>
        <time>2011-05-15T12:53:29Z</time>
      </trkpt>
      <trkpt lat="45.46466" lon="5.8386">
        <ele>1432.98</ele>
        <time>2011-05-15T12:53:38Z</time>
      </trkpt>
      <trkpt lat="45.46434" lon="5.83826">
        <ele>1433.46</ele>
        <time>2011-05-15T12:53:50Z</time>
      </trkpt>
      <trkpt lat="45.46403" lon="5.83824">
        <ele>1434.91</ele>
        <time>2011-05-15T12:54:03Z</time>
      </trkpt>
      <trkpt lat="45.46375" lon="5.83825">
        <ele>1435.87</ele>
        <time>2011-05-15T12:54:18Z</time>
      </trkpt>
      <trkpt lat="45.4635" lon="5.83845">
        <ele>1436.83</ele>
        <time>2011-05-15T12:54:34Z</time>
      </trkpt>
      <trkpt lat="45.4635" lon="5.83848">
        <ele>1436.35</ele>
        <time>2011-05-15T12:54:57Z</time>
      </trkpt>
      <trkpt lat="45.46351" lon="5.83847">
        <ele>1437.79</ele>
        <time>2011-05-15T12:55:15Z</time>
      </trkpt>
      <trkpt lat="45.46353" lon="5.83846">
        <ele>1437.31</ele>
        <time>2011-05-15T12:55:16Z</time>
      </trkpt>
      <trkpt lat="45.46368" lon="5.8384">
        <ele>1440.19</ele>
        <time>2011-05-15T12:55:30Z</time>
      </trkpt>
      <trkpt lat="45.46373" lon="5.8384">
        <ele>1442.11</ele>
        <time>2011-05-15T12:55:43Z</time>
      </trkpt>
      <trkpt lat="45.46377" lon="5.83841">
        <ele>1443.08</ele>
        <time>2011-05-15T12:55:48Z</time>
      </trkpt>
      <trkpt lat="45.46383" lon="5.8384">
        <ele>1445</ele>
        <time>2011-05-15T12:56:01Z</time>
      </trkpt>
      <trkpt lat="45.46395" lon="5.83846">
        <ele>1445.96</ele>
        <time>2011-05-15T12:56:13Z</time>
      </trkpt>
      <trkpt lat="45.46404" lon="5.83854">
        <ele>1449.32</ele>
        <time>2011-05-15T12:56:27Z</time>
      </trkpt>
      <trkpt lat="45.4641" lon="5.83864">
        <ele>1451.25</ele>
        <time>2011-05-15T12:56:42Z</time>
      </trkpt>
      <trkpt lat="45.4641" lon="5.83875">
        <ele>1453.65</ele>
        <time>2011-05-15T12:56:57Z</time>
      </trkpt>
      <trkpt lat="45.46413" lon="5.83881">
        <ele>1455.09</ele>
        <time>2011-05-15T12:57:11Z</time>
      </trkpt>
      <trkpt lat="45.4641" lon="5.83883">
        <ele>1457.98</ele>
        <time>2011-05-15T12:57:24Z</time>
      </trkpt>
      <trkpt lat="45.46397" lon="5.83892">
        <ele>1459.9</ele>
        <time>2011-05-15T12:57:40Z</time>
      </trkpt>
      <trkpt lat="45.46389" lon="5.83897">
        <ele>1460.86</ele>
        <time>2011-05-15T12:57:50Z</time>
      </trkpt>
      <trkpt lat="45.46381" lon="5.83906">
        <ele>1463.74</ele>
        <time>2011-05-15T12:58:04Z</time>
      </trkpt>
      <trkpt lat="45.46376" lon="5.83913">
        <ele>1465.67</ele>
        <time>2011-05-15T12:58:19Z</time>
      </trkpt>
      <trkpt lat="45.46374" lon="5.83923">
        <ele>1467.11</ele>
        <time>2011-05-15T12:58:32Z</time>
      </trkpt>
      <trkpt lat="45.46372" lon="5.83935">
        <ele>1469.99</ele>
        <time>2011-05-15T12:58:48Z</time>
      </trkpt>
      <trkpt lat="45.46375" lon="5.83936">
        <ele>1469.99</ele>
        <time>2011-05-15T12:58:51Z</time>
      </trkpt>
      <trkpt lat="45.4638" lon="5.83935">
        <ele>1470.95</ele>
        <time>2011-05-15T12:59:07Z</time>
      </trkpt>
      <trkpt lat="45.46384" lon="5.83938">
        <ele>1471.92</ele>
        <time>2011-05-15T12:59:16Z</time>
      </trkpt>
      <trkpt lat="45.46391" lon="5.83949">
        <ele>1474.8</ele>
        <time>2011-05-15T12:59:30Z</time>
      </trkpt>
      <trkpt lat="45.46401" lon="5.83957">
        <ele>1477.2</ele>
        <time>2011-05-15T12:59:45Z</time>
      </trkpt>
      <trkpt lat="45.46403" lon="5.83967">
        <ele>1479.13</ele>
        <time>2011-05-15T13:00:00Z</time>
      </trkpt>
      <trkpt lat="45.46406" lon="5.8398">
        <ele>1481.05</ele>
        <time>2011-05-15T13:00:12Z</time>
      </trkpt>
      <trkpt lat="45.46408" lon="5.84004">
        <ele>1483.45</ele>
        <time>2011-05-15T13:00:28Z</time>
      </trkpt>
      <trkpt lat="45.46408" lon="5.84005">
        <ele>1483.45</ele>
        <time>2011-05-15T13:00:29Z</time>
      </trkpt>
      <trkpt lat="45.46399" lon="5.84017">
        <ele>1486.34</ele>
        <time>2011-05-15T13:00:45Z</time>
      </trkpt>
      <trkpt lat="45.46386" lon="5.84023">
        <ele>1488.74</ele>
        <time>2011-05-15T13:01:00Z</time>
      </trkpt>
      <trkpt lat="45.46377" lon="5.84035">
        <ele>1491.62</ele>
        <time>2011-05-15T13:01:16Z</time>
      </trkpt>
      <trkpt lat="45.46375" lon="5.84039">
        <ele>1493.06</ele>
        <time>2011-05-15T13:01:32Z</time>
      </trkpt>
      <trkpt lat="45.46372" lon="5.8404">
        <ele>1493.06</ele>
        <time>2011-05-15T13:01:44Z</time>
      </trkpt>
      <trkpt lat="45.46344" lon="5.84068">
        <ele>1493.55</ele>
        <time>2011-05-15T13:01:59Z</time>
      </trkpt>
      <trkpt lat="45.46325" lon="5.84092">
        <ele>1494.51</ele>
        <time>2011-05-15T13:02:14Z</time>
      </trkpt>
      <trkpt lat="45.46324" lon="5.84097">
        <ele>1494.51</ele>
        <time>2011-05-15T13:02:18Z</time>
      </trkpt>
      <trkpt lat="45.4631" lon="5.84103">
        <ele>1495.95</ele>
        <time>2011-05-15T13:02:32Z</time>
      </trkpt>
      <trkpt lat="45.46308" lon="5.84106">
        <ele>1496.43</ele>
        <time>2011-05-15T13:02:35Z</time>
      </trkpt>
      <trkpt lat="45.4629" lon="5.84122">
        <ele>1497.87</ele>
        <time>2011-05-15T13:02:48Z</time>
      </trkpt>
      <trkpt lat="45.46277" lon="5.8413">
        <ele>1500.27</ele>
        <time>2011-05-15T13:03:04Z</time>
      </trkpt>
      <trkpt lat="45.46265" lon="5.84139">
        <ele>1503.64</ele>
        <time>2011-05-15T13:03:18Z</time>
      </trkpt>
      <trkpt lat="45.46261" lon="5.84147">
        <ele>1505.56</ele>
        <time>2011-05-15T13:03:28Z</time>
      </trkpt>
      <trkpt lat="45.46254" lon="5.84163">
        <ele>1507.48</ele>
        <time>2011-05-15T13:03:43Z</time>
      </trkpt>
      <trkpt lat="45.46251" lon="5.84168">
        <ele>1507.48</ele>
        <time>2011-05-15T13:03:55Z</time>
      </trkpt>
      <trkpt lat="45.46251" lon="5.8417">
        <ele>1507.48</ele>
        <time>2011-05-15T13:04:13Z</time>
      </trkpt>
      <trkpt lat="45.46251" lon="5.84172">
        <ele>1507.48</ele>
        <time>2011-05-15T13:04:14Z</time>
      </trkpt>
      <trkpt lat="45.46252" lon="5.84179">
        <ele>1507</ele>
        <time>2011-05-15T13:04:18Z</time>
      </trkpt>
      <trkpt lat="45.46252" lon="5.84197">
        <ele>1503.64</ele>
        <time>2011-05-15T13:04:26Z</time>
      </trkpt>
      <trkpt lat="45.46253" lon="5.84204">
        <ele>1502.68</ele>
        <time>2011-05-15T13:04:28Z</time>
      </trkpt>
      <trkpt lat="45.46255" lon="5.84215">
        <ele>1501.24</ele>
        <time>2011-05-15T13:04:31Z</time>
      </trkpt>
      <trkpt lat="45.46257" lon="5.8422">
        <ele>1499.79</ele>
        <time>2011-05-15T13:04:42Z</time>
      </trkpt>
      <trkpt lat="45.46256" lon="5.84221">
        <ele>1499.79</ele>
        <time>2011-05-15T13:04:43Z</time>
      </trkpt>
      <trkpt lat="45.46255" lon="5.84222">
        <ele>1499.31</ele>
        <time>2011-05-15T13:04:44Z</time>
      </trkpt>
      <trkpt lat="45.46254" lon="5.84225">
        <ele>1498.83</ele>
        <time>2011-05-15T13:04:45Z</time>
      </trkpt>
      <trkpt lat="45.46254" lon="5.84244">
        <ele>1495.95</ele>
        <time>2011-05-15T13:04:52Z</time>
      </trkpt>
      <trkpt lat="45.46261" lon="5.84272">
        <ele>1492.58</ele>
        <time>2011-05-15T13:05:00Z</time>
      </trkpt>
      <trkpt lat="45.46264" lon="5.8428">
        <ele>1491.14</ele>
        <time>2011-05-15T13:05:03Z</time>
      </trkpt>
      <trkpt lat="45.46267" lon="5.84297">
        <ele>1488.26</ele>
        <time>2011-05-15T13:05:09Z</time>
      </trkpt>
      <trkpt lat="45.46269" lon="5.84302">
        <ele>1487.78</ele>
        <time>2011-05-15T13:05:11Z</time>
      </trkpt>
      <trkpt lat="45.46275" lon="5.8431">
        <ele>1484.89</ele>
        <time>2011-05-15T13:05:17Z</time>
      </trkpt>
      <trkpt lat="45.46283" lon="5.8433">
        <ele>1480.57</ele>
        <time>2011-05-15T13:05:25Z</time>
      </trkpt>
      <trkpt lat="45.46283" lon="5.84332">
        <ele>1480.57</ele>
        <time>2011-05-15T13:05:26Z</time>
      </trkpt>
      <trkpt lat="45.46286" lon="5.84349">
        <ele>1477.2</ele>
        <time>2011-05-15T13:05:30Z</time>
      </trkpt>
      <trkpt lat="45.46277" lon="5.84376">
        <ele>1473.84</ele>
        <time>2011-05-15T13:05:40Z</time>
      </trkpt>
      <trkpt lat="45.46259" lon="5.84418">
        <ele>1469.99</ele>
        <time>2011-05-15T13:05:45Z</time>
      </trkpt>
      <trkpt lat="45.46255" lon="5.84435">
        <ele>1467.11</ele>
        <time>2011-05-15T13:05:49Z</time>
      </trkpt>
      <trkpt lat="45.46256" lon="5.84444">
        <ele>1464.23</ele>
        <time>2011-05-15T13:05:51Z</time>
      </trkpt>
      <trkpt lat="45.46249" lon="5.8447">
        <ele>1460.38</ele>
        <time>2011-05-15T13:05:58Z</time>
      </trkpt>
      <trkpt lat="45.4624" lon="5.84483">
        <ele>1459.9</ele>
        <time>2011-05-15T13:06:00Z</time>
      </trkpt>
      <trkpt lat="45.46223" lon="5.84488">
        <ele>1456.53</ele>
        <time>2011-05-15T13:06:05Z</time>
      </trkpt>
      <trkpt lat="45.46215" lon="5.84489">
        <ele>1454.13</ele>
        <time>2011-05-15T13:06:08Z</time>
      </trkpt>
      <trkpt lat="45.46199" lon="5.84491">
        <ele>1450.77</ele>
        <time>2011-05-15T13:06:13Z</time>
      </trkpt>
      <trkpt lat="45.4619" lon="5.84479">
        <ele>1447.4</ele>
        <time>2011-05-15T13:06:17Z</time>
      </trkpt>
      <trkpt lat="45.4617" lon="5.84449">
        <ele>1444.04</ele>
        <time>2011-05-15T13:06:23Z</time>
      </trkpt>
      <trkpt lat="45.4614" lon="5.84393">
        <ele>1440.19</ele>
        <time>2011-05-15T13:06:32Z</time>
      </trkpt>
      <trkpt lat="45.46138" lon="5.84396">
        <ele>1436.83</ele>
        <time>2011-05-15T13:06:37Z</time>
      </trkpt>
      <trkpt lat="45.46137" lon="5.84408">
        <ele>1432.98</ele>
        <time>2011-05-15T13:06:41Z</time>
      </trkpt>
      <trkpt lat="45.46137" lon="5.84423">
        <ele>1430.1</ele>
        <time>2011-05-15T13:06:46Z</time>
      </trkpt>
      <trkpt lat="45.46138" lon="5.84438">
        <ele>1428.18</ele>
        <time>2011-05-15T13:06:48Z</time>
      </trkpt>
      <trkpt lat="45.46143" lon="5.84461">
        <ele>1425.29</ele>
        <time>2011-05-15T13:06:54Z</time>
      </trkpt>
      <trkpt lat="45.46146" lon="5.84471">
        <ele>1424.33</ele>
        <time>2011-05-15T13:06:56Z</time>
      </trkpt>
      <trkpt lat="45.4615" lon="5.84492">
        <ele>1422.89</ele>
        <time>2011-05-15T13:07:00Z</time>
      </trkpt>
      <trkpt lat="45.46169" lon="5.8457">
        <ele>1419.04</ele>
        <time>2011-05-15T13:07:12Z</time>
      </trkpt>
      <trkpt lat="45.46182" lon="5.84608">
        <ele>1418.56</ele>
        <time>2011-05-15T13:07:23Z</time>
      </trkpt>
      <trkpt lat="45.46182" lon="5.84617">
        <ele>1419.52</ele>
        <time>2011-05-15T13:07:27Z</time>
      </trkpt>
      <trkpt lat="45.46186" lon="5.84626">
        <ele>1420.49</ele>
        <time>2011-05-15T13:07:32Z</time>
      </trkpt>
      <trkpt lat="45.46196" lon="5.84648">
        <ele>1423.85</ele>
        <time>2011-05-15T13:07:46Z</time>
      </trkpt>
      <trkpt lat="45.46198" lon="5.84651">
        <ele>1424.81</ele>
        <time>2011-05-15T13:07:49Z</time>
      </trkpt>
      <trkpt lat="45.46215" lon="5.84674">
        <ele>1427.21</ele>
        <time>2011-05-15T13:08:05Z</time>
      </trkpt>
      <trkpt lat="45.46228" lon="5.84708">
        <ele>1423.85</ele>
        <time>2011-05-15T13:08:15Z</time>
      </trkpt>
      <trkpt lat="45.46236" lon="5.84724">
        <ele>1421.93</ele>
        <time>2011-05-15T13:08:18Z</time>
      </trkpt>
      <trkpt lat="45.46251" lon="5.84744">
        <ele>1419.04</ele>
        <time>2011-05-15T13:08:23Z</time>
      </trkpt>
      <trkpt lat="45.46254" lon="5.84749">
        <ele>1418.56</ele>
        <time>2011-05-15T13:08:24Z</time>
      </trkpt>
      <trkpt lat="45.46256" lon="5.84754">
        <ele>1418.08</ele>
        <time>2011-05-15T13:08:25Z</time>
      </trkpt>
      <trkpt lat="45.46266" lon="5.84775">
        <ele>1415.68</ele>
        <time>2011-05-15T13:08:29Z</time>
      </trkpt>
      <trkpt lat="45.4627" lon="5.84786">
        <ele>1413.76</ele>
        <time>2011-05-15T13:08:31Z</time>
      </trkpt>
      <trkpt lat="45.46272" lon="5.84797">
        <ele>1412.31</ele>
        <time>2011-05-15T13:08:33Z</time>
      </trkpt>
      <trkpt lat="45.4628" lon="5.84844">
        <ele>1408.95</ele>
        <time>2011-05-15T13:08:40Z</time>
      </trkpt>
      <trkpt lat="45.46283" lon="5.84871">
        <ele>1405.58</ele>
        <time>2011-05-15T13:08:46Z</time>
      </trkpt>
      <trkpt lat="45.46286" lon="5.84886">
        <ele>1402.22</ele>
        <time>2011-05-15T13:08:49Z</time>
      </trkpt>
      <trkpt lat="45.4629" lon="5.84897">
        <ele>1400.3</ele>
        <time>2011-05-15T13:08:51Z</time>
      </trkpt>
      <trkpt lat="45.46297" lon="5.84909">
        <ele>1396.45</ele>
        <time>2011-05-15T13:08:54Z</time>
      </trkpt>
      <trkpt lat="45.46305" lon="5.84924">
        <ele>1393.09</ele>
        <time>2011-05-15T13:09:00Z</time>
      </trkpt>
      <trkpt lat="45.46305" lon="5.84926">
        <ele>1392.13</ele>
        <time>2011-05-15T13:09:02Z</time>
      </trkpt>
      <trkpt lat="45.46305" lon="5.84926">
        <ele>1392.13</ele>
        <time>2011-05-15T13:09:24Z</time>
      </trkpt>
      <trkpt lat="45.46305" lon="5.84927">
        <ele>1391.17</ele>
        <time>2011-05-15T13:09:39Z</time>
      </trkpt>
      <trkpt lat="45.46306" lon="5.84931">
        <ele>1391.65</ele>
        <time>2011-05-15T13:09:53Z</time>
      </trkpt>
      <trkpt lat="45.46307" lon="5.84933">
        <ele>1391.17</ele>
        <time>2011-05-15T13:09:54Z</time>
      </trkpt>
      <trkpt lat="45.46309" lon="5.84936">
        <ele>1390.68</ele>
        <time>2011-05-15T13:09:55Z</time>
      </trkpt>
      <trkpt lat="45.46312" lon="5.84938">
        <ele>1390.2</ele>
        <time>2011-05-15T13:09:56Z</time>
      </trkpt>
      <trkpt lat="45.46314" lon="5.84941">
        <ele>1389.72</ele>
        <time>2011-05-15T13:09:57Z</time>
      </trkpt>
      <trkpt lat="45.46317" lon="5.84945">
        <ele>1389.24</ele>
        <time>2011-05-15T13:09:58Z</time>
      </trkpt>
      <trkpt lat="45.46325" lon="5.8496">
        <ele>1386.84</ele>
        <time>2011-05-15T13:10:01Z</time>
      </trkpt>
      <trkpt lat="45.46332" lon="5.84972">
        <ele>1383.96</ele>
        <time>2011-05-15T13:10:03Z</time>
      </trkpt>
      <trkpt lat="45.4634" lon="5.84992">
        <ele>1380.59</ele>
        <time>2011-05-15T13:10:06Z</time>
      </trkpt>
      <trkpt lat="45.46341" lon="5.84998">
        <ele>1379.15</ele>
        <time>2011-05-15T13:10:07Z</time>
      </trkpt>
      <trkpt lat="45.46341" lon="5.85003">
        <ele>1378.19</ele>
        <time>2011-05-15T13:10:08Z</time>
      </trkpt>
      <trkpt lat="45.46341" lon="5.85008">
        <ele>1377.23</ele>
        <time>2011-05-15T13:10:09Z</time>
      </trkpt>
      <trkpt lat="45.46339" lon="5.85013">
        <ele>1376.75</ele>
        <time>2011-05-15T13:10:10Z</time>
      </trkpt>
      <trkpt lat="45.46339" lon="5.85019">
        <ele>1375.78</ele>
        <time>2011-05-15T13:10:11Z</time>
      </trkpt>
      <trkpt lat="45.46339" lon="5.8504">
        <ele>1373.38</ele>
        <time>2011-05-15T13:10:14Z</time>
      </trkpt>
      <trkpt lat="45.46339" lon="5.85054">
        <ele>1370.98</ele>
        <time>2011-05-15T13:10:16Z</time>
      </trkpt>
      <trkpt lat="45.4634" lon="5.85074">
        <ele>1368.57</ele>
        <time>2011-05-15T13:10:19Z</time>
      </trkpt>
      <trkpt lat="45.46342" lon="5.85091">
        <ele>1364.73</ele>
        <time>2011-05-15T13:10:22Z</time>
      </trkpt>
      <trkpt lat="45.46338" lon="5.85103">
        <ele>1361.84</ele>
        <time>2011-05-15T13:10:25Z</time>
      </trkpt>
      <trkpt lat="45.46335" lon="5.85104">
        <ele>1360.4</ele>
        <time>2011-05-15T13:10:26Z</time>
      </trkpt>
      <trkpt lat="45.46332" lon="5.85102">
        <ele>1359.44</ele>
        <time>2011-05-15T13:10:27Z</time>
      </trkpt>
      <trkpt lat="45.46328" lon="5.851">
        <ele>1358.96</ele>
        <time>2011-05-15T13:10:28Z</time>
      </trkpt>
      <trkpt lat="45.46323" lon="5.85095">
        <ele>1357.52</ele>
        <time>2011-05-15T13:10:29Z</time>
      </trkpt>
      <trkpt lat="45.46317" lon="5.8509">
        <ele>1355.6</ele>
        <time>2011-05-15T13:10:30Z</time>
      </trkpt>
      <trkpt lat="45.46313" lon="5.85084">
        <ele>1353.67</ele>
        <time>2011-05-15T13:10:31Z</time>
      </trkpt>
      <trkpt lat="45.463" lon="5.85066">
        <ele>1350.79</ele>
        <time>2011-05-15T13:10:35Z</time>
      </trkpt>
      <trkpt lat="45.46294" lon="5.8506">
        <ele>1348.87</ele>
        <time>2011-05-15T13:10:37Z</time>
      </trkpt>
      <trkpt lat="45.4629" lon="5.85058">
        <ele>1347.91</ele>
        <time>2011-05-15T13:10:38Z</time>
      </trkpt>
      <trkpt lat="45.46285" lon="5.85057">
        <ele>1345.02</ele>
        <time>2011-05-15T13:10:39Z</time>
      </trkpt>
      <trkpt lat="45.4628" lon="5.85058">
        <ele>1344.54</ele>
        <time>2011-05-15T13:10:40Z</time>
      </trkpt>
      <trkpt lat="45.46275" lon="5.85059">
        <ele>1342.14</ele>
        <time>2011-05-15T13:10:41Z</time>
      </trkpt>
      <trkpt lat="45.4627" lon="5.85061">
        <ele>1341.66</ele>
        <time>2011-05-15T13:10:42Z</time>
      </trkpt>
      <trkpt lat="45.46261" lon="5.85066">
        <ele>1337.81</ele>
        <time>2011-05-15T13:10:45Z</time>
      </trkpt>
      <trkpt lat="45.46259" lon="5.8507">
        <ele>1336.85</ele>
        <time>2011-05-15T13:10:46Z</time>
      </trkpt>
      <trkpt lat="45.46257" lon="5.85074">
        <ele>1334.93</ele>
        <time>2011-05-15T13:10:47Z</time>
      </trkpt>
      <trkpt lat="45.46255" lon="5.85079">
        <ele>1333.97</ele>
        <time>2011-05-15T13:10:48Z</time>
      </trkpt>
      <trkpt lat="45.46253" lon="5.85084">
        <ele>1333.01</ele>
        <time>2011-05-15T13:10:49Z</time>
      </trkpt>
      <trkpt lat="45.46246" lon="5.85102">
        <ele>1327.72</ele>
        <time>2011-05-15T13:10:52Z</time>
      </trkpt>
      <trkpt lat="45.46245" lon="5.85107">
        <ele>1326.28</ele>
        <time>2011-05-15T13:10:53Z</time>
      </trkpt>
      <trkpt lat="45.46243" lon="5.85111">
        <ele>1324.83</ele>
        <time>2011-05-15T13:10:54Z</time>
      </trkpt>
      <trkpt lat="45.46241" lon="5.8512">
        <ele>1322.43</ele>
        <time>2011-05-15T13:10:56Z</time>
      </trkpt>
      <trkpt lat="45.46235" lon="5.85136">
        <ele>1319.07</ele>
        <time>2011-05-15T13:10:59Z</time>
      </trkpt>
      <trkpt lat="45.46232" lon="5.85146">
        <ele>1315.7</ele>
        <time>2011-05-15T13:11:01Z</time>
      </trkpt>
      <trkpt lat="45.46227" lon="5.85159">
        <ele>1311.86</ele>
        <time>2011-05-15T13:11:04Z</time>
      </trkpt>
      <trkpt lat="45.46225" lon="5.85168">
        <ele>1309.45</ele>
        <time>2011-05-15T13:11:07Z</time>
      </trkpt>
      <trkpt lat="45.46225" lon="5.85169">
        <ele>1308.97</ele>
        <time>2011-05-15T13:11:08Z</time>
      </trkpt>
      <trkpt lat="45.46218" lon="5.85178">
        <ele>1307.53</ele>
        <time>2011-05-15T13:11:12Z</time>
      </trkpt>
      <trkpt lat="45.46214" lon="5.85181">
        <ele>1306.09</ele>
        <time>2011-05-15T13:11:13Z</time>
      </trkpt>
      <trkpt lat="45.46206" lon="5.85187">
        <ele>1304.17</ele>
        <time>2011-05-15T13:11:15Z</time>
      </trkpt>
      <trkpt lat="45.46195" lon="5.85194">
        <ele>1300.8</ele>
        <time>2011-05-15T13:11:18Z</time>
      </trkpt>
      <trkpt lat="45.46183" lon="5.85205">
        <ele>1298.4</ele>
        <time>2011-05-15T13:11:21Z</time>
      </trkpt>
      <trkpt lat="45.4618" lon="5.85211">
        <ele>1296.96</ele>
        <time>2011-05-15T13:11:22Z</time>
      </trkpt>
      <trkpt lat="45.46168" lon="5.85236">
        <ele>1293.59</ele>
        <time>2011-05-15T13:11:26Z</time>
      </trkpt>
      <trkpt lat="45.46166" lon="5.85242">
        <ele>1293.11</ele>
        <time>2011-05-15T13:11:27Z</time>
      </trkpt>
      <trkpt lat="45.46165" lon="5.85247">
        <ele>1291.19</ele>
        <time>2011-05-15T13:11:28Z</time>
      </trkpt>
      <trkpt lat="45.46165" lon="5.85253">
        <ele>1291.19</ele>
        <time>2011-05-15T13:11:29Z</time>
      </trkpt>
      <trkpt lat="45.46165" lon="5.85265">
        <ele>1288.78</ele>
        <time>2011-05-15T13:11:31Z</time>
      </trkpt>
      <trkpt lat="45.46166" lon="5.8527">
        <ele>1287.34</ele>
        <time>2011-05-15T13:11:32Z</time>
      </trkpt>
      <trkpt lat="45.46167" lon="5.85275">
        <ele>1287.82</ele>
        <time>2011-05-15T13:11:33Z</time>
      </trkpt>
      <trkpt lat="45.46186" lon="5.85297">
        <ele>1283.98</ele>
        <time>2011-05-15T13:11:39Z</time>
      </trkpt>
      <trkpt lat="45.46206" lon="5.85313">
        <ele>1282.06</ele>
        <time>2011-05-15T13:11:44Z</time>
      </trkpt>
      <trkpt lat="45.4621" lon="5.85316">
        <ele>1281.57</ele>
        <time>2011-05-15T13:11:45Z</time>
      </trkpt>
      <trkpt lat="45.46214" lon="5.85319">
        <ele>1280.61</ele>
        <time>2011-05-15T13:11:46Z</time>
      </trkpt>
      <trkpt lat="45.46225" lon="5.85329">
        <ele>1279.17</ele>
        <time>2011-05-15T13:11:50Z</time>
      </trkpt>
      <trkpt lat="45.46253" lon="5.8535">
        <ele>1277.73</ele>
        <time>2011-05-15T13:11:59Z</time>
      </trkpt>
      <trkpt lat="45.46266" lon="5.85359">
        <ele>1275.33</ele>
        <time>2011-05-15T13:12:02Z</time>
      </trkpt>
      <trkpt lat="45.46271" lon="5.85363">
        <ele>1275.33</ele>
        <time>2011-05-15T13:12:03Z</time>
      </trkpt>
      <trkpt lat="45.46285" lon="5.85378">
        <ele>1273.4</ele>
        <time>2011-05-15T13:12:06Z</time>
      </trkpt>
      <trkpt lat="45.46299" lon="5.85391">
        <ele>1271</ele>
        <time>2011-05-15T13:12:09Z</time>
      </trkpt>
      <trkpt lat="45.46301" lon="5.85396">
        <ele>1270.52</ele>
        <time>2011-05-15T13:12:10Z</time>
      </trkpt>
      <trkpt lat="45.46303" lon="5.85403">
        <ele>1270.04</ele>
        <time>2011-05-15T13:12:11Z</time>
      </trkpt>
      <trkpt lat="45.46304" lon="5.85411">
        <ele>1267.64</ele>
        <time>2011-05-15T13:12:12Z</time>
      </trkpt>
      <trkpt lat="45.46304" lon="5.8542">
        <ele>1268.12</ele>
        <time>2011-05-15T13:12:13Z</time>
      </trkpt>
      <trkpt lat="45.46303" lon="5.85431">
        <ele>1266.67</ele>
        <time>2011-05-15T13:12:14Z</time>
      </trkpt>
      <trkpt lat="45.463" lon="5.85442">
        <ele>1264.75</ele>
        <time>2011-05-15T13:12:15Z</time>
      </trkpt>
      <trkpt lat="45.46298" lon="5.85451">
        <ele>1263.79</ele>
        <time>2011-05-15T13:12:16Z</time>
      </trkpt>
      <trkpt lat="45.46297" lon="5.85457">
        <ele>1263.79</ele>
        <time>2011-05-15T13:12:17Z</time>
      </trkpt>
      <trkpt lat="45.46293" lon="5.85491">
        <ele>1260.91</ele>
        <time>2011-05-15T13:12:24Z</time>
      </trkpt>
      <trkpt lat="45.46293" lon="5.85498">
        <ele>1260.43</ele>
        <time>2011-05-15T13:12:25Z</time>
      </trkpt>
      <trkpt lat="45.46292" lon="5.85505">
        <ele>1260.43</ele>
        <time>2011-05-15T13:12:26Z</time>
      </trkpt>
      <trkpt lat="45.46291" lon="5.85513">
        <ele>1259.46</ele>
        <time>2011-05-15T13:12:27Z</time>
      </trkpt>
      <trkpt lat="45.46291" lon="5.85521">
        <ele>1258.5</ele>
        <time>2011-05-15T13:12:28Z</time>
      </trkpt>
      <trkpt lat="45.4629" lon="5.8553">
        <ele>1259.46</ele>
        <time>2011-05-15T13:12:29Z</time>
      </trkpt>
      <trkpt lat="45.46285" lon="5.85553">
        <ele>1258.5</ele>
        <time>2011-05-15T13:12:32Z</time>
      </trkpt>
      <trkpt lat="45.46283" lon="5.85559">
        <ele>1257.54</ele>
        <time>2011-05-15T13:12:33Z</time>
      </trkpt>
      <trkpt lat="45.46283" lon="5.85563">
        <ele>1257.54</ele>
        <time>2011-05-15T13:12:34Z</time>
      </trkpt>
      <trkpt lat="45.46282" lon="5.8557">
        <ele>1257.54</ele>
        <time>2011-05-15T13:12:38Z</time>
      </trkpt>
      <trkpt lat="45.46283" lon="5.85572">
        <ele>1257.06</ele>
        <time>2011-05-15T13:12:40Z</time>
      </trkpt>
      <trkpt lat="45.46284" lon="5.85578">
        <ele>1257.06</ele>
        <time>2011-05-15T13:12:45Z</time>
      </trkpt>
      <trkpt lat="45.46282" lon="5.85581">
        <ele>1256.58</ele>
        <time>2011-05-15T13:12:50Z</time>
      </trkpt>
      <trkpt lat="45.46286" lon="5.85607">
        <ele>1255.14</ele>
        <time>2011-05-15T13:12:59Z</time>
      </trkpt>
      <trkpt lat="45.46287" lon="5.85609">
        <ele>1254.18</ele>
        <time>2011-05-15T13:13:04Z</time>
      </trkpt>
      <trkpt lat="45.46287" lon="5.85642">
        <ele>1250.33</ele>
        <time>2011-05-15T13:13:11Z</time>
      </trkpt>
      <trkpt lat="45.46288" lon="5.85656">
        <ele>1247.93</ele>
        <time>2011-05-15T13:13:13Z</time>
      </trkpt>
      <trkpt lat="45.46287" lon="5.85662">
        <ele>1247.45</ele>
        <time>2011-05-15T13:13:14Z</time>
      </trkpt>
      <trkpt lat="45.46285" lon="5.85667">
        <ele>1246.49</ele>
        <time>2011-05-15T13:13:15Z</time>
      </trkpt>
      <trkpt lat="45.46282" lon="5.85672">
        <ele>1244.56</ele>
        <time>2011-05-15T13:13:16Z</time>
      </trkpt>
      <trkpt lat="45.46279" lon="5.85678">
        <ele>1243.6</ele>
        <time>2011-05-15T13:13:17Z</time>
      </trkpt>
      <trkpt lat="45.46275" lon="5.85683">
        <ele>1242.16</ele>
        <time>2011-05-15T13:13:18Z</time>
      </trkpt>
      <trkpt lat="45.46271" lon="5.85688">
        <ele>1240.72</ele>
        <time>2011-05-15T13:13:19Z</time>
      </trkpt>
      <trkpt lat="45.46267" lon="5.85694">
        <ele>1240.24</ele>
        <time>2011-05-15T13:13:20Z</time>
      </trkpt>
      <trkpt lat="45.46264" lon="5.85699">
        <ele>1238.8</ele>
        <time>2011-05-15T13:13:21Z</time>
      </trkpt>
      <trkpt lat="45.46261" lon="5.85705">
        <ele>1237.83</ele>
        <time>2011-05-15T13:13:22Z</time>
      </trkpt>
      <trkpt lat="45.46257" lon="5.85711">
        <ele>1236.39</ele>
        <time>2011-05-15T13:13:23Z</time>
      </trkpt>
      <trkpt lat="45.46255" lon="5.85717">
        <ele>1236.39</ele>
        <time>2011-05-15T13:13:24Z</time>
      </trkpt>
      <trkpt lat="45.46245" lon="5.85739">
        <ele>1232.55</ele>
        <time>2011-05-15T13:13:27Z</time>
      </trkpt>
      <trkpt lat="45.46242" lon="5.85746">
        <ele>1231.59</ele>
        <time>2011-05-15T13:13:28Z</time>
      </trkpt>
      <trkpt lat="45.4623" lon="5.85765">
        <ele>1228.22</ele>
        <time>2011-05-15T13:13:31Z</time>
      </trkpt>
      <trkpt lat="45.46223" lon="5.85775">
        <ele>1226.3</ele>
        <time>2011-05-15T13:13:33Z</time>
      </trkpt>
      <trkpt lat="45.46222" lon="5.85781">
        <ele>1224.38</ele>
        <time>2011-05-15T13:13:34Z</time>
      </trkpt>
      <trkpt lat="45.4622" lon="5.85788">
        <ele>1224.86</ele>
        <time>2011-05-15T13:13:35Z</time>
      </trkpt>
      <trkpt lat="45.4622" lon="5.85796">
        <ele>1222.45</ele>
        <time>2011-05-15T13:13:36Z</time>
      </trkpt>
      <trkpt lat="45.4622" lon="5.85804">
        <ele>1222.45</ele>
        <time>2011-05-15T13:13:37Z</time>
      </trkpt>
      <trkpt lat="45.4622" lon="5.85813">
        <ele>1221.97</ele>
        <time>2011-05-15T13:13:38Z</time>
      </trkpt>
      <trkpt lat="45.46223" lon="5.85822">
        <ele>1221.49</ele>
        <time>2011-05-15T13:13:39Z</time>
      </trkpt>
      <trkpt lat="45.46225" lon="5.85831">
        <ele>1221.49</ele>
        <time>2011-05-15T13:13:40Z</time>
      </trkpt>
      <trkpt lat="45.46228" lon="5.85841">
        <ele>1220.53</ele>
        <time>2011-05-15T13:13:41Z</time>
      </trkpt>
      <trkpt lat="45.46232" lon="5.85861">
        <ele>1217.17</ele>
        <time>2011-05-15T13:13:43Z</time>
      </trkpt>
      <trkpt lat="45.46233" lon="5.85872">
        <ele>1215.72</ele>
        <time>2011-05-15T13:13:44Z</time>
      </trkpt>
      <trkpt lat="45.46236" lon="5.85881">
        <ele>1214.76</ele>
        <time>2011-05-15T13:13:45Z</time>
      </trkpt>
      <trkpt lat="45.4624" lon="5.85891">
        <ele>1213.8</ele>
        <time>2011-05-15T13:13:46Z</time>
      </trkpt>
      <trkpt lat="45.46251" lon="5.85914">
        <ele>1210.92</ele>
        <time>2011-05-15T13:13:49Z</time>
      </trkpt>
      <trkpt lat="45.46255" lon="5.85929">
        <ele>1208.51</ele>
        <time>2011-05-15T13:13:52Z</time>
      </trkpt>
      <trkpt lat="45.46257" lon="5.85934">
        <ele>1208.51</ele>
        <time>2011-05-15T13:13:53Z</time>
      </trkpt>
      <trkpt lat="45.46259" lon="5.85939">
        <ele>1207.07</ele>
        <time>2011-05-15T13:13:54Z</time>
      </trkpt>
      <trkpt lat="45.46262" lon="5.85943">
        <ele>1207.55</ele>
        <time>2011-05-15T13:13:55Z</time>
      </trkpt>
      <trkpt lat="45.46283" lon="5.85981">
        <ele>1203.71</ele>
        <time>2011-05-15T13:14:01Z</time>
      </trkpt>
      <trkpt lat="45.463" lon="5.86018">
        <ele>1200.34</ele>
        <time>2011-05-15T13:14:05Z</time>
      </trkpt>
      <trkpt lat="45.46305" lon="5.86028">
        <ele>1200.34</ele>
        <time>2011-05-15T13:14:06Z</time>
      </trkpt>
      <trkpt lat="45.46309" lon="5.86038">
        <ele>1199.86</ele>
        <time>2011-05-15T13:14:07Z</time>
      </trkpt>
      <trkpt lat="45.46312" lon="5.86049">
        <ele>1199.86</ele>
        <time>2011-05-15T13:14:08Z</time>
      </trkpt>
      <trkpt lat="45.46313" lon="5.8606">
        <ele>1199.86</ele>
        <time>2011-05-15T13:14:09Z</time>
      </trkpt>
      <trkpt lat="45.46313" lon="5.8607">
        <ele>1199.86</ele>
        <time>2011-05-15T13:14:10Z</time>
      </trkpt>
      <trkpt lat="45.46313" lon="5.8608">
        <ele>1199.86</ele>
        <time>2011-05-15T13:14:11Z</time>
      </trkpt>
      <trkpt lat="45.46312" lon="5.86134">
        <ele>1199.86</ele>
        <time>2011-05-15T13:14:17Z</time>
      </trkpt>
      <trkpt lat="45.46314" lon="5.86142">
        <ele>1199.86</ele>
        <time>2011-05-15T13:14:18Z</time>
      </trkpt>
      <trkpt lat="45.46315" lon="5.8615">
        <ele>1200.34</ele>
        <time>2011-05-15T13:14:19Z</time>
      </trkpt>
      <trkpt lat="45.46318" lon="5.86157">
        <ele>1200.34</ele>
        <time>2011-05-15T13:14:20Z</time>
      </trkpt>
      <trkpt lat="45.46321" lon="5.86163">
        <ele>1199.38</ele>
        <time>2011-05-15T13:14:21Z</time>
      </trkpt>
      <trkpt lat="45.46325" lon="5.86169">
        <ele>1199.86</ele>
        <time>2011-05-15T13:14:22Z</time>
      </trkpt>
      <trkpt lat="45.46347" lon="5.86207">
        <ele>1196.02</ele>
        <time>2011-05-15T13:14:27Z</time>
      </trkpt>
      <trkpt lat="45.46361" lon="5.86224">
        <ele>1194.09</ele>
        <time>2011-05-15T13:14:29Z</time>
      </trkpt>
      <trkpt lat="45.46369" lon="5.86231">
        <ele>1193.13</ele>
        <time>2011-05-15T13:14:30Z</time>
      </trkpt>
      <trkpt lat="45.46378" lon="5.86236">
        <ele>1192.17</ele>
        <time>2011-05-15T13:14:31Z</time>
      </trkpt>
      <trkpt lat="45.46387" lon="5.86239">
        <ele>1191.21</ele>
        <time>2011-05-15T13:14:32Z</time>
      </trkpt>
      <trkpt lat="45.46396" lon="5.86242">
        <ele>1190.73</ele>
        <time>2011-05-15T13:14:33Z</time>
      </trkpt>
      <trkpt lat="45.46436" lon="5.8625">
        <ele>1187.37</ele>
        <time>2011-05-15T13:14:37Z</time>
      </trkpt>
      <trkpt lat="45.46478" lon="5.86258">
        <ele>1183.52</ele>
        <time>2011-05-15T13:14:41Z</time>
      </trkpt>
      <trkpt lat="45.46487" lon="5.86263">
        <ele>1182.56</ele>
        <time>2011-05-15T13:14:42Z</time>
      </trkpt>
      <trkpt lat="45.46497" lon="5.8627">
        <ele>1181.6</ele>
        <time>2011-05-15T13:14:43Z</time>
      </trkpt>
      <trkpt lat="45.46529" lon="5.86302">
        <ele>1178.71</ele>
        <time>2011-05-15T13:14:47Z</time>
      </trkpt>
      <trkpt lat="45.4655" lon="5.86326">
        <ele>1176.31</ele>
        <time>2011-05-15T13:14:50Z</time>
      </trkpt>
      <trkpt lat="45.4656" lon="5.86339">
        <ele>1174.87</ele>
        <time>2011-05-15T13:14:52Z</time>
      </trkpt>
      <trkpt lat="45.46564" lon="5.86343">
        <ele>1174.87</ele>
        <time>2011-05-15T13:14:53Z</time>
      </trkpt>
      <trkpt lat="45.46568" lon="5.86347">
        <ele>1173.91</ele>
        <time>2011-05-15T13:14:54Z</time>
      </trkpt>
      <trkpt lat="45.46572" lon="5.86349">
        <ele>1172.95</ele>
        <time>2011-05-15T13:14:55Z</time>
      </trkpt>
      <trkpt lat="45.46576" lon="5.8635">
        <ele>1172.95</ele>
        <time>2011-05-15T13:14:56Z</time>
      </trkpt>
      <trkpt lat="45.4658" lon="5.86348">
        <ele>1172.47</ele>
        <time>2011-05-15T13:14:57Z</time>
      </trkpt>
      <trkpt lat="45.46584" lon="5.86345">
        <ele>1172.95</ele>
        <time>2011-05-15T13:14:58Z</time>
      </trkpt>
      <trkpt lat="45.46586" lon="5.86342">
        <ele>1173.43</ele>
        <time>2011-05-15T13:14:59Z</time>
      </trkpt>
      <trkpt lat="45.46588" lon="5.86339">
        <ele>1173.43</ele>
        <time>2011-05-15T13:15:00Z</time>
      </trkpt>
      <trkpt lat="45.4659" lon="5.86336">
        <ele>1173.91</ele>
        <time>2011-05-15T13:15:10Z</time>
      </trkpt>
      <trkpt lat="45.46591" lon="5.86335">
        <ele>1174.87</ele>
        <time>2011-05-15T13:15:22Z</time>
      </trkpt>
      <trkpt lat="45.46593" lon="5.86335">
        <ele>1174.87</ele>
        <time>2011-05-15T13:15:23Z</time>
      </trkpt>
      <trkpt lat="45.46594" lon="5.86333">
        <ele>1174.87</ele>
        <time>2011-05-15T13:15:24Z</time>
      </trkpt>
      <trkpt lat="45.46594" lon="5.86331">
        <ele>1174.87</ele>
        <time>2011-05-15T13:15:25Z</time>
      </trkpt>
      <trkpt lat="45.46594" lon="5.8633">
        <ele>1174.87</ele>
        <time>2011-05-15T13:15:26Z</time>
      </trkpt>
      <trkpt lat="45.46593" lon="5.86329">
        <ele>1175.35</ele>
        <time>2011-05-15T13:15:27Z</time>
      </trkpt>
      <trkpt lat="45.46593" lon="5.86327">
        <ele>1174.87</ele>
        <time>2011-05-15T13:15:28Z</time>
      </trkpt>
      <trkpt lat="45.46594" lon="5.86323">
        <ele>1175.35</ele>
        <time>2011-05-15T13:15:33Z</time>
      </trkpt>
      <trkpt lat="45.46595" lon="5.86324">
        <ele>1175.35</ele>
        <time>2011-05-15T13:15:34Z</time>
      </trkpt>
      <trkpt lat="45.46596" lon="5.86325">
        <ele>1174.87</ele>
        <time>2011-05-15T13:15:35Z</time>
      </trkpt>
      <trkpt lat="45.46597" lon="5.86325">
        <ele>1175.35</ele>
        <time>2011-05-15T13:15:36Z</time>
      </trkpt>
      <trkpt lat="45.46599" lon="5.86325">
        <ele>1175.35</ele>
        <time>2011-05-15T13:15:37Z</time>
      </trkpt>
      <trkpt lat="45.46601" lon="5.86325">
        <ele>1175.35</ele>
        <time>2011-05-15T13:15:38Z</time>
      </trkpt>
      <trkpt lat="45.46603" lon="5.86324">
        <ele>1175.35</ele>
        <time>2011-05-15T13:15:39Z</time>
      </trkpt>
      <trkpt lat="45.46605" lon="5.86323">
        <ele>1175.83</ele>
        <time>2011-05-15T13:15:40Z</time>
      </trkpt>
      <trkpt lat="45.46607" lon="5.86321">
        <ele>1176.31</ele>
        <time>2011-05-15T13:15:41Z</time>
      </trkpt>
      <trkpt lat="45.46609" lon="5.86319">
        <ele>1176.79</ele>
        <time>2011-05-15T13:15:42Z</time>
      </trkpt>
      <trkpt lat="45.46611" lon="5.86318">
        <ele>1176.79</ele>
        <time>2011-05-15T13:15:43Z</time>
      </trkpt>
      <trkpt lat="45.46613" lon="5.86316">
        <ele>1176.79</ele>
        <time>2011-05-15T13:15:44Z</time>
      </trkpt>
      <trkpt lat="45.46642" lon="5.86297">
        <ele>1180.16</ele>
        <time>2011-05-15T13:15:58Z</time>
      </trkpt>
      <trkpt lat="45.4667" lon="5.86265">
        <ele>1182.56</ele>
        <time>2011-05-15T13:16:15Z</time>
      </trkpt>
      <trkpt lat="45.46697" lon="5.86243">
        <ele>1185.44</ele>
        <time>2011-05-15T13:16:31Z</time>
      </trkpt>
      <trkpt lat="45.46732" lon="5.86236">
        <ele>1187.85</ele>
        <time>2011-05-15T13:16:49Z</time>
      </trkpt>
      <trkpt lat="45.4676" lon="5.86235">
        <ele>1190.25</ele>
        <time>2011-05-15T13:17:04Z</time>
      </trkpt>
      <trkpt lat="45.46795" lon="5.86232">
        <ele>1193.13</ele>
        <time>2011-05-15T13:17:22Z</time>
      </trkpt>
      <trkpt lat="45.46829" lon="5.86234">
        <ele>1196.5</ele>
        <time>2011-05-15T13:17:40Z</time>
      </trkpt>
      <trkpt lat="45.46869" lon="5.86236">
        <ele>1199.38</ele>
        <time>2011-05-15T13:18:01Z</time>
      </trkpt>
      <trkpt lat="45.46902" lon="5.86237">
        <ele>1201.3</ele>
        <time>2011-05-15T13:18:18Z</time>
      </trkpt>
      <trkpt lat="45.46927" lon="5.86242">
        <ele>1203.23</ele>
        <time>2011-05-15T13:18:31Z</time>
      </trkpt>
      <trkpt lat="45.46954" lon="5.86264">
        <ele>1206.11</ele>
        <time>2011-05-15T13:18:48Z</time>
      </trkpt>
      <trkpt lat="45.46988" lon="5.86284">
        <ele>1209</ele>
        <time>2011-05-15T13:19:07Z</time>
      </trkpt>
      <trkpt lat="45.47024" lon="5.86283">
        <ele>1211.88</ele>
        <time>2011-05-15T13:19:25Z</time>
      </trkpt>
      <trkpt lat="45.47053" lon="5.86261">
        <ele>1215.24</ele>
        <time>2011-05-15T13:19:43Z</time>
      </trkpt>
      <trkpt lat="45.47083" lon="5.86251">
        <ele>1218.13</ele>
        <time>2011-05-15T13:20:00Z</time>
      </trkpt>
      <trkpt lat="45.47114" lon="5.86246">
        <ele>1221.49</ele>
        <time>2011-05-15T13:20:16Z</time>
      </trkpt>
      <trkpt lat="45.47142" lon="5.86244">
        <ele>1223.9</ele>
        <time>2011-05-15T13:20:31Z</time>
      </trkpt>
      <trkpt lat="45.47171" lon="5.86249">
        <ele>1226.3</ele>
        <time>2011-05-15T13:20:46Z</time>
      </trkpt>
      <trkpt lat="45.47201" lon="5.86259">
        <ele>1227.74</ele>
        <time>2011-05-15T13:21:00Z</time>
      </trkpt>
      <trkpt lat="45.47229" lon="5.8627">
        <ele>1228.22</ele>
        <time>2011-05-15T13:21:13Z</time>
      </trkpt>
      <trkpt lat="45.47257" lon="5.86277">
        <ele>1230.62</ele>
        <time>2011-05-15T13:21:27Z</time>
      </trkpt>
      <trkpt lat="45.47286" lon="5.86281">
        <ele>1232.07</ele>
        <time>2011-05-15T13:21:41Z</time>
      </trkpt>
      <trkpt lat="45.47289" lon="5.86282">
        <ele>1232.55</ele>
        <time>2011-05-15T13:21:42Z</time>
      </trkpt>
      <trkpt lat="45.4732" lon="5.8629">
        <ele>1233.99</ele>
        <time>2011-05-15T13:21:57Z</time>
      </trkpt>
      <trkpt lat="45.47352" lon="5.86292">
        <ele>1235.43</ele>
        <time>2011-05-15T13:22:12Z</time>
      </trkpt>
      <trkpt lat="45.47388" lon="5.86282">
        <ele>1237.35</ele>
        <time>2011-05-15T13:22:29Z</time>
      </trkpt>
      <trkpt lat="45.47414" lon="5.86271">
        <ele>1238.8</ele>
        <time>2011-05-15T13:22:42Z</time>
      </trkpt>
      <trkpt lat="45.47442" lon="5.86271">
        <ele>1240.24</ele>
        <time>2011-05-15T13:22:56Z</time>
      </trkpt>
      <trkpt lat="45.47466" lon="5.86281">
        <ele>1242.64</ele>
        <time>2011-05-15T13:23:09Z</time>
      </trkpt>
      <trkpt lat="45.47494" lon="5.86285">
        <ele>1244.08</ele>
        <time>2011-05-15T13:23:23Z</time>
      </trkpt>
      <trkpt lat="45.47525" lon="5.86279">
        <ele>1246.01</ele>
        <time>2011-05-15T13:23:38Z</time>
      </trkpt>
      <trkpt lat="45.4756" lon="5.86281">
        <ele>1247.93</ele>
        <time>2011-05-15T13:23:54Z</time>
      </trkpt>
      <trkpt lat="45.47585" lon="5.86293">
        <ele>1249.85</ele>
        <time>2011-05-15T13:24:07Z</time>
      </trkpt>
      <trkpt lat="45.47615" lon="5.86318">
        <ele>1251.77</ele>
        <time>2011-05-15T13:24:24Z</time>
      </trkpt>
      <trkpt lat="45.47643" lon="5.86334">
        <ele>1252.74</ele>
        <time>2011-05-15T13:24:38Z</time>
      </trkpt>
      <trkpt lat="45.47672" lon="5.86342">
        <ele>1254.66</ele>
        <time>2011-05-15T13:24:51Z</time>
      </trkpt>
      <trkpt lat="45.47702" lon="5.86347">
        <ele>1257.06</ele>
        <time>2011-05-15T13:25:07Z</time>
      </trkpt>
      <trkpt lat="45.47724" lon="5.86345">
        <ele>1258.5</ele>
        <time>2011-05-15T13:25:20Z</time>
      </trkpt>
      <trkpt lat="45.47751" lon="5.86338">
        <ele>1259.46</ele>
        <time>2011-05-15T13:25:33Z</time>
      </trkpt>
      <trkpt lat="45.47773" lon="5.86328">
        <ele>1260.91</ele>
        <time>2011-05-15T13:25:45Z</time>
      </trkpt>
      <trkpt lat="45.47787" lon="5.86329">
        <ele>1262.35</ele>
        <time>2011-05-15T13:25:57Z</time>
      </trkpt>
      <trkpt lat="45.47797" lon="5.86331">
        <ele>1263.79</ele>
        <time>2011-05-15T13:26:05Z</time>
      </trkpt>
      <trkpt lat="45.47824" lon="5.86341">
        <ele>1265.23</ele>
        <time>2011-05-15T13:26:18Z</time>
      </trkpt>
      <trkpt lat="45.47829" lon="5.86344">
        <ele>1266.19</ele>
        <time>2011-05-15T13:26:21Z</time>
      </trkpt>
      <trkpt lat="45.47842" lon="5.86356">
        <ele>1268.6</ele>
        <time>2011-05-15T13:26:34Z</time>
      </trkpt>
      <trkpt lat="45.47852" lon="5.86358">
        <ele>1269.08</ele>
        <time>2011-05-15T13:26:41Z</time>
      </trkpt>
      <trkpt lat="45.47856" lon="5.8636">
        <ele>1270.04</ele>
        <time>2011-05-15T13:26:45Z</time>
      </trkpt>
      <trkpt lat="45.47862" lon="5.86363">
        <ele>1270.04</ele>
        <time>2011-05-15T13:26:50Z</time>
      </trkpt>
      <trkpt lat="45.47863" lon="5.86365">
        <ele>1270.52</ele>
        <time>2011-05-15T13:26:52Z</time>
      </trkpt>
      <trkpt lat="45.47866" lon="5.86369">
        <ele>1271</ele>
        <time>2011-05-15T13:26:56Z</time>
      </trkpt>
      <trkpt lat="45.47866" lon="5.8637">
        <ele>1271.48</ele>
        <time>2011-05-15T13:26:57Z</time>
      </trkpt>
      <trkpt lat="45.4787" lon="5.86372">
        <ele>1271.96</ele>
        <time>2011-05-15T13:27:03Z</time>
      </trkpt>
      <trkpt lat="45.47884" lon="5.86385">
        <ele>1273.4</ele>
        <time>2011-05-15T13:27:17Z</time>
      </trkpt>
      <trkpt lat="45.47897" lon="5.864">
        <ele>1275.33</ele>
        <time>2011-05-15T13:27:31Z</time>
      </trkpt>
      <trkpt lat="45.47912" lon="5.86419">
        <ele>1276.77</ele>
        <time>2011-05-15T13:27:47Z</time>
      </trkpt>
      <trkpt lat="45.47931" lon="5.86433">
        <ele>1279.17</ele>
        <time>2011-05-15T13:28:02Z</time>
      </trkpt>
      <trkpt lat="45.47936" lon="5.86437">
        <ele>1280.61</ele>
        <time>2011-05-15T13:28:08Z</time>
      </trkpt>
      <trkpt lat="45.47955" lon="5.86447">
        <ele>1282.06</ele>
        <time>2011-05-15T13:28:23Z</time>
      </trkpt>
      <trkpt lat="45.47969" lon="5.86454">
        <ele>1283.98</ele>
        <time>2011-05-15T13:28:36Z</time>
      </trkpt>
      <trkpt lat="45.47972" lon="5.86455">
        <ele>1283.98</ele>
        <time>2011-05-15T13:28:40Z</time>
      </trkpt>
      <trkpt lat="45.47987" lon="5.86463">
        <ele>1286.38</ele>
        <time>2011-05-15T13:28:54Z</time>
      </trkpt>
      <trkpt lat="45.47996" lon="5.86467">
        <ele>1287.34</ele>
        <time>2011-05-15T13:29:02Z</time>
      </trkpt>
      <trkpt lat="45.48012" lon="5.86478">
        <ele>1289.27</ele>
        <time>2011-05-15T13:29:14Z</time>
      </trkpt>
      <trkpt lat="45.48027" lon="5.86482">
        <ele>1290.71</ele>
        <time>2011-05-15T13:29:27Z</time>
      </trkpt>
      <trkpt lat="45.48046" lon="5.86484">
        <ele>1292.15</ele>
        <time>2011-05-15T13:29:41Z</time>
      </trkpt>
      <trkpt lat="45.48087" lon="5.86505">
        <ele>1293.59</ele>
        <time>2011-05-15T13:29:53Z</time>
      </trkpt>
      <trkpt lat="45.48096" lon="5.86509">
        <ele>1294.55</ele>
        <time>2011-05-15T13:29:58Z</time>
      </trkpt>
      <trkpt lat="45.48111" lon="5.86524">
        <ele>1295.51</ele>
        <time>2011-05-15T13:30:12Z</time>
      </trkpt>
      <trkpt lat="45.48112" lon="5.86527">
        <ele>1295.03</ele>
        <time>2011-05-15T13:30:43Z</time>
      </trkpt>
      <trkpt lat="45.48117" lon="5.86526">
        <ele>1295.51</ele>
        <time>2011-05-15T13:31:03Z</time>
      </trkpt>
      <trkpt lat="45.48117" lon="5.86527">
        <ele>1295.99</ele>
        <time>2011-05-15T13:31:04Z</time>
      </trkpt>
      <trkpt lat="45.48118" lon="5.86529">
        <ele>1295.51</ele>
        <time>2011-05-15T13:31:05Z</time>
      </trkpt>
      <trkpt lat="45.4812" lon="5.8653">
        <ele>1295.99</ele>
        <time>2011-05-15T13:31:07Z</time>
      </trkpt>
      <trkpt lat="45.48121" lon="5.86531">
        <ele>1296.48</ele>
        <time>2011-05-15T13:31:08Z</time>
      </trkpt>
      <trkpt lat="45.48122" lon="5.86531">
        <ele>1296.48</ele>
        <time>2011-05-15T13:31:09Z</time>
      </trkpt>
      <trkpt lat="45.48124" lon="5.86532">
        <ele>1296.96</ele>
        <time>2011-05-15T13:31:10Z</time>
      </trkpt>
      <trkpt lat="45.48125" lon="5.86534">
        <ele>1297.44</ele>
        <time>2011-05-15T13:31:11Z</time>
      </trkpt>
      <trkpt lat="45.48127" lon="5.86535">
        <ele>1298.4</ele>
        <time>2011-05-15T13:31:12Z</time>
      </trkpt>
      <trkpt lat="45.48129" lon="5.86535">
        <ele>1297.92</ele>
        <time>2011-05-15T13:31:13Z</time>
      </trkpt>
      <trkpt lat="45.4813" lon="5.86536">
        <ele>1297.92</ele>
        <time>2011-05-15T13:31:14Z</time>
      </trkpt>
      <trkpt lat="45.48132" lon="5.86537">
        <ele>1298.4</ele>
        <time>2011-05-15T13:31:15Z</time>
      </trkpt>
      <trkpt lat="45.48133" lon="5.86539">
        <ele>1298.4</ele>
        <time>2011-05-15T13:31:16Z</time>
      </trkpt>
      <trkpt lat="45.48135" lon="5.8654">
        <ele>1298.88</ele>
        <time>2011-05-15T13:31:17Z</time>
      </trkpt>
      <trkpt lat="45.48136" lon="5.86542">
        <ele>1298.88</ele>
        <time>2011-05-15T13:31:18Z</time>
      </trkpt>
      <trkpt lat="45.48137" lon="5.86543">
        <ele>1298.4</ele>
        <time>2011-05-15T13:31:19Z</time>
      </trkpt>
      <trkpt lat="45.48138" lon="5.86544">
        <ele>1298.4</ele>
        <time>2011-05-15T13:31:20Z</time>
      </trkpt>
      <trkpt lat="45.4814" lon="5.86545">
        <ele>1299.36</ele>
        <time>2011-05-15T13:31:21Z</time>
      </trkpt>
      <trkpt lat="45.48141" lon="5.86547">
        <ele>1299.36</ele>
        <time>2011-05-15T13:31:22Z</time>
      </trkpt>
      <trkpt lat="45.48161" lon="5.86562">
        <ele>1301.76</ele>
        <time>2011-05-15T13:31:36Z</time>
      </trkpt>
      <trkpt lat="45.48179" lon="5.86576">
        <ele>1303.69</ele>
        <time>2011-05-15T13:31:49Z</time>
      </trkpt>
      <trkpt lat="45.4818" lon="5.86577">
        <ele>1303.69</ele>
        <time>2011-05-15T13:31:50Z</time>
      </trkpt>
      <trkpt lat="45.48197" lon="5.8659">
        <ele>1306.57</ele>
        <time>2011-05-15T13:32:02Z</time>
      </trkpt>
      <trkpt lat="45.48218" lon="5.86605">
        <ele>1308.97</ele>
        <time>2011-05-15T13:32:17Z</time>
      </trkpt>
      <trkpt lat="45.48239" lon="5.86622">
        <ele>1311.86</ele>
        <time>2011-05-15T13:32:32Z</time>
      </trkpt>
      <trkpt lat="45.48261" lon="5.86643">
        <ele>1312.34</ele>
        <time>2011-05-15T13:32:48Z</time>
      </trkpt>
      <trkpt lat="45.48281" lon="5.86657">
        <ele>1315.22</ele>
        <time>2011-05-15T13:33:02Z</time>
      </trkpt>
      <trkpt lat="45.483" lon="5.86671">
        <ele>1316.66</ele>
        <time>2011-05-15T13:33:15Z</time>
      </trkpt>
      <trkpt lat="45.48317" lon="5.86687">
        <ele>1317.62</ele>
        <time>2011-05-15T13:33:28Z</time>
      </trkpt>
      <trkpt lat="45.48327" lon="5.867">
        <ele>1319.55</ele>
        <time>2011-05-15T13:33:38Z</time>
      </trkpt>
      <trkpt lat="45.48329" lon="5.86701">
        <ele>1319.07</ele>
        <time>2011-05-15T13:33:39Z</time>
      </trkpt>
      <trkpt lat="45.4833" lon="5.86702">
        <ele>1320.03</ele>
        <time>2011-05-15T13:33:40Z</time>
      </trkpt>
      <trkpt lat="45.48332" lon="5.86703">
        <ele>1320.03</ele>
        <time>2011-05-15T13:33:41Z</time>
      </trkpt>
      <trkpt lat="45.48333" lon="5.86705">
        <ele>1320.51</ele>
        <time>2011-05-15T13:33:42Z</time>
      </trkpt>
      <trkpt lat="45.48355" lon="5.86726">
        <ele>1321.47</ele>
        <time>2011-05-15T13:33:55Z</time>
      </trkpt>
      <trkpt lat="45.48371" lon="5.86749">
        <ele>1323.87</ele>
        <time>2011-05-15T13:34:08Z</time>
      </trkpt>
      <trkpt lat="45.48379" lon="5.86774">
        <ele>1325.31</ele>
        <time>2011-05-15T13:34:21Z</time>
      </trkpt>
      <trkpt lat="45.4838" lon="5.86776">
        <ele>1325.31</ele>
        <time>2011-05-15T13:34:39Z</time>
      </trkpt>
      <trkpt lat="45.4838" lon="5.86776">
        <ele>1324.83</ele>
        <time>2011-05-15T13:35:09Z</time>
      </trkpt>
      <trkpt lat="45.4838" lon="5.86776">
        <ele>1325.31</ele>
        <time>2011-05-15T13:35:35Z</time>
      </trkpt>
      <trkpt lat="45.48379" lon="5.86775">
        <ele>1324.83</ele>
        <time>2011-05-15T13:36:06Z</time>
      </trkpt>
      <trkpt lat="45.48379" lon="5.86776">
        <ele>1324.35</ele>
        <time>2011-05-15T13:36:35Z</time>
      </trkpt>
      <trkpt lat="45.4838" lon="5.86776">
        <ele>1323.39</ele>
        <time>2011-05-15T13:37:04Z</time>
      </trkpt>
      <trkpt lat="45.4838" lon="5.86776">
        <ele>1323.39</ele>
        <time>2011-05-15T13:37:32Z</time>
      </trkpt>
      <trkpt lat="45.4838" lon="5.86776">
        <ele>1321.47</ele>
        <time>2011-05-15T13:38:03Z</time>
      </trkpt>
      <trkpt lat="45.48379" lon="5.86776">
        <ele>1320.51</ele>
        <time>2011-05-15T13:38:31Z</time>
      </trkpt>
      <trkpt lat="45.48379" lon="5.86776">
        <ele>1322.43</ele>
        <time>2011-05-15T13:38:57Z</time>
      </trkpt>
      <trkpt lat="45.48379" lon="5.86776">
        <ele>1322.91</ele>
        <time>2011-05-15T13:39:26Z</time>
      </trkpt>
      <trkpt lat="45.48379" lon="5.86776">
        <ele>1322.91</ele>
        <time>2011-05-15T13:39:27Z</time>
      </trkpt>
      <trkpt lat="45.48379" lon="5.86776">
        <ele>1321.47</ele>
        <time>2011-05-15T13:39:55Z</time>
      </trkpt>
      <trkpt lat="45.4838" lon="5.86779">
        <ele>1318.59</ele>
        <time>2011-05-15T13:40:16Z</time>
      </trkpt>
      <trkpt lat="45.48385" lon="5.86787">
        <ele>1314.74</ele>
        <time>2011-05-15T13:40:19Z</time>
      </trkpt>
      <trkpt lat="45.48394" lon="5.86794">
        <ele>1311.86</ele>
        <time>2011-05-15T13:40:22Z</time>
      </trkpt>
      <trkpt lat="45.48397" lon="5.86795">
        <ele>1311.38</ele>
        <time>2011-05-15T13:40:23Z</time>
      </trkpt>
      <trkpt lat="45.48401" lon="5.86794">
        <ele>1311.38</ele>
        <time>2011-05-15T13:40:24Z</time>
      </trkpt>
      <trkpt lat="45.48405" lon="5.86793">
        <ele>1310.9</ele>
        <time>2011-05-15T13:40:25Z</time>
      </trkpt>
      <trkpt lat="45.4841" lon="5.86791">
        <ele>1310.41</ele>
        <time>2011-05-15T13:40:26Z</time>
      </trkpt>
      <trkpt lat="45.48414" lon="5.86789">
        <ele>1309.45</ele>
        <time>2011-05-15T13:40:27Z</time>
      </trkpt>
      <trkpt lat="45.48418" lon="5.86788">
        <ele>1308.97</ele>
        <time>2011-05-15T13:40:28Z</time>
      </trkpt>
      <trkpt lat="45.48423" lon="5.86788">
        <ele>1308.49</ele>
        <time>2011-05-15T13:40:29Z</time>
      </trkpt>
      <trkpt lat="45.48442" lon="5.86796">
        <ele>1305.13</ele>
        <time>2011-05-15T13:40:33Z</time>
      </trkpt>
      <trkpt lat="45.48475" lon="5.86803">
        <ele>1301.76</ele>
        <time>2011-05-15T13:40:39Z</time>
      </trkpt>
      <trkpt lat="45.48498" lon="5.86824">
        <ele>1298.4</ele>
        <time>2011-05-15T13:40:44Z</time>
      </trkpt>
      <trkpt lat="45.48506" lon="5.86833">
        <ele>1296.96</ele>
        <time>2011-05-15T13:40:46Z</time>
      </trkpt>
      <trkpt lat="45.48523" lon="5.86846">
        <ele>1293.11</ele>
        <time>2011-05-15T13:40:51Z</time>
      </trkpt>
      <trkpt lat="45.48525" lon="5.86848">
        <ele>1292.63</ele>
        <time>2011-05-15T13:40:52Z</time>
      </trkpt>
      <trkpt lat="45.48526" lon="5.86871">
        <ele>1289.27</ele>
        <time>2011-05-15T13:40:56Z</time>
      </trkpt>
      <trkpt lat="45.4853" lon="5.86893">
        <ele>1285.42</ele>
        <time>2011-05-15T13:41:01Z</time>
      </trkpt>
      <trkpt lat="45.48532" lon="5.869">
        <ele>1283.98</ele>
        <time>2011-05-15T13:41:04Z</time>
      </trkpt>
      <trkpt lat="45.48536" lon="5.8691">
        <ele>1280.61</ele>
        <time>2011-05-15T13:41:08Z</time>
      </trkpt>
      <trkpt lat="45.48538" lon="5.86915">
        <ele>1279.17</ele>
        <time>2011-05-15T13:41:10Z</time>
      </trkpt>
      <trkpt lat="45.48542" lon="5.86926">
        <ele>1276.29</ele>
        <time>2011-05-15T13:41:14Z</time>
      </trkpt>
      <trkpt lat="45.48559" lon="5.86939">
        <ele>1272.92</ele>
        <time>2011-05-15T13:41:18Z</time>
      </trkpt>
      <trkpt lat="45.4857" lon="5.86951">
        <ele>1270.04</ele>
        <time>2011-05-15T13:41:21Z</time>
      </trkpt>
      <trkpt lat="45.48582" lon="5.86967">
        <ele>1266.67</ele>
        <time>2011-05-15T13:41:26Z</time>
      </trkpt>
      <trkpt lat="45.48593" lon="5.86979">
        <ele>1262.83</ele>
        <time>2011-05-15T13:41:30Z</time>
      </trkpt>
      <trkpt lat="45.48603" lon="5.86992">
        <ele>1259.46</ele>
        <time>2011-05-15T13:41:34Z</time>
      </trkpt>
      <trkpt lat="45.48609" lon="5.87">
        <ele>1257.54</ele>
        <time>2011-05-15T13:41:36Z</time>
      </trkpt>
      <trkpt lat="45.48616" lon="5.87006">
        <ele>1256.1</ele>
        <time>2011-05-15T13:41:38Z</time>
      </trkpt>
      <trkpt lat="45.48638" lon="5.87029">
        <ele>1253.22</ele>
        <time>2011-05-15T13:41:44Z</time>
      </trkpt>
      <trkpt lat="45.48644" lon="5.87037">
        <ele>1251.77</ele>
        <time>2011-05-15T13:41:46Z</time>
      </trkpt>
      <trkpt lat="45.48655" lon="5.87056">
        <ele>1249.85</ele>
        <time>2011-05-15T13:41:50Z</time>
      </trkpt>
      <trkpt lat="45.48657" lon="5.87061">
        <ele>1249.85</ele>
        <time>2011-05-15T13:41:51Z</time>
      </trkpt>
      <trkpt lat="45.48661" lon="5.87066">
        <ele>1249.37</ele>
        <time>2011-05-15T13:41:52Z</time>
      </trkpt>
      <trkpt lat="45.48668" lon="5.87077">
        <ele>1248.41</ele>
        <time>2011-05-15T13:41:54Z</time>
      </trkpt>
      <trkpt lat="45.48671" lon="5.87083">
        <ele>1247.93</ele>
        <time>2011-05-15T13:41:55Z</time>
      </trkpt>
      <trkpt lat="45.48701" lon="5.87127">
        <ele>1245.53</ele>
        <time>2011-05-15T13:42:04Z</time>
      </trkpt>
      <trkpt lat="45.48704" lon="5.87131">
        <ele>1245.04</ele>
        <time>2011-05-15T13:42:05Z</time>
      </trkpt>
      <trkpt lat="45.48712" lon="5.87139">
        <ele>1244.08</ele>
        <time>2011-05-15T13:42:07Z</time>
      </trkpt>
      <trkpt lat="45.48716" lon="5.87144">
        <ele>1243.12</ele>
        <time>2011-05-15T13:42:08Z</time>
      </trkpt>
      <trkpt lat="45.48719" lon="5.87148">
        <ele>1242.64</ele>
        <time>2011-05-15T13:42:09Z</time>
      </trkpt>
      <trkpt lat="45.48725" lon="5.87156">
        <ele>1241.68</ele>
        <time>2011-05-15T13:42:11Z</time>
      </trkpt>
      <trkpt lat="45.48735" lon="5.87164">
        <ele>1242.64</ele>
        <time>2011-05-15T13:42:13Z</time>
      </trkpt>
      <trkpt lat="45.48742" lon="5.87167">
        <ele>1242.16</ele>
        <time>2011-05-15T13:42:14Z</time>
      </trkpt>
      <trkpt lat="45.48749" lon="5.87169">
        <ele>1240.24</ele>
        <time>2011-05-15T13:42:15Z</time>
      </trkpt>
      <trkpt lat="45.48756" lon="5.87172">
        <ele>1239.76</ele>
        <time>2011-05-15T13:42:16Z</time>
      </trkpt>
      <trkpt lat="45.48761" lon="5.87175">
        <ele>1239.28</ele>
        <time>2011-05-15T13:42:17Z</time>
      </trkpt>
      <trkpt lat="45.48767" lon="5.87179">
        <ele>1238.8</ele>
        <time>2011-05-15T13:42:18Z</time>
      </trkpt>
      <trkpt lat="45.48772" lon="5.87184">
        <ele>1238.32</ele>
        <time>2011-05-15T13:42:19Z</time>
      </trkpt>
      <trkpt lat="45.48781" lon="5.87194">
        <ele>1237.35</ele>
        <time>2011-05-15T13:42:21Z</time>
      </trkpt>
      <trkpt lat="45.48785" lon="5.87198">
        <ele>1235.91</ele>
        <time>2011-05-15T13:42:22Z</time>
      </trkpt>
      <trkpt lat="45.48788" lon="5.87201">
        <ele>1235.91</ele>
        <time>2011-05-15T13:42:23Z</time>
      </trkpt>
      <trkpt lat="45.48804" lon="5.87214">
        <ele>1233.03</ele>
        <time>2011-05-15T13:42:28Z</time>
      </trkpt>
      <trkpt lat="45.48814" lon="5.87215">
        <ele>1233.03</ele>
        <time>2011-05-15T13:42:30Z</time>
      </trkpt>
      <trkpt lat="45.48818" lon="5.87218">
        <ele>1232.55</ele>
        <time>2011-05-15T13:42:31Z</time>
      </trkpt>
      <trkpt lat="45.48828" lon="5.87226">
        <ele>1232.07</ele>
        <time>2011-05-15T13:42:33Z</time>
      </trkpt>
      <trkpt lat="45.48837" lon="5.87235">
        <ele>1231.59</ele>
        <time>2011-05-15T13:42:35Z</time>
      </trkpt>
      <trkpt lat="45.48842" lon="5.87238">
        <ele>1231.59</ele>
        <time>2011-05-15T13:42:36Z</time>
      </trkpt>
      <trkpt lat="45.48847" lon="5.87241">
        <ele>1231.11</ele>
        <time>2011-05-15T13:42:37Z</time>
      </trkpt>
      <trkpt lat="45.48853" lon="5.87243">
        <ele>1231.11</ele>
        <time>2011-05-15T13:42:38Z</time>
      </trkpt>
      <trkpt lat="45.48858" lon="5.87246">
        <ele>1231.59</ele>
        <time>2011-05-15T13:42:39Z</time>
      </trkpt>
      <trkpt lat="45.48864" lon="5.87247">
        <ele>1231.11</ele>
        <time>2011-05-15T13:42:40Z</time>
      </trkpt>
      <trkpt lat="45.48883" lon="5.87254">
        <ele>1230.62</ele>
        <time>2011-05-15T13:42:43Z</time>
      </trkpt>
      <trkpt lat="45.48889" lon="5.87258">
        <ele>1229.66</ele>
        <time>2011-05-15T13:42:44Z</time>
      </trkpt>
      <trkpt lat="45.48895" lon="5.87262">
        <ele>1230.14</ele>
        <time>2011-05-15T13:42:45Z</time>
      </trkpt>
      <trkpt lat="45.48902" lon="5.87265">
        <ele>1229.18</ele>
        <time>2011-05-15T13:42:46Z</time>
      </trkpt>
      <trkpt lat="45.48908" lon="5.87267">
        <ele>1228.7</ele>
        <time>2011-05-15T13:42:47Z</time>
      </trkpt>
      <trkpt lat="45.4892" lon="5.87269">
        <ele>1228.22</ele>
        <time>2011-05-15T13:42:49Z</time>
      </trkpt>
      <trkpt lat="45.48945" lon="5.87268">
        <ele>1227.26</ele>
        <time>2011-05-15T13:42:53Z</time>
      </trkpt>
      <trkpt lat="45.48949" lon="5.87267">
        <ele>1226.3</ele>
        <time>2011-05-15T13:42:54Z</time>
      </trkpt>
      <trkpt lat="45.48958" lon="5.87265">
        <ele>1224.38</ele>
        <time>2011-05-15T13:42:56Z</time>
      </trkpt>
      <trkpt lat="45.48978" lon="5.87264">
        <ele>1221.49</ele>
        <time>2011-05-15T13:43:01Z</time>
      </trkpt>
      <trkpt lat="45.49" lon="5.8726">
        <ele>1220.05</ele>
        <time>2011-05-15T13:43:05Z</time>
      </trkpt>
      <trkpt lat="45.49007" lon="5.8726">
        <ele>1220.05</ele>
        <time>2011-05-15T13:43:06Z</time>
      </trkpt>
      <trkpt lat="45.4902" lon="5.87263">
        <ele>1219.57</ele>
        <time>2011-05-15T13:43:08Z</time>
      </trkpt>
      <trkpt lat="45.49026" lon="5.87264">
        <ele>1220.05</ele>
        <time>2011-05-15T13:43:09Z</time>
      </trkpt>
      <trkpt lat="45.49032" lon="5.87266">
        <ele>1220.05</ele>
        <time>2011-05-15T13:43:10Z</time>
      </trkpt>
      <trkpt lat="45.49039" lon="5.87268">
        <ele>1219.57</ele>
        <time>2011-05-15T13:43:11Z</time>
      </trkpt>
      <trkpt lat="45.49046" lon="5.87268">
        <ele>1219.09</ele>
        <time>2011-05-15T13:43:12Z</time>
      </trkpt>
      <trkpt lat="45.49053" lon="5.87268">
        <ele>1218.61</ele>
        <time>2011-05-15T13:43:13Z</time>
      </trkpt>
      <trkpt lat="45.4908" lon="5.87264">
        <ele>1219.09</ele>
        <time>2011-05-15T13:43:17Z</time>
      </trkpt>
      <trkpt lat="45.49085" lon="5.87262">
        <ele>1219.09</ele>
        <time>2011-05-15T13:43:18Z</time>
      </trkpt>
      <trkpt lat="45.49104" lon="5.8726">
        <ele>1218.13</ele>
        <time>2011-05-15T13:43:22Z</time>
      </trkpt>
      <trkpt lat="45.49146" lon="5.87264">
        <ele>1217.65</ele>
        <time>2011-05-15T13:43:32Z</time>
      </trkpt>
      <trkpt lat="45.49182" lon="5.87263">
        <ele>1215.72</ele>
        <time>2011-05-15T13:43:41Z</time>
      </trkpt>
      <trkpt lat="45.49197" lon="5.87268">
        <ele>1212.84</ele>
        <time>2011-05-15T13:43:49Z</time>
      </trkpt>
      <trkpt lat="45.492" lon="5.87269">
        <ele>1211.4</ele>
        <time>2011-05-15T13:43:51Z</time>
      </trkpt>
      <trkpt lat="45.49209" lon="5.87267">
        <ele>1209.48</ele>
        <time>2011-05-15T13:43:56Z</time>
      </trkpt>
      <trkpt lat="45.49215" lon="5.87265">
        <ele>1208.03</ele>
        <time>2011-05-15T13:43:59Z</time>
      </trkpt>
      <trkpt lat="45.49218" lon="5.87263">
        <ele>1206.11</ele>
        <time>2011-05-15T13:44:02Z</time>
      </trkpt>
      <trkpt lat="45.4922" lon="5.87263">
        <ele>1206.11</ele>
        <time>2011-05-15T13:44:03Z</time>
      </trkpt>
      <trkpt lat="45.49222" lon="5.87263">
        <ele>1206.11</ele>
        <time>2011-05-15T13:44:04Z</time>
      </trkpt>
      <trkpt lat="45.49225" lon="5.87263">
        <ele>1205.63</ele>
        <time>2011-05-15T13:44:05Z</time>
      </trkpt>
      <trkpt lat="45.49226" lon="5.87263">
        <ele>1206.11</ele>
        <time>2011-05-15T13:44:06Z</time>
      </trkpt>
      <trkpt lat="45.49229" lon="5.87263">
        <ele>1205.63</ele>
        <time>2011-05-15T13:44:07Z</time>
      </trkpt>
      <trkpt lat="45.49237" lon="5.8726">
        <ele>1203.71</ele>
        <time>2011-05-15T13:44:10Z</time>
      </trkpt>
      <trkpt lat="45.49242" lon="5.8726">
        <ele>1202.27</ele>
        <time>2011-05-15T13:44:12Z</time>
      </trkpt>
      <trkpt lat="45.49249" lon="5.8726">
        <ele>1200.82</ele>
        <time>2011-05-15T13:44:17Z</time>
      </trkpt>
      <trkpt lat="45.49259" lon="5.87261">
        <ele>1198.42</ele>
        <time>2011-05-15T13:44:24Z</time>
      </trkpt>
      <trkpt lat="45.49264" lon="5.87262">
        <ele>1197.94</ele>
        <time>2011-05-15T13:44:26Z</time>
      </trkpt>
      <trkpt lat="45.49267" lon="5.87267">
        <ele>1194.09</ele>
        <time>2011-05-15T13:44:34Z</time>
      </trkpt>
      <trkpt lat="45.49268" lon="5.87267">
        <ele>1191.21</ele>
        <time>2011-05-15T13:44:41Z</time>
      </trkpt>
      <trkpt lat="45.49272" lon="5.87264">
        <ele>1189.29</ele>
        <time>2011-05-15T13:44:45Z</time>
      </trkpt>
      <trkpt lat="45.49276" lon="5.87261">
        <ele>1186.88</ele>
        <time>2011-05-15T13:44:49Z</time>
      </trkpt>
      <trkpt lat="45.49278" lon="5.87258">
        <ele>1185.92</ele>
        <time>2011-05-15T13:44:51Z</time>
      </trkpt>
      <trkpt lat="45.49283" lon="5.87254">
        <ele>1183.04</ele>
        <time>2011-05-15T13:44:55Z</time>
      </trkpt>
      <trkpt lat="45.49286" lon="5.87251">
        <ele>1182.56</ele>
        <time>2011-05-15T13:44:56Z</time>
      </trkpt>
      <trkpt lat="45.49291" lon="5.87242">
        <ele>1179.67</ele>
        <time>2011-05-15T13:44:59Z</time>
      </trkpt>
      <trkpt lat="45.49354" lon="5.87206">
        <ele>1177.27</ele>
        <time>2011-05-15T13:45:03Z</time>
      </trkpt>
      <trkpt lat="45.49367" lon="5.87201">
        <ele>1175.35</ele>
        <time>2011-05-15T13:45:07Z</time>
      </trkpt>
      <trkpt lat="45.49382" lon="5.87198">
        <ele>1172.47</ele>
        <time>2011-05-15T13:45:14Z</time>
      </trkpt>
      <trkpt lat="45.49383" lon="5.87197">
        <ele>1171.98</ele>
        <time>2011-05-15T13:45:15Z</time>
      </trkpt>
      <trkpt lat="45.49385" lon="5.87195">
        <ele>1170.54</ele>
        <time>2011-05-15T13:45:17Z</time>
      </trkpt>
      <trkpt lat="45.494" lon="5.8719">
        <ele>1167.66</ele>
        <time>2011-05-15T13:45:23Z</time>
      </trkpt>
      <trkpt lat="45.49416" lon="5.87189">
        <ele>1164.77</ele>
        <time>2011-05-15T13:45:29Z</time>
      </trkpt>
      <trkpt lat="45.49429" lon="5.8719">
        <ele>1161.89</ele>
        <time>2011-05-15T13:45:35Z</time>
      </trkpt>
      <trkpt lat="45.49435" lon="5.87198">
        <ele>1159.97</ele>
        <time>2011-05-15T13:45:39Z</time>
      </trkpt>
      <trkpt lat="45.49439" lon="5.87199">
        <ele>1159.49</ele>
        <time>2011-05-15T13:45:40Z</time>
      </trkpt>
      <trkpt lat="45.49453" lon="5.87197">
        <ele>1155.64</ele>
        <time>2011-05-15T13:45:44Z</time>
      </trkpt>
      <trkpt lat="45.49456" lon="5.87195">
        <ele>1155.64</ele>
        <time>2011-05-15T13:45:45Z</time>
      </trkpt>
      <trkpt lat="45.49466" lon="5.87194">
        <ele>1153.72</ele>
        <time>2011-05-15T13:45:49Z</time>
      </trkpt>
      <trkpt lat="45.49468" lon="5.87195">
        <ele>1153.72</ele>
        <time>2011-05-15T13:45:50Z</time>
      </trkpt>
      <trkpt lat="45.49471" lon="5.87195">
        <ele>1153.72</ele>
        <time>2011-05-15T13:45:51Z</time>
      </trkpt>
      <trkpt lat="45.49482" lon="5.87196">
        <ele>1151.8</ele>
        <time>2011-05-15T13:45:56Z</time>
      </trkpt>
      <trkpt lat="45.49484" lon="5.87196">
        <ele>1151.32</ele>
        <time>2011-05-15T13:45:57Z</time>
      </trkpt>
      <trkpt lat="45.49489" lon="5.87195">
        <ele>1149.39</ele>
        <time>2011-05-15T13:46:01Z</time>
      </trkpt>
      <trkpt lat="45.49498" lon="5.87194">
        <ele>1147.47</ele>
        <time>2011-05-15T13:46:04Z</time>
      </trkpt>
      <trkpt lat="45.49501" lon="5.87194">
        <ele>1147.47</ele>
        <time>2011-05-15T13:46:05Z</time>
      </trkpt>
      <trkpt lat="45.49506" lon="5.87194">
        <ele>1146.99</ele>
        <time>2011-05-15T13:46:06Z</time>
      </trkpt>
      <trkpt lat="45.49519" lon="5.87199">
        <ele>1143.14</ele>
        <time>2011-05-15T13:46:10Z</time>
      </trkpt>
      <trkpt lat="45.49543" lon="5.87203">
        <ele>1140.26</ele>
        <time>2011-05-15T13:46:15Z</time>
      </trkpt>
      <trkpt lat="45.49551" lon="5.87206">
        <ele>1138.82</ele>
        <time>2011-05-15T13:46:17Z</time>
      </trkpt>
      <trkpt lat="45.49569" lon="5.87216">
        <ele>1135.45</ele>
        <time>2011-05-15T13:46:21Z</time>
      </trkpt>
      <trkpt lat="45.49578" lon="5.87219">
        <ele>1134.49</ele>
        <time>2011-05-15T13:46:23Z</time>
      </trkpt>
      <trkpt lat="45.49592" lon="5.8722">
        <ele>1132.57</ele>
        <time>2011-05-15T13:46:26Z</time>
      </trkpt>
      <trkpt lat="45.49613" lon="5.87222">
        <ele>1130.17</ele>
        <time>2011-05-15T13:46:32Z</time>
      </trkpt>
      <trkpt lat="45.49629" lon="5.87223">
        <ele>1127.28</ele>
        <time>2011-05-15T13:46:37Z</time>
      </trkpt>
      <trkpt lat="45.49652" lon="5.87218">
        <ele>1123.92</ele>
        <time>2011-05-15T13:46:43Z</time>
      </trkpt>
      <trkpt lat="45.49665" lon="5.87222">
        <ele>1122.48</ele>
        <time>2011-05-15T13:46:47Z</time>
      </trkpt>
      <trkpt lat="45.49667" lon="5.87223">
        <ele>1122.48</ele>
        <time>2011-05-15T13:46:48Z</time>
      </trkpt>
      <trkpt lat="45.49671" lon="5.87223">
        <ele>1122</ele>
        <time>2011-05-15T13:46:49Z</time>
      </trkpt>
      <trkpt lat="45.49675" lon="5.87223">
        <ele>1122</ele>
        <time>2011-05-15T13:46:50Z</time>
      </trkpt>
      <trkpt lat="45.49678" lon="5.87224">
        <ele>1121.52</ele>
        <time>2011-05-15T13:46:51Z</time>
      </trkpt>
      <trkpt lat="45.49682" lon="5.87225">
        <ele>1121.52</ele>
        <time>2011-05-15T13:46:52Z</time>
      </trkpt>
      <trkpt lat="45.49685" lon="5.87226">
        <ele>1121.03</ele>
        <time>2011-05-15T13:46:53Z</time>
      </trkpt>
      <trkpt lat="45.49709" lon="5.8725">
        <ele>1117.67</ele>
        <time>2011-05-15T13:47:05Z</time>
      </trkpt>
      <trkpt lat="45.49717" lon="5.87254">
        <ele>1116.71</ele>
        <time>2011-05-15T13:47:09Z</time>
      </trkpt>
      <trkpt lat="45.4972" lon="5.87256">
        <ele>1116.71</ele>
        <time>2011-05-15T13:47:10Z</time>
      </trkpt>
      <trkpt lat="45.49722" lon="5.87258">
        <ele>1116.23</ele>
        <time>2011-05-15T13:47:11Z</time>
      </trkpt>
      <trkpt lat="45.49731" lon="5.87266">
        <ele>1113.34</ele>
        <time>2011-05-15T13:47:15Z</time>
      </trkpt>
      <trkpt lat="45.49733" lon="5.87269">
        <ele>1112.86</ele>
        <time>2011-05-15T13:47:16Z</time>
      </trkpt>
      <trkpt lat="45.49741" lon="5.87277">
        <ele>1111.42</ele>
        <time>2011-05-15T13:47:20Z</time>
      </trkpt>
      <trkpt lat="45.49751" lon="5.87282">
        <ele>1109.02</ele>
        <time>2011-05-15T13:47:25Z</time>
      </trkpt>
      <trkpt lat="45.49759" lon="5.87286">
        <ele>1107.1</ele>
        <time>2011-05-15T13:47:28Z</time>
      </trkpt>
      <trkpt lat="45.49769" lon="5.87291">
        <ele>1106.61</ele>
        <time>2011-05-15T13:47:41Z</time>
      </trkpt>
      <trkpt lat="45.49768" lon="5.873">
        <ele>1102.77</ele>
        <time>2011-05-15T13:47:57Z</time>
      </trkpt>
      <trkpt lat="45.49768" lon="5.87303">
        <ele>1102.77</ele>
        <time>2011-05-15T13:47:58Z</time>
      </trkpt>
      <trkpt lat="45.49768" lon="5.87305">
        <ele>1101.81</ele>
        <time>2011-05-15T13:48:11Z</time>
      </trkpt>
      <trkpt lat="45.49768" lon="5.8731">
        <ele>1101.81</ele>
        <time>2011-05-15T13:48:13Z</time>
      </trkpt>
      <trkpt lat="45.49767" lon="5.87316">
        <ele>1100.85</ele>
        <time>2011-05-15T13:48:15Z</time>
      </trkpt>
      <trkpt lat="45.49768" lon="5.87317">
        <ele>1100.85</ele>
        <time>2011-05-15T13:48:16Z</time>
      </trkpt>
      <trkpt lat="45.49768" lon="5.87319">
        <ele>1099.89</ele>
        <time>2011-05-15T13:48:19Z</time>
      </trkpt>
      <trkpt lat="45.49772" lon="5.87323">
        <ele>1098.44</ele>
        <time>2011-05-15T13:48:28Z</time>
      </trkpt>
      <trkpt lat="45.49773" lon="5.87325">
        <ele>1097.96</ele>
        <time>2011-05-15T13:48:29Z</time>
      </trkpt>
      <trkpt lat="45.49773" lon="5.87326">
        <ele>1097.48</ele>
        <time>2011-05-15T13:48:30Z</time>
      </trkpt>
      <trkpt lat="45.49773" lon="5.87328">
        <ele>1097</ele>
        <time>2011-05-15T13:48:31Z</time>
      </trkpt>
      <trkpt lat="45.49776" lon="5.87334">
        <ele>1094.12</ele>
        <time>2011-05-15T13:48:45Z</time>
      </trkpt>
      <trkpt lat="45.49779" lon="5.87338">
        <ele>1092.2</ele>
        <time>2011-05-15T13:48:50Z</time>
      </trkpt>
      <trkpt lat="45.49783" lon="5.87341">
        <ele>1090.75</ele>
        <time>2011-05-15T13:48:54Z</time>
      </trkpt>
      <trkpt lat="45.49785" lon="5.87343">
        <ele>1090.27</ele>
        <time>2011-05-15T13:48:56Z</time>
      </trkpt>
      <trkpt lat="45.49786" lon="5.87344">
        <ele>1089.31</ele>
        <time>2011-05-15T13:48:57Z</time>
      </trkpt>
      <trkpt lat="45.49786" lon="5.87345">
        <ele>1089.31</ele>
        <time>2011-05-15T13:48:58Z</time>
      </trkpt>
      <trkpt lat="45.49789" lon="5.87351">
        <ele>1087.87</ele>
        <time>2011-05-15T13:49:00Z</time>
      </trkpt>
      <trkpt lat="45.49793" lon="5.87358">
        <ele>1087.87</ele>
        <time>2011-05-15T13:49:03Z</time>
      </trkpt>
      <trkpt lat="45.49807" lon="5.87364">
        <ele>1085.47</ele>
        <time>2011-05-15T13:49:16Z</time>
      </trkpt>
      <trkpt lat="45.49809" lon="5.87364">
        <ele>1084.99</ele>
        <time>2011-05-15T13:49:19Z</time>
      </trkpt>
      <trkpt lat="45.4982" lon="5.87369">
        <ele>1082.58</ele>
        <time>2011-05-15T13:49:28Z</time>
      </trkpt>
      <trkpt lat="45.49832" lon="5.8738">
        <ele>1079.7</ele>
        <time>2011-05-15T13:49:35Z</time>
      </trkpt>
      <trkpt lat="45.49835" lon="5.87382">
        <ele>1078.74</ele>
        <time>2011-05-15T13:49:36Z</time>
      </trkpt>
      <trkpt lat="45.49839" lon="5.87384">
        <ele>1078.74</ele>
        <time>2011-05-15T13:49:37Z</time>
      </trkpt>
      <trkpt lat="45.4984" lon="5.87388">
        <ele>1078.74</ele>
        <time>2011-05-15T13:49:38Z</time>
      </trkpt>
      <trkpt lat="45.4984" lon="5.87391">
        <ele>1078.26</ele>
        <time>2011-05-15T13:49:39Z</time>
      </trkpt>
      <trkpt lat="45.49841" lon="5.87394">
        <ele>1077.78</ele>
        <time>2011-05-15T13:49:40Z</time>
      </trkpt>
      <trkpt lat="45.49844" lon="5.87424">
        <ele>1075.85</ele>
        <time>2011-05-15T13:49:51Z</time>
      </trkpt>
      <trkpt lat="45.49841" lon="5.87428">
        <ele>1075.37</ele>
        <time>2011-05-15T13:49:56Z</time>
      </trkpt>
      <trkpt lat="45.49843" lon="5.87428">
        <ele>1075.85</ele>
        <time>2011-05-15T13:49:57Z</time>
      </trkpt>
      <trkpt lat="45.49852" lon="5.8744">
        <ele>1073.45</ele>
        <time>2011-05-15T13:50:07Z</time>
      </trkpt>
      <trkpt lat="45.4985" lon="5.87442">
        <ele>1073.93</ele>
        <time>2011-05-15T13:50:09Z</time>
      </trkpt>
      <trkpt lat="45.49846" lon="5.87446">
        <ele>1073.45</ele>
        <time>2011-05-15T13:50:14Z</time>
      </trkpt>
      <trkpt lat="45.49846" lon="5.8745">
        <ele>1073.93</ele>
        <time>2011-05-15T13:50:17Z</time>
      </trkpt>
      <trkpt lat="45.49856" lon="5.87457">
        <ele>1072.49</ele>
        <time>2011-05-15T13:50:30Z</time>
      </trkpt>
      <trkpt lat="45.49864" lon="5.87465">
        <ele>1071.05</ele>
        <time>2011-05-15T13:50:35Z</time>
      </trkpt>
      <trkpt lat="45.49875" lon="5.87488">
        <ele>1068.16</ele>
        <time>2011-05-15T13:50:43Z</time>
      </trkpt>
      <trkpt lat="45.49879" lon="5.87494">
        <ele>1067.2</ele>
        <time>2011-05-15T13:50:45Z</time>
      </trkpt>
      <trkpt lat="45.49897" lon="5.87579">
        <ele>1066.24</ele>
        <time>2011-05-15T13:50:59Z</time>
      </trkpt>
      <trkpt lat="45.49904" lon="5.87592">
        <ele>1065.28</ele>
        <time>2011-05-15T13:51:02Z</time>
      </trkpt>
      <trkpt lat="45.49916" lon="5.87604">
        <ele>1062.39</ele>
        <time>2011-05-15T13:51:14Z</time>
      </trkpt>
      <trkpt lat="45.49919" lon="5.87609">
        <ele>1060.95</ele>
        <time>2011-05-15T13:51:28Z</time>
      </trkpt>
      <trkpt lat="45.49925" lon="5.87619">
        <ele>1059.51</ele>
        <time>2011-05-15T13:51:41Z</time>
      </trkpt>
      <trkpt lat="45.4993" lon="5.87622">
        <ele>1056.63</ele>
        <time>2011-05-15T13:51:47Z</time>
      </trkpt>
      <trkpt lat="45.49931" lon="5.87624">
        <ele>1056.15</ele>
        <time>2011-05-15T13:51:49Z</time>
      </trkpt>
      <trkpt lat="45.49934" lon="5.87627">
        <ele>1055.18</ele>
        <time>2011-05-15T13:51:51Z</time>
      </trkpt>
      <trkpt lat="45.49941" lon="5.87631">
        <ele>1051.34</ele>
        <time>2011-05-15T13:52:00Z</time>
      </trkpt>
      <trkpt lat="45.49943" lon="5.87633">
        <ele>1050.86</ele>
        <time>2011-05-15T13:52:01Z</time>
      </trkpt>
      <trkpt lat="45.49945" lon="5.87634">
        <ele>1047.97</ele>
        <time>2011-05-15T13:52:06Z</time>
      </trkpt>
      <trkpt lat="45.49947" lon="5.87635">
        <ele>1047.01</ele>
        <time>2011-05-15T13:52:07Z</time>
      </trkpt>
      <trkpt lat="45.4996" lon="5.87637">
        <ele>1044.61</ele>
        <time>2011-05-15T13:52:13Z</time>
      </trkpt>
      <trkpt lat="45.49971" lon="5.8764">
        <ele>1042.21</ele>
        <time>2011-05-15T13:52:19Z</time>
      </trkpt>
      <trkpt lat="45.49986" lon="5.87639">
        <ele>1038.84</ele>
        <time>2011-05-15T13:52:25Z</time>
      </trkpt>
      <trkpt lat="45.49987" lon="5.8764">
        <ele>1038.36</ele>
        <time>2011-05-15T13:52:26Z</time>
      </trkpt>
      <trkpt lat="45.49994" lon="5.87643">
        <ele>1035</ele>
        <time>2011-05-15T13:52:29Z</time>
      </trkpt>
      <trkpt lat="45.49995" lon="5.87643">
        <ele>1034.52</ele>
        <time>2011-05-15T13:52:30Z</time>
      </trkpt>
      <trkpt lat="45.50011" lon="5.87652">
        <ele>1030.19</ele>
        <time>2011-05-15T13:52:34Z</time>
      </trkpt>
      <trkpt lat="45.50033" lon="5.87662">
        <ele>1027.79</ele>
        <time>2011-05-15T13:52:37Z</time>
      </trkpt>
      <trkpt lat="45.50057" lon="5.87685">
        <ele>1024.9</ele>
        <time>2011-05-15T13:52:45Z</time>
      </trkpt>
      <trkpt lat="45.50066" lon="5.87697">
        <ele>1022.02</ele>
        <time>2011-05-15T13:52:52Z</time>
      </trkpt>
      <trkpt lat="45.50072" lon="5.87703">
        <ele>1019.62</ele>
        <time>2011-05-15T13:52:57Z</time>
      </trkpt>
      <trkpt lat="45.50082" lon="5.87704">
        <ele>1015.77</ele>
        <time>2011-05-15T13:53:03Z</time>
      </trkpt>
      <trkpt lat="45.50084" lon="5.87702">
        <ele>1014.81</ele>
        <time>2011-05-15T13:53:05Z</time>
      </trkpt>
      <trkpt lat="45.50087" lon="5.87699">
        <ele>1013.85</ele>
        <time>2011-05-15T13:53:08Z</time>
      </trkpt>
      <trkpt lat="45.50092" lon="5.877">
        <ele>1012.41</ele>
        <time>2011-05-15T13:53:11Z</time>
      </trkpt>
      <trkpt lat="45.501" lon="5.87704">
        <ele>1009.52</ele>
        <time>2011-05-15T13:53:14Z</time>
      </trkpt>
      <trkpt lat="45.50119" lon="5.8772">
        <ele>1005.68</ele>
        <time>2011-05-15T13:53:21Z</time>
      </trkpt>
      <trkpt lat="45.50135" lon="5.8774">
        <ele>1000.87</ele>
        <time>2011-05-15T13:53:25Z</time>
      </trkpt>
      <trkpt lat="45.50147" lon="5.87759">
        <ele>997.51</ele>
        <time>2011-05-15T13:53:29Z</time>
      </trkpt>
      <trkpt lat="45.50153" lon="5.87769">
        <ele>996.54</ele>
        <time>2011-05-15T13:53:31Z</time>
      </trkpt>
      <trkpt lat="45.50164" lon="5.87777">
        <ele>994.62</ele>
        <time>2011-05-15T13:53:34Z</time>
      </trkpt>
      <trkpt lat="45.50164" lon="5.87775">
        <ele>995.58</ele>
        <time>2011-05-15T13:53:44Z</time>
      </trkpt>
      <trkpt lat="45.50172" lon="5.87789">
        <ele>994.14</ele>
        <time>2011-05-15T13:53:58Z</time>
      </trkpt>
      <trkpt lat="45.50176" lon="5.87797">
        <ele>993.18</ele>
        <time>2011-05-15T13:54:00Z</time>
      </trkpt>
      <trkpt lat="45.5019" lon="5.87816">
        <ele>991.26</ele>
        <time>2011-05-15T13:54:05Z</time>
      </trkpt>
      <trkpt lat="45.50213" lon="5.87841">
        <ele>987.89</ele>
        <time>2011-05-15T13:54:10Z</time>
      </trkpt>
      <trkpt lat="45.50227" lon="5.87857">
        <ele>987.41</ele>
        <time>2011-05-15T13:54:13Z</time>
      </trkpt>
      <trkpt lat="45.50236" lon="5.87889">
        <ele>986.93</ele>
        <time>2011-05-15T13:54:17Z</time>
      </trkpt>
      <trkpt lat="45.50237" lon="5.87898">
        <ele>986.93</ele>
        <time>2011-05-15T13:54:18Z</time>
      </trkpt>
      <trkpt lat="45.50237" lon="5.87906">
        <ele>986.45</ele>
        <time>2011-05-15T13:54:19Z</time>
      </trkpt>
      <trkpt lat="45.50238" lon="5.87913">
        <ele>986.45</ele>
        <time>2011-05-15T13:54:20Z</time>
      </trkpt>
      <trkpt lat="45.50242" lon="5.87958">
        <ele>985.01</ele>
        <time>2011-05-15T13:54:31Z</time>
      </trkpt>
      <trkpt lat="45.50242" lon="5.87959">
        <ele>984.53</ele>
        <time>2011-05-15T13:54:33Z</time>
      </trkpt>
      <trkpt lat="45.50243" lon="5.87963">
        <ele>983.09</ele>
        <time>2011-05-15T13:54:36Z</time>
      </trkpt>
      <trkpt lat="45.50245" lon="5.87964">
        <ele>982.12</ele>
        <time>2011-05-15T13:54:37Z</time>
      </trkpt>
      <trkpt lat="45.50248" lon="5.87979">
        <ele>979.24</ele>
        <time>2011-05-15T13:54:42Z</time>
      </trkpt>
      <trkpt lat="45.50306" lon="5.88045">
        <ele>976.36</ele>
        <time>2011-05-15T13:54:55Z</time>
      </trkpt>
      <trkpt lat="45.50315" lon="5.88053">
        <ele>972.99</ele>
        <time>2011-05-15T13:54:59Z</time>
      </trkpt>
      <trkpt lat="45.50315" lon="5.88052">
        <ele>971.55</ele>
        <time>2011-05-15T13:55:00Z</time>
      </trkpt>
      <trkpt lat="45.50312" lon="5.88052">
        <ele>969.63</ele>
        <time>2011-05-15T13:55:04Z</time>
      </trkpt>
      <trkpt lat="45.50312" lon="5.88056">
        <ele>968.18</ele>
        <time>2011-05-15T13:55:05Z</time>
      </trkpt>
      <trkpt lat="45.5031" lon="5.88068">
        <ele>964.34</ele>
        <time>2011-05-15T13:55:09Z</time>
      </trkpt>
      <trkpt lat="45.50316" lon="5.88079">
        <ele>961.94</ele>
        <time>2011-05-15T13:55:12Z</time>
      </trkpt>
      <trkpt lat="45.50319" lon="5.88081">
        <ele>960.01</ele>
        <time>2011-05-15T13:55:15Z</time>
      </trkpt>
      <trkpt lat="45.50317" lon="5.88081">
        <ele>956.65</ele>
        <time>2011-05-15T13:55:19Z</time>
      </trkpt>
      <trkpt lat="45.50324" lon="5.88087">
        <ele>955.69</ele>
        <time>2011-05-15T13:55:21Z</time>
      </trkpt>
      <trkpt lat="45.50336" lon="5.88102">
        <ele>952.32</ele>
        <time>2011-05-15T13:55:26Z</time>
      </trkpt>
      <trkpt lat="45.50335" lon="5.8811">
        <ele>948.96</ele>
        <time>2011-05-15T13:55:30Z</time>
      </trkpt>
      <trkpt lat="45.5034" lon="5.88112">
        <ele>946.56</ele>
        <time>2011-05-15T13:55:32Z</time>
      </trkpt>
      <trkpt lat="45.50335" lon="5.88121">
        <ele>943.19</ele>
        <time>2011-05-15T13:55:35Z</time>
      </trkpt>
      <trkpt lat="45.50368" lon="5.88126">
        <ele>939.35</ele>
        <time>2011-05-15T13:55:41Z</time>
      </trkpt>
      <trkpt lat="45.50368" lon="5.88127">
        <ele>937.9</ele>
        <time>2011-05-15T13:55:42Z</time>
      </trkpt>
      <trkpt lat="45.50367" lon="5.88131">
        <ele>935.5</ele>
        <time>2011-05-15T13:55:45Z</time>
      </trkpt>
      <trkpt lat="45.50366" lon="5.88149">
        <ele>932.14</ele>
        <time>2011-05-15T13:55:49Z</time>
      </trkpt>
      <trkpt lat="45.50366" lon="5.88151">
        <ele>931.17</ele>
        <time>2011-05-15T13:55:50Z</time>
      </trkpt>
      <trkpt lat="45.50365" lon="5.88155">
        <ele>927.81</ele>
        <time>2011-05-15T13:55:55Z</time>
      </trkpt>
      <trkpt lat="45.50364" lon="5.88154">
        <ele>924.45</ele>
        <time>2011-05-15T13:55:59Z</time>
      </trkpt>
      <trkpt lat="45.50363" lon="5.88155">
        <ele>923</ele>
        <time>2011-05-15T13:56:01Z</time>
      </trkpt>
      <trkpt lat="45.50369" lon="5.88153">
        <ele>922.04</ele>
        <time>2011-05-15T13:56:02Z</time>
      </trkpt>
      <trkpt lat="45.50374" lon="5.88155">
        <ele>918.68</ele>
        <time>2011-05-15T13:56:06Z</time>
      </trkpt>
      <trkpt lat="45.5039" lon="5.88158">
        <ele>916.27</ele>
        <time>2011-05-15T13:56:10Z</time>
      </trkpt>
      <trkpt lat="45.50406" lon="5.88168">
        <ele>912.91</ele>
        <time>2011-05-15T13:56:15Z</time>
      </trkpt>
      <trkpt lat="45.50415" lon="5.88177">
        <ele>909.06</ele>
        <time>2011-05-15T13:56:19Z</time>
      </trkpt>
      <trkpt lat="45.50422" lon="5.8819">
        <ele>906.18</ele>
        <time>2011-05-15T13:56:23Z</time>
      </trkpt>
      <trkpt lat="45.5044" lon="5.88204">
        <ele>902.82</ele>
        <time>2011-05-15T13:56:27Z</time>
      </trkpt>
      <trkpt lat="45.50465" lon="5.88222">
        <ele>899.45</ele>
        <time>2011-05-15T13:56:32Z</time>
      </trkpt>
      <trkpt lat="45.50472" lon="5.88229">
        <ele>897.53</ele>
        <time>2011-05-15T13:56:34Z</time>
      </trkpt>
      <trkpt lat="45.50481" lon="5.88241">
        <ele>894.16</ele>
        <time>2011-05-15T13:56:38Z</time>
      </trkpt>
      <trkpt lat="45.50486" lon="5.88246">
        <ele>893.2</ele>
        <time>2011-05-15T13:56:40Z</time>
      </trkpt>
      <trkpt lat="45.50497" lon="5.88259">
        <ele>889.84</ele>
        <time>2011-05-15T13:56:44Z</time>
      </trkpt>
      <trkpt lat="45.50506" lon="5.88273">
        <ele>886.95</ele>
        <time>2011-05-15T13:56:47Z</time>
      </trkpt>
      <trkpt lat="45.50519" lon="5.88287">
        <ele>883.59</ele>
        <time>2011-05-15T13:56:52Z</time>
      </trkpt>
      <trkpt lat="45.50534" lon="5.88302">
        <ele>879.74</ele>
        <time>2011-05-15T13:56:56Z</time>
      </trkpt>
      <trkpt lat="45.50542" lon="5.88312">
        <ele>877.34</ele>
        <time>2011-05-15T13:56:59Z</time>
      </trkpt>
      <trkpt lat="45.50552" lon="5.88327">
        <ele>873.5</ele>
        <time>2011-05-15T13:57:04Z</time>
      </trkpt>
      <trkpt lat="45.50547" lon="5.88368">
        <ele>870.61</ele>
        <time>2011-05-15T13:57:12Z</time>
      </trkpt>
      <trkpt lat="45.50546" lon="5.88387">
        <ele>869.17</ele>
        <time>2011-05-15T13:57:16Z</time>
      </trkpt>
      <trkpt lat="45.50554" lon="5.88455">
        <ele>866.29</ele>
        <time>2011-05-15T13:57:27Z</time>
      </trkpt>
      <trkpt lat="45.50566" lon="5.88484">
        <ele>862.92</ele>
        <time>2011-05-15T13:57:34Z</time>
      </trkpt>
      <trkpt lat="45.50585" lon="5.88501">
        <ele>859.56</ele>
        <time>2011-05-15T13:57:41Z</time>
      </trkpt>
      <trkpt lat="45.50591" lon="5.88504">
        <ele>855.71</ele>
        <time>2011-05-15T13:57:46Z</time>
      </trkpt>
      <trkpt lat="45.50598" lon="5.88502">
        <ele>851.87</ele>
        <time>2011-05-15T13:57:53Z</time>
      </trkpt>
      <trkpt lat="45.50613" lon="5.88497">
        <ele>848.98</ele>
        <time>2011-05-15T13:57:59Z</time>
      </trkpt>
      <trkpt lat="45.5062" lon="5.8849">
        <ele>845.62</ele>
        <time>2011-05-15T13:58:03Z</time>
      </trkpt>
      <trkpt lat="45.50618" lon="5.8849">
        <ele>845.14</ele>
        <time>2011-05-15T13:58:04Z</time>
      </trkpt>
      <trkpt lat="45.5064" lon="5.88478">
        <ele>842.25</ele>
        <time>2011-05-15T13:58:09Z</time>
      </trkpt>
      <trkpt lat="45.5064" lon="5.88477">
        <ele>841.77</ele>
        <time>2011-05-15T13:58:10Z</time>
      </trkpt>
      <trkpt lat="45.50675" lon="5.8846">
        <ele>838.41</ele>
        <time>2011-05-15T13:58:16Z</time>
      </trkpt>
      <trkpt lat="45.50709" lon="5.88469">
        <ele>835.52</ele>
        <time>2011-05-15T13:58:21Z</time>
      </trkpt>
      <trkpt lat="45.50727" lon="5.8847">
        <ele>832.16</ele>
        <time>2011-05-15T13:58:27Z</time>
      </trkpt>
      <trkpt lat="45.50726" lon="5.8847">
        <ele>830.24</ele>
        <time>2011-05-15T13:58:29Z</time>
      </trkpt>
      <trkpt lat="45.50729" lon="5.88478">
        <ele>827.35</ele>
        <time>2011-05-15T13:58:32Z</time>
      </trkpt>
      <trkpt lat="45.50729" lon="5.88483">
        <ele>825.91</ele>
        <time>2011-05-15T13:58:33Z</time>
      </trkpt>
      <trkpt lat="45.50755" lon="5.88498">
        <ele>825.91</ele>
        <time>2011-05-15T13:58:45Z</time>
      </trkpt>
      <trkpt lat="45.50801" lon="5.88497">
        <ele>823.99</ele>
        <time>2011-05-15T13:58:57Z</time>
      </trkpt>
      <trkpt lat="45.50805" lon="5.88501">
        <ele>822.55</ele>
        <time>2011-05-15T13:59:09Z</time>
      </trkpt>
      <trkpt lat="45.50805" lon="5.88496">
        <ele>823.51</ele>
        <time>2011-05-15T13:59:21Z</time>
      </trkpt>
      <trkpt lat="45.50808" lon="5.88492">
        <ele>824.47</ele>
        <time>2011-05-15T13:59:38Z</time>
      </trkpt>
      <trkpt lat="45.5081" lon="5.88494">
        <ele>824.47</ele>
        <time>2011-05-15T13:59:39Z</time>
      </trkpt>
      <trkpt lat="45.50833" lon="5.8851">
        <ele>827.35</ele>
        <time>2011-05-15T13:59:51Z</time>
      </trkpt>
      <trkpt lat="45.50849" lon="5.8853">
        <ele>823.99</ele>
        <time>2011-05-15T13:59:58Z</time>
      </trkpt>
      <trkpt lat="45.50858" lon="5.88542">
        <ele>821.58</ele>
        <time>2011-05-15T14:00:02Z</time>
      </trkpt>
      <trkpt lat="45.50867" lon="5.88552">
        <ele>818.7</ele>
        <time>2011-05-15T14:00:06Z</time>
      </trkpt>
      <trkpt lat="45.5087" lon="5.88555">
        <ele>818.22</ele>
        <time>2011-05-15T14:00:07Z</time>
      </trkpt>
      <trkpt lat="45.5089" lon="5.88572">
        <ele>815.82</ele>
        <time>2011-05-15T14:00:15Z</time>
      </trkpt>
      <trkpt lat="45.50907" lon="5.88585">
        <ele>811.97</ele>
        <time>2011-05-15T14:00:19Z</time>
      </trkpt>
      <trkpt lat="45.50931" lon="5.88642">
        <ele>808.61</ele>
        <time>2011-05-15T14:00:25Z</time>
      </trkpt>
      <trkpt lat="45.50951" lon="5.88676">
        <ele>805.24</ele>
        <time>2011-05-15T14:00:30Z</time>
      </trkpt>
      <trkpt lat="45.50954" lon="5.88682">
        <ele>804.28</ele>
        <time>2011-05-15T14:00:31Z</time>
      </trkpt>
      <trkpt lat="45.50958" lon="5.88688">
        <ele>803.8</ele>
        <time>2011-05-15T14:00:32Z</time>
      </trkpt>
      <trkpt lat="45.50962" lon="5.88694">
        <ele>802.36</ele>
        <time>2011-05-15T14:00:33Z</time>
      </trkpt>
      <trkpt lat="45.50972" lon="5.88707">
        <ele>801.4</ele>
        <time>2011-05-15T14:00:35Z</time>
      </trkpt>
      <trkpt lat="45.5098" lon="5.8872">
        <ele>800.44</ele>
        <time>2011-05-15T14:00:37Z</time>
      </trkpt>
      <trkpt lat="45.50987" lon="5.88731">
        <ele>798.99</ele>
        <time>2011-05-15T14:00:39Z</time>
      </trkpt>
      <trkpt lat="45.50993" lon="5.88742">
        <ele>797.55</ele>
        <time>2011-05-15T14:00:41Z</time>
      </trkpt>
      <trkpt lat="45.50995" lon="5.88746">
        <ele>796.59</ele>
        <time>2011-05-15T14:00:42Z</time>
      </trkpt>
      <trkpt lat="45.50999" lon="5.8875">
        <ele>796.11</ele>
        <time>2011-05-15T14:00:43Z</time>
      </trkpt>
      <trkpt lat="45.51012" lon="5.88764">
        <ele>792.74</ele>
        <time>2011-05-15T14:00:47Z</time>
      </trkpt>
      <trkpt lat="45.51016" lon="5.88765">
        <ele>792.74</ele>
        <time>2011-05-15T14:00:48Z</time>
      </trkpt>
      <trkpt lat="45.51021" lon="5.88765">
        <ele>792.74</ele>
        <time>2011-05-15T14:00:49Z</time>
      </trkpt>
      <trkpt lat="45.51026" lon="5.88763">
        <ele>791.78</ele>
        <time>2011-05-15T14:00:50Z</time>
      </trkpt>
      <trkpt lat="45.51032" lon="5.88759">
        <ele>791.78</ele>
        <time>2011-05-15T14:00:51Z</time>
      </trkpt>
      <trkpt lat="45.51037" lon="5.88752">
        <ele>790.34</ele>
        <time>2011-05-15T14:00:52Z</time>
      </trkpt>
      <trkpt lat="45.51042" lon="5.88745">
        <ele>789.38</ele>
        <time>2011-05-15T14:00:53Z</time>
      </trkpt>
      <trkpt lat="45.51048" lon="5.88738">
        <ele>788.9</ele>
        <time>2011-05-15T14:00:54Z</time>
      </trkpt>
      <trkpt lat="45.51059" lon="5.88723">
        <ele>786.98</ele>
        <time>2011-05-15T14:00:56Z</time>
      </trkpt>
      <trkpt lat="45.51074" lon="5.88697">
        <ele>785.05</ele>
        <time>2011-05-15T14:01:00Z</time>
      </trkpt>
      <trkpt lat="45.51089" lon="5.8867">
        <ele>782.17</ele>
        <time>2011-05-15T14:01:04Z</time>
      </trkpt>
      <trkpt lat="45.51101" lon="5.88659">
        <ele>779.77</ele>
        <time>2011-05-15T14:01:08Z</time>
      </trkpt>
      <trkpt lat="45.51103" lon="5.8866">
        <ele>781.21</ele>
        <time>2011-05-15T14:01:11Z</time>
      </trkpt>
      <trkpt lat="45.51117" lon="5.88674">
        <ele>777.84</ele>
        <time>2011-05-15T14:01:20Z</time>
      </trkpt>
      <trkpt lat="45.5113" lon="5.88685">
        <ele>775.92</ele>
        <time>2011-05-15T14:01:24Z</time>
      </trkpt>
      <trkpt lat="45.51135" lon="5.88693">
        <ele>774.48</ele>
        <time>2011-05-15T14:01:26Z</time>
      </trkpt>
      <trkpt lat="45.51154" lon="5.88705">
        <ele>771.6</ele>
        <time>2011-05-15T14:01:33Z</time>
      </trkpt>
      <trkpt lat="45.51175" lon="5.88714">
        <ele>768.71</ele>
        <time>2011-05-15T14:01:41Z</time>
      </trkpt>
      <trkpt lat="45.51188" lon="5.8874">
        <ele>765.35</ele>
        <time>2011-05-15T14:01:49Z</time>
      </trkpt>
      <trkpt lat="45.5119" lon="5.8876">
        <ele>763.9</ele>
        <time>2011-05-15T14:01:51Z</time>
      </trkpt>
      <trkpt lat="45.5119" lon="5.88766">
        <ele>762.94</ele>
        <time>2011-05-15T14:01:52Z</time>
      </trkpt>
      <trkpt lat="45.51191" lon="5.88802">
        <ele>761.98</ele>
        <time>2011-05-15T14:02:01Z</time>
      </trkpt>
      <trkpt lat="45.51193" lon="5.88805">
        <ele>761.98</ele>
        <time>2011-05-15T14:02:03Z</time>
      </trkpt>
      <trkpt lat="45.51194" lon="5.88807">
        <ele>762.46</ele>
        <time>2011-05-15T14:02:21Z</time>
      </trkpt>
      <trkpt lat="45.51197" lon="5.88809">
        <ele>762.46</ele>
        <time>2011-05-15T14:02:22Z</time>
      </trkpt>
      <trkpt lat="45.512" lon="5.88811">
        <ele>761.98</ele>
        <time>2011-05-15T14:02:23Z</time>
      </trkpt>
      <trkpt lat="45.51202" lon="5.88814">
        <ele>761.5</ele>
        <time>2011-05-15T14:02:24Z</time>
      </trkpt>
      <trkpt lat="45.51205" lon="5.88818">
        <ele>761.02</ele>
        <time>2011-05-15T14:02:25Z</time>
      </trkpt>
      <trkpt lat="45.51207" lon="5.88823">
        <ele>760.54</ele>
        <time>2011-05-15T14:02:26Z</time>
      </trkpt>
      <trkpt lat="45.51226" lon="5.88857">
        <ele>757.18</ele>
        <time>2011-05-15T14:02:34Z</time>
      </trkpt>
      <trkpt lat="45.51228" lon="5.88859">
        <ele>756.21</ele>
        <time>2011-05-15T14:02:35Z</time>
      </trkpt>
      <trkpt lat="45.51236" lon="5.88877">
        <ele>752.85</ele>
        <time>2011-05-15T14:02:46Z</time>
      </trkpt>
      <trkpt lat="45.51234" lon="5.88877">
        <ele>752.85</ele>
        <time>2011-05-15T14:02:47Z</time>
      </trkpt>
      <trkpt lat="45.51229" lon="5.88891">
        <ele>750.93</ele>
        <time>2011-05-15T14:02:55Z</time>
      </trkpt>
      <trkpt lat="45.51229" lon="5.88899">
        <ele>750.45</ele>
        <time>2011-05-15T14:03:08Z</time>
      </trkpt>
      <trkpt lat="45.5123" lon="5.88901">
        <ele>749.97</ele>
        <time>2011-05-15T14:03:13Z</time>
      </trkpt>
      <trkpt lat="45.51233" lon="5.88905">
        <ele>751.41</ele>
        <time>2011-05-15T14:03:23Z</time>
      </trkpt>
      <trkpt lat="45.51235" lon="5.88912">
        <ele>750.45</ele>
        <time>2011-05-15T14:03:28Z</time>
      </trkpt>
      <trkpt lat="45.51237" lon="5.88913">
        <ele>750.45</ele>
        <time>2011-05-15T14:03:29Z</time>
      </trkpt>
      <trkpt lat="45.51238" lon="5.88914">
        <ele>750.45</ele>
        <time>2011-05-15T14:03:30Z</time>
      </trkpt>
      <trkpt lat="45.51239" lon="5.88916">
        <ele>750.45</ele>
        <time>2011-05-15T14:03:31Z</time>
      </trkpt>
      <trkpt lat="45.51241" lon="5.88918">
        <ele>750.45</ele>
        <time>2011-05-15T14:03:32Z</time>
      </trkpt>
      <trkpt lat="45.51242" lon="5.88921">
        <ele>750.45</ele>
        <time>2011-05-15T14:03:33Z</time>
      </trkpt>
      <trkpt lat="45.51243" lon="5.88925">
        <ele>750.45</ele>
        <time>2011-05-15T14:03:34Z</time>
      </trkpt>
      <trkpt lat="45.51244" lon="5.88928">
        <ele>749.97</ele>
        <time>2011-05-15T14:03:35Z</time>
      </trkpt>
      <trkpt lat="45.51251" lon="5.88941">
        <ele>748.52</ele>
        <time>2011-05-15T14:03:39Z</time>
      </trkpt>
      <trkpt lat="45.51255" lon="5.88952">
        <ele>745.16</ele>
        <time>2011-05-15T14:03:43Z</time>
      </trkpt>
      <trkpt lat="45.51266" lon="5.88964">
        <ele>742.28</ele>
        <time>2011-05-15T14:03:51Z</time>
      </trkpt>
      <trkpt lat="45.51288" lon="5.88974">
        <ele>738.91</ele>
        <time>2011-05-15T14:04:01Z</time>
      </trkpt>
      <trkpt lat="45.51323" lon="5.88974">
        <ele>735.55</ele>
        <time>2011-05-15T14:04:09Z</time>
      </trkpt>
      <trkpt lat="45.51343" lon="5.88982">
        <ele>732.66</ele>
        <time>2011-05-15T14:04:16Z</time>
      </trkpt>
      <trkpt lat="45.51344" lon="5.88984">
        <ele>732.18</ele>
        <time>2011-05-15T14:04:17Z</time>
      </trkpt>
      <trkpt lat="45.51374" lon="5.88992">
        <ele>729.3</ele>
        <time>2011-05-15T14:04:26Z</time>
      </trkpt>
      <trkpt lat="45.51382" lon="5.88995">
        <ele>728.34</ele>
        <time>2011-05-15T14:04:37Z</time>
      </trkpt>
      <trkpt lat="45.51384" lon="5.88995">
        <ele>727.86</ele>
        <time>2011-05-15T14:04:38Z</time>
      </trkpt>
      <trkpt lat="45.51389" lon="5.88994">
        <ele>725.93</ele>
        <time>2011-05-15T14:04:41Z</time>
      </trkpt>
      <trkpt lat="45.51416" lon="5.89008">
        <ele>722.57</ele>
        <time>2011-05-15T14:04:53Z</time>
      </trkpt>
      <trkpt lat="45.51435" lon="5.89021">
        <ele>720.16</ele>
        <time>2011-05-15T14:05:01Z</time>
      </trkpt>
      <trkpt lat="45.51438" lon="5.89023">
        <ele>720.16</ele>
        <time>2011-05-15T14:05:03Z</time>
      </trkpt>
      <trkpt lat="45.51445" lon="5.89028">
        <ele>718.72</ele>
        <time>2011-05-15T14:05:06Z</time>
      </trkpt>
      <trkpt lat="45.5145" lon="5.89033">
        <ele>718.24</ele>
        <time>2011-05-15T14:05:08Z</time>
      </trkpt>
      <trkpt lat="45.51452" lon="5.89035">
        <ele>718.24</ele>
        <time>2011-05-15T14:05:09Z</time>
      </trkpt>
      <trkpt lat="45.51453" lon="5.89036">
        <ele>718.24</ele>
        <time>2011-05-15T14:05:10Z</time>
      </trkpt>
      <trkpt lat="45.5151" lon="5.89057">
        <ele>716.8</ele>
        <time>2011-05-15T14:05:23Z</time>
      </trkpt>
      <trkpt lat="45.51539" lon="5.8908">
        <ele>716.8</ele>
        <time>2011-05-15T14:05:34Z</time>
      </trkpt>
      <trkpt lat="45.51569" lon="5.89106">
        <ele>718.24</ele>
        <time>2011-05-15T14:05:47Z</time>
      </trkpt>
      <trkpt lat="45.51594" lon="5.89117">
        <ele>720.65</ele>
        <time>2011-05-15T14:06:01Z</time>
      </trkpt>
      <trkpt lat="45.51603" lon="5.89121">
        <ele>722.09</ele>
        <time>2011-05-15T14:06:13Z</time>
      </trkpt>
      <trkpt lat="45.51603" lon="5.89121">
        <ele>721.61</ele>
        <time>2011-05-15T14:06:33Z</time>
      </trkpt>
      <trkpt lat="45.51606" lon="5.8912">
        <ele>721.13</ele>
        <time>2011-05-15T14:06:45Z</time>
      </trkpt>
      <trkpt lat="45.51607" lon="5.89121">
        <ele>720.65</ele>
        <time>2011-05-15T14:06:46Z</time>
      </trkpt>
      <trkpt lat="45.51608" lon="5.8912">
        <ele>720.65</ele>
        <time>2011-05-15T14:06:47Z</time>
      </trkpt>
      <trkpt lat="45.51616" lon="5.89116">
        <ele>718.72</ele>
        <time>2011-05-15T14:06:54Z</time>
      </trkpt>
      <trkpt lat="45.51621" lon="5.89114">
        <ele>715.36</ele>
        <time>2011-05-15T14:06:58Z</time>
      </trkpt>
      <trkpt lat="45.51624" lon="5.89114">
        <ele>714.4</ele>
        <time>2011-05-15T14:07:00Z</time>
      </trkpt>
      <trkpt lat="45.51634" lon="5.8912">
        <ele>711.03</ele>
        <time>2011-05-15T14:07:05Z</time>
      </trkpt>
      <trkpt lat="45.51637" lon="5.89122">
        <ele>710.07</ele>
        <time>2011-05-15T14:07:06Z</time>
      </trkpt>
      <trkpt lat="45.51637" lon="5.89122">
        <ele>710.07</ele>
        <time>2011-05-15T14:07:07Z</time>
      </trkpt>
      <trkpt lat="45.51642" lon="5.89125">
        <ele>709.11</ele>
        <time>2011-05-15T14:07:08Z</time>
      </trkpt>
      <trkpt lat="45.5165" lon="5.89132">
        <ele>705.75</ele>
        <time>2011-05-15T14:07:11Z</time>
      </trkpt>
      <trkpt lat="45.51658" lon="5.89136">
        <ele>706.23</ele>
        <time>2011-05-15T14:07:13Z</time>
      </trkpt>
      <trkpt lat="45.51711" lon="5.89157">
        <ele>704.3</ele>
        <time>2011-05-15T14:07:23Z</time>
      </trkpt>
      <trkpt lat="45.51762" lon="5.89206">
        <ele>703.34</ele>
        <time>2011-05-15T14:07:36Z</time>
      </trkpt>
      <trkpt lat="45.51778" lon="5.89229">
        <ele>706.23</ele>
        <time>2011-05-15T14:07:46Z</time>
      </trkpt>
      <trkpt lat="45.51801" lon="5.89235">
        <ele>706.23</ele>
        <time>2011-05-15T14:08:00Z</time>
      </trkpt>
      <trkpt lat="45.51828" lon="5.89244">
        <ele>709.59</ele>
        <time>2011-05-15T14:08:13Z</time>
      </trkpt>
      <trkpt lat="45.51849" lon="5.89272">
        <ele>707.67</ele>
        <time>2011-05-15T14:08:26Z</time>
      </trkpt>
      <trkpt lat="45.51855" lon="5.89284">
        <ele>706.23</ele>
        <time>2011-05-15T14:08:30Z</time>
      </trkpt>
      <trkpt lat="45.51862" lon="5.89297">
        <ele>703.34</ele>
        <time>2011-05-15T14:08:33Z</time>
      </trkpt>
      <trkpt lat="45.51891" lon="5.89347">
        <ele>701.42</ele>
        <time>2011-05-15T14:08:46Z</time>
      </trkpt>
      <trkpt lat="45.51917" lon="5.89378">
        <ele>700.46</ele>
        <time>2011-05-15T14:09:00Z</time>
      </trkpt>
      <trkpt lat="45.51929" lon="5.89385">
        <ele>701.42</ele>
        <time>2011-05-15T14:09:13Z</time>
      </trkpt>
      <trkpt lat="45.51933" lon="5.89385">
        <ele>701.9</ele>
        <time>2011-05-15T14:09:27Z</time>
      </trkpt>
      <trkpt lat="45.51959" lon="5.89397">
        <ele>702.38</ele>
        <time>2011-05-15T14:09:40Z</time>
      </trkpt>
      <trkpt lat="45.51984" lon="5.89411">
        <ele>704.3</ele>
        <time>2011-05-15T14:09:53Z</time>
      </trkpt>
      <trkpt lat="45.51999" lon="5.89423">
        <ele>706.23</ele>
        <time>2011-05-15T14:10:02Z</time>
      </trkpt>
      <trkpt lat="45.52022" lon="5.89436">
        <ele>708.63</ele>
        <time>2011-05-15T14:10:16Z</time>
      </trkpt>
      <trkpt lat="45.52048" lon="5.89447">
        <ele>711.51</ele>
        <time>2011-05-15T14:10:31Z</time>
      </trkpt>
      <trkpt lat="45.52077" lon="5.89468">
        <ele>713.44</ele>
        <time>2011-05-15T14:10:46Z</time>
      </trkpt>
      <trkpt lat="45.52107" lon="5.89513">
        <ele>712.95</ele>
        <time>2011-05-15T14:11:01Z</time>
      </trkpt>
      <trkpt lat="45.52136" lon="5.8955">
        <ele>711.03</ele>
        <time>2011-05-15T14:11:12Z</time>
      </trkpt>
      <trkpt lat="45.5214" lon="5.89553">
        <ele>710.55</ele>
        <time>2011-05-15T14:11:13Z</time>
      </trkpt>
      <trkpt lat="45.52152" lon="5.89566">
        <ele>707.67</ele>
        <time>2011-05-15T14:11:16Z</time>
      </trkpt>
      <trkpt lat="45.52155" lon="5.8957">
        <ele>707.67</ele>
        <time>2011-05-15T14:11:17Z</time>
      </trkpt>
      <trkpt lat="45.52158" lon="5.89603">
        <ele>703.82</ele>
        <time>2011-05-15T14:11:23Z</time>
      </trkpt>
      <trkpt lat="45.52159" lon="5.89609">
        <ele>702.86</ele>
        <time>2011-05-15T14:11:24Z</time>
      </trkpt>
      <trkpt lat="45.52162" lon="5.89624">
        <ele>700.46</ele>
        <time>2011-05-15T14:11:27Z</time>
      </trkpt>
      <trkpt lat="45.52169" lon="5.89646">
        <ele>697.57</ele>
        <time>2011-05-15T14:11:30Z</time>
      </trkpt>
      <trkpt lat="45.52169" lon="5.8968">
        <ele>695.65</ele>
        <time>2011-05-15T14:11:35Z</time>
      </trkpt>
      <trkpt lat="45.52132" lon="5.897">
        <ele>697.09</ele>
        <time>2011-05-15T14:11:46Z</time>
      </trkpt>
      <trkpt lat="45.52154" lon="5.89681">
        <ele>700.46</ele>
        <time>2011-05-15T14:12:00Z</time>
      </trkpt>
      <trkpt lat="45.5219" lon="5.89701">
        <ele>702.86</ele>
        <time>2011-05-15T14:12:16Z</time>
      </trkpt>
      <trkpt lat="45.52208" lon="5.89722">
        <ele>703.82</ele>
        <time>2011-05-15T14:12:28Z</time>
      </trkpt>
      <trkpt lat="45.52234" lon="5.89757">
        <ele>703.34</ele>
        <time>2011-05-15T14:12:42Z</time>
      </trkpt>
      <trkpt lat="45.52253" lon="5.89802">
        <ele>701.9</ele>
        <time>2011-05-15T14:12:50Z</time>
      </trkpt>
      <trkpt lat="45.52255" lon="5.89809">
        <ele>702.38</ele>
        <time>2011-05-15T14:12:51Z</time>
      </trkpt>
      <trkpt lat="45.52256" lon="5.89816">
        <ele>702.86</ele>
        <time>2011-05-15T14:12:52Z</time>
      </trkpt>
      <trkpt lat="45.52256" lon="5.89822">
        <ele>702.86</ele>
        <time>2011-05-15T14:12:53Z</time>
      </trkpt>
      <trkpt lat="45.52257" lon="5.89828">
        <ele>702.86</ele>
        <time>2011-05-15T14:12:54Z</time>
      </trkpt>
      <trkpt lat="45.52266" lon="5.89882">
        <ele>702.38</ele>
        <time>2011-05-15T14:13:03Z</time>
      </trkpt>
      <trkpt lat="45.52267" lon="5.89889">
        <ele>702.38</ele>
        <time>2011-05-15T14:13:04Z</time>
      </trkpt>
      <trkpt lat="45.52288" lon="5.89973">
        <ele>701.42</ele>
        <time>2011-05-15T14:13:17Z</time>
      </trkpt>
      <trkpt lat="45.52326" lon="5.90079">
        <ele>698.53</ele>
        <time>2011-05-15T14:13:32Z</time>
      </trkpt>
      <trkpt lat="45.52332" lon="5.90092">
        <ele>698.05</ele>
        <time>2011-05-15T14:13:34Z</time>
      </trkpt>
      <trkpt lat="45.52362" lon="5.90133">
        <ele>695.17</ele>
        <time>2011-05-15T14:13:40Z</time>
      </trkpt>
      <trkpt lat="45.52401" lon="5.90172">
        <ele>691.81</ele>
        <time>2011-05-15T14:13:46Z</time>
      </trkpt>
      <trkpt lat="45.52407" lon="5.90182">
        <ele>690.36</ele>
        <time>2011-05-15T14:13:47Z</time>
      </trkpt>
      <trkpt lat="45.52413" lon="5.90193">
        <ele>689.88</ele>
        <time>2011-05-15T14:13:48Z</time>
      </trkpt>
      <trkpt lat="45.52419" lon="5.90205">
        <ele>687</ele>
        <time>2011-05-15T14:13:49Z</time>
      </trkpt>
      <trkpt lat="45.52437" lon="5.90247">
        <ele>682.67</ele>
        <time>2011-05-15T14:13:52Z</time>
      </trkpt>
      <trkpt lat="45.52459" lon="5.90289">
        <ele>679.31</ele>
        <time>2011-05-15T14:13:55Z</time>
      </trkpt>
      <trkpt lat="45.52478" lon="5.90327">
        <ele>676.42</ele>
        <time>2011-05-15T14:13:58Z</time>
      </trkpt>
      <trkpt lat="45.52483" lon="5.90339">
        <ele>675.94</ele>
        <time>2011-05-15T14:13:59Z</time>
      </trkpt>
      <trkpt lat="45.52492" lon="5.90364">
        <ele>672.58</ele>
        <time>2011-05-15T14:14:01Z</time>
      </trkpt>
      <trkpt lat="45.52502" lon="5.90385">
        <ele>669.22</ele>
        <time>2011-05-15T14:14:03Z</time>
      </trkpt>
      <trkpt lat="45.52509" lon="5.90393">
        <ele>667.77</ele>
        <time>2011-05-15T14:14:04Z</time>
      </trkpt>
      <trkpt lat="45.52515" lon="5.90397">
        <ele>667.77</ele>
        <time>2011-05-15T14:14:05Z</time>
      </trkpt>
      <trkpt lat="45.5252" lon="5.90399">
        <ele>668.73</ele>
        <time>2011-05-15T14:14:06Z</time>
      </trkpt>
      <trkpt lat="45.52527" lon="5.904">
        <ele>669.22</ele>
        <time>2011-05-15T14:14:07Z</time>
      </trkpt>
      <trkpt lat="45.52553" lon="5.90395">
        <ele>671.62</ele>
        <time>2011-05-15T14:14:12Z</time>
      </trkpt>
      <trkpt lat="45.52562" lon="5.90395">
        <ele>672.1</ele>
        <time>2011-05-15T14:14:14Z</time>
      </trkpt>
      <trkpt lat="45.52587" lon="5.90394">
        <ele>674.5</ele>
        <time>2011-05-15T14:14:20Z</time>
      </trkpt>
      <trkpt lat="45.52604" lon="5.90396">
        <ele>674.98</ele>
        <time>2011-05-15T14:14:24Z</time>
      </trkpt>
      <trkpt lat="45.52627" lon="5.90405">
        <ele>672.58</ele>
        <time>2011-05-15T14:14:28Z</time>
      </trkpt>
      <trkpt lat="45.52633" lon="5.90409">
        <ele>671.62</ele>
        <time>2011-05-15T14:14:29Z</time>
      </trkpt>
      <trkpt lat="45.52639" lon="5.90415">
        <ele>670.66</ele>
        <time>2011-05-15T14:14:30Z</time>
      </trkpt>
      <trkpt lat="45.52653" lon="5.90431">
        <ele>668.25</ele>
        <time>2011-05-15T14:14:32Z</time>
      </trkpt>
      <trkpt lat="45.52673" lon="5.90463">
        <ele>664.41</ele>
        <time>2011-05-15T14:14:35Z</time>
      </trkpt>
      <trkpt lat="45.52684" lon="5.90485">
        <ele>661.52</ele>
        <time>2011-05-15T14:14:37Z</time>
      </trkpt>
      <trkpt lat="45.52701" lon="5.90515">
        <ele>657.68</ele>
        <time>2011-05-15T14:14:40Z</time>
      </trkpt>
      <trkpt lat="45.52712" lon="5.90535">
        <ele>654.8</ele>
        <time>2011-05-15T14:14:42Z</time>
      </trkpt>
      <trkpt lat="45.52725" lon="5.90574">
        <ele>651.91</ele>
        <time>2011-05-15T14:14:46Z</time>
      </trkpt>
      <trkpt lat="45.52731" lon="5.90619">
        <ele>648.55</ele>
        <time>2011-05-15T14:14:50Z</time>
      </trkpt>
      <trkpt lat="45.52734" lon="5.90639">
        <ele>647.59</ele>
        <time>2011-05-15T14:14:52Z</time>
      </trkpt>
      <trkpt lat="45.52737" lon="5.90651">
        <ele>647.1</ele>
        <time>2011-05-15T14:14:54Z</time>
      </trkpt>
      <trkpt lat="45.5274" lon="5.90654">
        <ele>646.62</ele>
        <time>2011-05-15T14:14:55Z</time>
      </trkpt>
      <trkpt lat="45.52745" lon="5.90655">
        <ele>646.62</ele>
        <time>2011-05-15T14:14:56Z</time>
      </trkpt>
      <trkpt lat="45.52752" lon="5.90655">
        <ele>645.66</ele>
        <time>2011-05-15T14:14:57Z</time>
      </trkpt>
      <trkpt lat="45.52759" lon="5.90654">
        <ele>644.22</ele>
        <time>2011-05-15T14:14:58Z</time>
      </trkpt>
      <trkpt lat="45.52786" lon="5.9065">
        <ele>640.86</ele>
        <time>2011-05-15T14:15:01Z</time>
      </trkpt>
      <trkpt lat="45.52808" lon="5.90644">
        <ele>637.01</ele>
        <time>2011-05-15T14:15:03Z</time>
      </trkpt>
      <trkpt lat="45.52819" lon="5.90639">
        <ele>635.57</ele>
        <time>2011-05-15T14:15:04Z</time>
      </trkpt>
      <trkpt lat="45.52842" lon="5.90629">
        <ele>633.17</ele>
        <time>2011-05-15T14:15:06Z</time>
      </trkpt>
      <trkpt lat="45.52864" lon="5.90624">
        <ele>631.24</ele>
        <time>2011-05-15T14:15:08Z</time>
      </trkpt>
      <trkpt lat="45.52876" lon="5.90625">
        <ele>631.24</ele>
        <time>2011-05-15T14:15:09Z</time>
      </trkpt>
      <trkpt lat="45.52932" lon="5.9063">
        <ele>625.96</ele>
        <time>2011-05-15T14:15:14Z</time>
      </trkpt>
      <trkpt lat="45.52956" lon="5.90631">
        <ele>623.07</ele>
        <time>2011-05-15T14:15:16Z</time>
      </trkpt>
      <trkpt lat="45.5298" lon="5.90631">
        <ele>619.71</ele>
        <time>2011-05-15T14:15:18Z</time>
      </trkpt>
      <trkpt lat="45.53015" lon="5.90634">
        <ele>616.82</ele>
        <time>2011-05-15T14:15:21Z</time>
      </trkpt>
      <trkpt lat="45.53049" lon="5.90635">
        <ele>613.46</ele>
        <time>2011-05-15T14:15:24Z</time>
      </trkpt>
      <trkpt lat="45.53084" lon="5.90636">
        <ele>608.65</ele>
        <time>2011-05-15T14:15:27Z</time>
      </trkpt>
      <trkpt lat="45.53119" lon="5.90638">
        <ele>604.81</ele>
        <time>2011-05-15T14:15:30Z</time>
      </trkpt>
      <trkpt lat="45.5313" lon="5.9064">
        <ele>602.88</ele>
        <time>2011-05-15T14:15:31Z</time>
      </trkpt>
      <trkpt lat="45.5314" lon="5.90643">
        <ele>600.96</ele>
        <time>2011-05-15T14:15:32Z</time>
      </trkpt>
      <trkpt lat="45.53148" lon="5.90648">
        <ele>600.48</ele>
        <time>2011-05-15T14:15:33Z</time>
      </trkpt>
      <trkpt lat="45.53154" lon="5.90651">
        <ele>599.52</ele>
        <time>2011-05-15T14:15:34Z</time>
      </trkpt>
      <trkpt lat="45.53158" lon="5.90654">
        <ele>598.56</ele>
        <time>2011-05-15T14:15:35Z</time>
      </trkpt>
      <trkpt lat="45.53162" lon="5.90657">
        <ele>598.08</ele>
        <time>2011-05-15T14:15:36Z</time>
      </trkpt>
      <trkpt lat="45.53166" lon="5.90661">
        <ele>598.56</ele>
        <time>2011-05-15T14:15:37Z</time>
      </trkpt>
      <trkpt lat="45.5321" lon="5.90695">
        <ele>595.19</ele>
        <time>2011-05-15T14:15:44Z</time>
      </trkpt>
      <trkpt lat="45.53249" lon="5.90735">
        <ele>593.27</ele>
        <time>2011-05-15T14:15:50Z</time>
      </trkpt>
      <trkpt lat="45.53254" lon="5.90744">
        <ele>593.75</ele>
        <time>2011-05-15T14:15:51Z</time>
      </trkpt>
      <trkpt lat="45.53259" lon="5.90753">
        <ele>592.79</ele>
        <time>2011-05-15T14:15:52Z</time>
      </trkpt>
      <trkpt lat="45.53275" lon="5.90791">
        <ele>591.83</ele>
        <time>2011-05-15T14:15:56Z</time>
      </trkpt>
      <trkpt lat="45.5328" lon="5.908">
        <ele>592.31</ele>
        <time>2011-05-15T14:15:57Z</time>
      </trkpt>
      <trkpt lat="45.53287" lon="5.90807">
        <ele>592.31</ele>
        <time>2011-05-15T14:15:58Z</time>
      </trkpt>
      <trkpt lat="45.53294" lon="5.90811">
        <ele>592.31</ele>
        <time>2011-05-15T14:15:59Z</time>
      </trkpt>
      <trkpt lat="45.53302" lon="5.90811">
        <ele>591.83</ele>
        <time>2011-05-15T14:16:00Z</time>
      </trkpt>
      <trkpt lat="45.5331" lon="5.90809">
        <ele>591.83</ele>
        <time>2011-05-15T14:16:01Z</time>
      </trkpt>
      <trkpt lat="45.53318" lon="5.90806">
        <ele>591.35</ele>
        <time>2011-05-15T14:16:02Z</time>
      </trkpt>
      <trkpt lat="45.534" lon="5.90782">
        <ele>587.98</ele>
        <time>2011-05-15T14:16:12Z</time>
      </trkpt>
      <trkpt lat="45.53511" lon="5.90759">
        <ele>586.06</ele>
        <time>2011-05-15T14:16:26Z</time>
      </trkpt>
      <trkpt lat="45.53548" lon="5.9075">
        <ele>584.62</ele>
        <time>2011-05-15T14:16:31Z</time>
      </trkpt>
      <trkpt lat="45.53555" lon="5.9075">
        <ele>583.66</ele>
        <time>2011-05-15T14:16:32Z</time>
      </trkpt>
      <trkpt lat="45.53563" lon="5.90751">
        <ele>583.66</ele>
        <time>2011-05-15T14:16:33Z</time>
      </trkpt>
      <trkpt lat="45.53584" lon="5.90757">
        <ele>583.18</ele>
        <time>2011-05-15T14:16:36Z</time>
      </trkpt>
      <trkpt lat="45.53591" lon="5.90761">
        <ele>583.66</ele>
        <time>2011-05-15T14:16:37Z</time>
      </trkpt>
      <trkpt lat="45.53598" lon="5.90766">
        <ele>582.22</ele>
        <time>2011-05-15T14:16:38Z</time>
      </trkpt>
      <trkpt lat="45.53605" lon="5.90772">
        <ele>582.22</ele>
        <time>2011-05-15T14:16:39Z</time>
      </trkpt>
      <trkpt lat="45.5364" lon="5.90807">
        <ele>578.85</ele>
        <time>2011-05-15T14:16:44Z</time>
      </trkpt>
      <trkpt lat="45.53647" lon="5.90815">
        <ele>578.37</ele>
        <time>2011-05-15T14:16:45Z</time>
      </trkpt>
      <trkpt lat="45.53685" lon="5.90856">
        <ele>575.49</ele>
        <time>2011-05-15T14:16:50Z</time>
      </trkpt>
      <trkpt lat="45.53692" lon="5.90862">
        <ele>575.01</ele>
        <time>2011-05-15T14:16:51Z</time>
      </trkpt>
      <trkpt lat="45.537" lon="5.90862">
        <ele>575.01</ele>
        <time>2011-05-15T14:16:52Z</time>
      </trkpt>
      <trkpt lat="45.53707" lon="5.90858">
        <ele>575.01</ele>
        <time>2011-05-15T14:16:53Z</time>
      </trkpt>
      <trkpt lat="45.53713" lon="5.90849">
        <ele>574.53</ele>
        <time>2011-05-15T14:16:54Z</time>
      </trkpt>
      <trkpt lat="45.53718" lon="5.90841">
        <ele>574.53</ele>
        <time>2011-05-15T14:16:55Z</time>
      </trkpt>
      <trkpt lat="45.53725" lon="5.90834">
        <ele>573.08</ele>
        <time>2011-05-15T14:16:56Z</time>
      </trkpt>
      <trkpt lat="45.53732" lon="5.90831">
        <ele>572.12</ele>
        <time>2011-05-15T14:16:57Z</time>
      </trkpt>
      <trkpt lat="45.53739" lon="5.90831">
        <ele>572.12</ele>
        <time>2011-05-15T14:16:58Z</time>
      </trkpt>
      <trkpt lat="45.53747" lon="5.90834">
        <ele>571.16</ele>
        <time>2011-05-15T14:16:59Z</time>
      </trkpt>
      <trkpt lat="45.53756" lon="5.90834">
        <ele>570.2</ele>
        <time>2011-05-15T14:17:00Z</time>
      </trkpt>
      <trkpt lat="45.53764" lon="5.90829">
        <ele>569.24</ele>
        <time>2011-05-15T14:17:01Z</time>
      </trkpt>
      <trkpt lat="45.53772" lon="5.90822">
        <ele>568.28</ele>
        <time>2011-05-15T14:17:02Z</time>
      </trkpt>
      <trkpt lat="45.53779" lon="5.90817">
        <ele>567.32</ele>
        <time>2011-05-15T14:17:03Z</time>
      </trkpt>
      <trkpt lat="45.53786" lon="5.90817">
        <ele>567.32</ele>
        <time>2011-05-15T14:17:04Z</time>
      </trkpt>
      <trkpt lat="45.53793" lon="5.90822">
        <ele>567.32</ele>
        <time>2011-05-15T14:17:05Z</time>
      </trkpt>
      <trkpt lat="45.538" lon="5.9083">
        <ele>566.83</ele>
        <time>2011-05-15T14:17:06Z</time>
      </trkpt>
      <trkpt lat="45.53807" lon="5.90837">
        <ele>564.43</ele>
        <time>2011-05-15T14:17:07Z</time>
      </trkpt>
      <trkpt lat="45.53816" lon="5.90839">
        <ele>563.95</ele>
        <time>2011-05-15T14:17:08Z</time>
      </trkpt>
      <trkpt lat="45.53826" lon="5.90839">
        <ele>562.03</ele>
        <time>2011-05-15T14:17:09Z</time>
      </trkpt>
      <trkpt lat="45.53836" lon="5.9084">
        <ele>561.07</ele>
        <time>2011-05-15T14:17:10Z</time>
      </trkpt>
      <trkpt lat="45.53847" lon="5.90844">
        <ele>560.59</ele>
        <time>2011-05-15T14:17:11Z</time>
      </trkpt>
      <trkpt lat="45.53857" lon="5.90849">
        <ele>559.62</ele>
        <time>2011-05-15T14:17:12Z</time>
      </trkpt>
      <trkpt lat="45.53866" lon="5.90855">
        <ele>559.62</ele>
        <time>2011-05-15T14:17:13Z</time>
      </trkpt>
      <trkpt lat="45.53874" lon="5.90862">
        <ele>558.66</ele>
        <time>2011-05-15T14:17:14Z</time>
      </trkpt>
      <trkpt lat="45.53943" lon="5.9091">
        <ele>558.18</ele>
        <time>2011-05-15T14:17:23Z</time>
      </trkpt>
      <trkpt lat="45.53997" lon="5.90962">
        <ele>554.82</ele>
        <time>2011-05-15T14:17:33Z</time>
      </trkpt>
      <trkpt lat="45.54004" lon="5.90966">
        <ele>554.82</ele>
        <time>2011-05-15T14:17:34Z</time>
      </trkpt>
      <trkpt lat="45.5401" lon="5.90969">
        <ele>554.34</ele>
        <time>2011-05-15T14:17:35Z</time>
      </trkpt>
      <trkpt lat="45.54014" lon="5.90975">
        <ele>553.86</ele>
        <time>2011-05-15T14:17:36Z</time>
      </trkpt>
      <trkpt lat="45.54014" lon="5.90981">
        <ele>553.86</ele>
        <time>2011-05-15T14:17:37Z</time>
      </trkpt>
      <trkpt lat="45.54012" lon="5.90988">
        <ele>553.38</ele>
        <time>2011-05-15T14:17:38Z</time>
      </trkpt>
      <trkpt lat="45.54009" lon="5.90993">
        <ele>553.86</ele>
        <time>2011-05-15T14:17:39Z</time>
      </trkpt>
      <trkpt lat="45.54006" lon="5.90997">
        <ele>553.86</ele>
        <time>2011-05-15T14:17:40Z</time>
      </trkpt>
      <trkpt lat="45.53985" lon="5.91026">
        <ele>551.93</ele>
        <time>2011-05-15T14:17:45Z</time>
      </trkpt>
      <trkpt lat="45.53982" lon="5.91035">
        <ele>551.45</ele>
        <time>2011-05-15T14:17:46Z</time>
      </trkpt>
      <trkpt lat="45.53981" lon="5.91045">
        <ele>550.49</ele>
        <time>2011-05-15T14:17:47Z</time>
      </trkpt>
      <trkpt lat="45.53982" lon="5.91055">
        <ele>550.49</ele>
        <time>2011-05-15T14:17:48Z</time>
      </trkpt>
      <trkpt lat="45.53983" lon="5.91065">
        <ele>549.53</ele>
        <time>2011-05-15T14:17:49Z</time>
      </trkpt>
      <trkpt lat="45.53986" lon="5.91075">
        <ele>550.01</ele>
        <time>2011-05-15T14:17:50Z</time>
      </trkpt>
      <trkpt lat="45.53988" lon="5.91084">
        <ele>549.05</ele>
        <time>2011-05-15T14:17:51Z</time>
      </trkpt>
      <trkpt lat="45.54009" lon="5.91173">
        <ele>545.2</ele>
        <time>2011-05-15T14:18:01Z</time>
      </trkpt>
      <trkpt lat="45.54013" lon="5.91189">
        <ele>543.76</ele>
        <time>2011-05-15T14:18:03Z</time>
      </trkpt>
      <trkpt lat="45.54016" lon="5.91204">
        <ele>542.32</ele>
        <time>2011-05-15T14:18:05Z</time>
      </trkpt>
      <trkpt lat="45.54017" lon="5.9121">
        <ele>541.36</ele>
        <time>2011-05-15T14:18:06Z</time>
      </trkpt>
      <trkpt lat="45.54018" lon="5.91215">
        <ele>540.88</ele>
        <time>2011-05-15T14:18:07Z</time>
      </trkpt>
      <trkpt lat="45.54019" lon="5.91219">
        <ele>540.88</ele>
        <time>2011-05-15T14:18:08Z</time>
      </trkpt>
      <trkpt lat="45.5402" lon="5.91225">
        <ele>540.4</ele>
        <time>2011-05-15T14:18:09Z</time>
      </trkpt>
      <trkpt lat="45.54022" lon="5.91239">
        <ele>538.48</ele>
        <time>2011-05-15T14:18:11Z</time>
      </trkpt>
      <trkpt lat="45.54022" lon="5.91248">
        <ele>538.48</ele>
        <time>2011-05-15T14:18:12Z</time>
      </trkpt>
      <trkpt lat="45.54024" lon="5.9128">
        <ele>535.59</ele>
        <time>2011-05-15T14:18:15Z</time>
      </trkpt>
      <trkpt lat="45.54027" lon="5.91291">
        <ele>535.11</ele>
        <time>2011-05-15T14:18:16Z</time>
      </trkpt>
      <trkpt lat="45.54031" lon="5.91301">
        <ele>534.15</ele>
        <time>2011-05-15T14:18:17Z</time>
      </trkpt>
      <trkpt lat="45.54039" lon="5.91308">
        <ele>533.67</ele>
        <time>2011-05-15T14:18:18Z</time>
      </trkpt>
      <trkpt lat="45.54047" lon="5.91313">
        <ele>532.23</ele>
        <time>2011-05-15T14:18:19Z</time>
      </trkpt>
      <trkpt lat="45.54057" lon="5.91314">
        <ele>531.27</ele>
        <time>2011-05-15T14:18:20Z</time>
      </trkpt>
      <trkpt lat="45.54067" lon="5.91315">
        <ele>529.82</ele>
        <time>2011-05-15T14:18:21Z</time>
      </trkpt>
      <trkpt lat="45.54078" lon="5.91315">
        <ele>528.86</ele>
        <time>2011-05-15T14:18:22Z</time>
      </trkpt>
      <trkpt lat="45.54089" lon="5.91315">
        <ele>527.42</ele>
        <time>2011-05-15T14:18:23Z</time>
      </trkpt>
      <trkpt lat="45.541" lon="5.91317">
        <ele>526.46</ele>
        <time>2011-05-15T14:18:24Z</time>
      </trkpt>
      <trkpt lat="45.54112" lon="5.91321">
        <ele>525.98</ele>
        <time>2011-05-15T14:18:25Z</time>
      </trkpt>
      <trkpt lat="45.54145" lon="5.91334">
        <ele>522.13</ele>
        <time>2011-05-15T14:18:28Z</time>
      </trkpt>
      <trkpt lat="45.54189" lon="5.91352">
        <ele>518.77</ele>
        <time>2011-05-15T14:18:32Z</time>
      </trkpt>
      <trkpt lat="45.542" lon="5.91356">
        <ele>518.77</ele>
        <time>2011-05-15T14:18:33Z</time>
      </trkpt>
      <trkpt lat="45.54234" lon="5.91369">
        <ele>515.88</ele>
        <time>2011-05-15T14:18:36Z</time>
      </trkpt>
      <trkpt lat="45.54266" lon="5.91383">
        <ele>512.52</ele>
        <time>2011-05-15T14:18:39Z</time>
      </trkpt>
      <trkpt lat="45.54275" lon="5.91386">
        <ele>512.04</ele>
        <time>2011-05-15T14:18:40Z</time>
      </trkpt>
      <trkpt lat="45.54283" lon="5.91386">
        <ele>510.6</ele>
        <time>2011-05-15T14:18:41Z</time>
      </trkpt>
      <trkpt lat="45.54291" lon="5.91382">
        <ele>510.12</ele>
        <time>2011-05-15T14:18:42Z</time>
      </trkpt>
      <trkpt lat="45.54298" lon="5.91376">
        <ele>509.16</ele>
        <time>2011-05-15T14:18:43Z</time>
      </trkpt>
      <trkpt lat="45.54304" lon="5.91368">
        <ele>508.19</ele>
        <time>2011-05-15T14:18:44Z</time>
      </trkpt>
      <trkpt lat="45.54308" lon="5.91358">
        <ele>507.71</ele>
        <time>2011-05-15T14:18:45Z</time>
      </trkpt>
      <trkpt lat="45.54314" lon="5.91347">
        <ele>505.79</ele>
        <time>2011-05-15T14:18:46Z</time>
      </trkpt>
      <trkpt lat="45.54319" lon="5.91336">
        <ele>504.83</ele>
        <time>2011-05-15T14:18:47Z</time>
      </trkpt>
      <trkpt lat="45.54324" lon="5.91323">
        <ele>504.35</ele>
        <time>2011-05-15T14:18:48Z</time>
      </trkpt>
      <trkpt lat="45.54335" lon="5.91301">
        <ele>500.98</ele>
        <time>2011-05-15T14:18:50Z</time>
      </trkpt>
      <trkpt lat="45.5434" lon="5.91292">
        <ele>500.5</ele>
        <time>2011-05-15T14:18:51Z</time>
      </trkpt>
      <trkpt lat="45.54345" lon="5.91286">
        <ele>500.02</ele>
        <time>2011-05-15T14:18:52Z</time>
      </trkpt>
      <trkpt lat="45.54352" lon="5.91284">
        <ele>498.58</ele>
        <time>2011-05-15T14:18:53Z</time>
      </trkpt>
      <trkpt lat="45.54359" lon="5.91285">
        <ele>498.58</ele>
        <time>2011-05-15T14:18:54Z</time>
      </trkpt>
      <trkpt lat="45.54368" lon="5.91285">
        <ele>496.66</ele>
        <time>2011-05-15T14:18:55Z</time>
      </trkpt>
      <trkpt lat="45.54376" lon="5.91282">
        <ele>496.18</ele>
        <time>2011-05-15T14:18:56Z</time>
      </trkpt>
      <trkpt lat="45.54392" lon="5.91274">
        <ele>495.22</ele>
        <time>2011-05-15T14:18:58Z</time>
      </trkpt>
      <trkpt lat="45.54399" lon="5.91268">
        <ele>494.26</ele>
        <time>2011-05-15T14:18:59Z</time>
      </trkpt>
      <trkpt lat="45.54406" lon="5.91263">
        <ele>494.26</ele>
        <time>2011-05-15T14:19:00Z</time>
      </trkpt>
      <trkpt lat="45.54411" lon="5.9126">
        <ele>493.29</ele>
        <time>2011-05-15T14:19:01Z</time>
      </trkpt>
      <trkpt lat="45.54416" lon="5.91262">
        <ele>493.29</ele>
        <time>2011-05-15T14:19:02Z</time>
      </trkpt>
      <trkpt lat="45.54419" lon="5.91267">
        <ele>491.85</ele>
        <time>2011-05-15T14:19:03Z</time>
      </trkpt>
      <trkpt lat="45.54419" lon="5.91274">
        <ele>491.37</ele>
        <time>2011-05-15T14:19:04Z</time>
      </trkpt>
      <trkpt lat="45.54417" lon="5.91283">
        <ele>490.89</ele>
        <time>2011-05-15T14:19:05Z</time>
      </trkpt>
      <trkpt lat="45.54415" lon="5.91303">
        <ele>489.93</ele>
        <time>2011-05-15T14:19:07Z</time>
      </trkpt>
      <trkpt lat="45.54417" lon="5.91324">
        <ele>488.97</ele>
        <time>2011-05-15T14:19:09Z</time>
      </trkpt>
      <trkpt lat="45.54421" lon="5.91334">
        <ele>488.01</ele>
        <time>2011-05-15T14:19:10Z</time>
      </trkpt>
      <trkpt lat="45.54427" lon="5.91344">
        <ele>488.01</ele>
        <time>2011-05-15T14:19:11Z</time>
      </trkpt>
      <trkpt lat="45.54432" lon="5.91354">
        <ele>486.56</ele>
        <time>2011-05-15T14:19:12Z</time>
      </trkpt>
      <trkpt lat="45.54437" lon="5.91365">
        <ele>486.08</ele>
        <time>2011-05-15T14:19:13Z</time>
      </trkpt>
      <trkpt lat="45.54441" lon="5.91377">
        <ele>485.6</ele>
        <time>2011-05-15T14:19:14Z</time>
      </trkpt>
      <trkpt lat="45.54443" lon="5.9139">
        <ele>484.64</ele>
        <time>2011-05-15T14:19:15Z</time>
      </trkpt>
      <trkpt lat="45.54445" lon="5.91404">
        <ele>483.2</ele>
        <time>2011-05-15T14:19:16Z</time>
      </trkpt>
      <trkpt lat="45.54445" lon="5.91419">
        <ele>483.2</ele>
        <time>2011-05-15T14:19:17Z</time>
      </trkpt>
      <trkpt lat="45.54446" lon="5.91433">
        <ele>482.24</ele>
        <time>2011-05-15T14:19:18Z</time>
      </trkpt>
      <trkpt lat="45.54446" lon="5.91464">
        <ele>481.76</ele>
        <time>2011-05-15T14:19:20Z</time>
      </trkpt>
      <trkpt lat="45.54445" lon="5.91478">
        <ele>479.84</ele>
        <time>2011-05-15T14:19:21Z</time>
      </trkpt>
      <trkpt lat="45.54443" lon="5.91492">
        <ele>479.35</ele>
        <time>2011-05-15T14:19:22Z</time>
      </trkpt>
      <trkpt lat="45.54438" lon="5.91504">
        <ele>478.87</ele>
        <time>2011-05-15T14:19:23Z</time>
      </trkpt>
      <trkpt lat="45.54419" lon="5.91531">
        <ele>477.91</ele>
        <time>2011-05-15T14:19:26Z</time>
      </trkpt>
      <trkpt lat="45.54413" lon="5.9154">
        <ele>476.95</ele>
        <time>2011-05-15T14:19:27Z</time>
      </trkpt>
      <trkpt lat="45.54408" lon="5.91549">
        <ele>476.95</ele>
        <time>2011-05-15T14:19:28Z</time>
      </trkpt>
      <trkpt lat="45.54406" lon="5.91561">
        <ele>476.95</ele>
        <time>2011-05-15T14:19:29Z</time>
      </trkpt>
      <trkpt lat="45.54404" lon="5.91572">
        <ele>476.95</ele>
        <time>2011-05-15T14:19:30Z</time>
      </trkpt>
      <trkpt lat="45.54398" lon="5.91613">
        <ele>475.99</ele>
        <time>2011-05-15T14:19:35Z</time>
      </trkpt>
      <trkpt lat="45.544" lon="5.91616">
        <ele>476.47</ele>
        <time>2011-05-15T14:19:36Z</time>
      </trkpt>
      <trkpt lat="45.54401" lon="5.91618">
        <ele>476.47</ele>
        <time>2011-05-15T14:19:37Z</time>
      </trkpt>
      <trkpt lat="45.54404" lon="5.9162">
        <ele>475.51</ele>
        <time>2011-05-15T14:19:38Z</time>
      </trkpt>
      <trkpt lat="45.54409" lon="5.91622">
        <ele>475.03</ele>
        <time>2011-05-15T14:19:39Z</time>
      </trkpt>
      <trkpt lat="45.54414" lon="5.91623">
        <ele>473.59</ele>
        <time>2011-05-15T14:19:40Z</time>
      </trkpt>
      <trkpt lat="45.5442" lon="5.91622">
        <ele>473.59</ele>
        <time>2011-05-15T14:19:41Z</time>
      </trkpt>
      <trkpt lat="45.54427" lon="5.91622">
        <ele>473.11</ele>
        <time>2011-05-15T14:19:42Z</time>
      </trkpt>
      <trkpt lat="45.54477" lon="5.91627">
        <ele>471.18</ele>
        <time>2011-05-15T14:19:48Z</time>
      </trkpt>
      <trkpt lat="45.54485" lon="5.91632">
        <ele>470.22</ele>
        <time>2011-05-15T14:19:49Z</time>
      </trkpt>
      <trkpt lat="45.54494" lon="5.9164">
        <ele>469.74</ele>
        <time>2011-05-15T14:19:50Z</time>
      </trkpt>
      <trkpt lat="45.54501" lon="5.91648">
        <ele>467.82</ele>
        <time>2011-05-15T14:19:51Z</time>
      </trkpt>
      <trkpt lat="45.54508" lon="5.91659">
        <ele>467.82</ele>
        <time>2011-05-15T14:19:52Z</time>
      </trkpt>
      <trkpt lat="45.54513" lon="5.91671">
        <ele>467.34</ele>
        <time>2011-05-15T14:19:53Z</time>
      </trkpt>
      <trkpt lat="45.54519" lon="5.91683">
        <ele>465.9</ele>
        <time>2011-05-15T14:19:54Z</time>
      </trkpt>
      <trkpt lat="45.5453" lon="5.91708">
        <ele>464.93</ele>
        <time>2011-05-15T14:19:56Z</time>
      </trkpt>
      <trkpt lat="45.54546" lon="5.91765">
        <ele>461.09</ele>
        <time>2011-05-15T14:20:00Z</time>
      </trkpt>
      <trkpt lat="45.54548" lon="5.91781">
        <ele>460.13</ele>
        <time>2011-05-15T14:20:01Z</time>
      </trkpt>
      <trkpt lat="45.54546" lon="5.91814">
        <ele>457.72</ele>
        <time>2011-05-15T14:20:03Z</time>
      </trkpt>
      <trkpt lat="45.54543" lon="5.91831">
        <ele>457.24</ele>
        <time>2011-05-15T14:20:04Z</time>
      </trkpt>
      <trkpt lat="45.54536" lon="5.91864">
        <ele>455.32</ele>
        <time>2011-05-15T14:20:06Z</time>
      </trkpt>
      <trkpt lat="45.54531" lon="5.9188">
        <ele>454.84</ele>
        <time>2011-05-15T14:20:07Z</time>
      </trkpt>
      <trkpt lat="45.54518" lon="5.91909">
        <ele>452.92</ele>
        <time>2011-05-15T14:20:09Z</time>
      </trkpt>
      <trkpt lat="45.5451" lon="5.91922">
        <ele>452.44</ele>
        <time>2011-05-15T14:20:10Z</time>
      </trkpt>
      <trkpt lat="45.54501" lon="5.91934">
        <ele>450.52</ele>
        <time>2011-05-15T14:20:11Z</time>
      </trkpt>
      <trkpt lat="45.54492" lon="5.91945">
        <ele>450.03</ele>
        <time>2011-05-15T14:20:12Z</time>
      </trkpt>
      <trkpt lat="45.54482" lon="5.91954">
        <ele>449.55</ele>
        <time>2011-05-15T14:20:13Z</time>
      </trkpt>
      <trkpt lat="45.54472" lon="5.91963">
        <ele>449.07</ele>
        <time>2011-05-15T14:20:14Z</time>
      </trkpt>
      <trkpt lat="45.54463" lon="5.91973">
        <ele>447.15</ele>
        <time>2011-05-15T14:20:15Z</time>
      </trkpt>
      <trkpt lat="45.54454" lon="5.91985">
        <ele>446.67</ele>
        <time>2011-05-15T14:20:16Z</time>
      </trkpt>
      <trkpt lat="45.54446" lon="5.91998">
        <ele>444.75</ele>
        <time>2011-05-15T14:20:17Z</time>
      </trkpt>
      <trkpt lat="45.5444" lon="5.92011">
        <ele>444.27</ele>
        <time>2011-05-15T14:20:18Z</time>
      </trkpt>
      <trkpt lat="45.54434" lon="5.92024">
        <ele>444.75</ele>
        <time>2011-05-15T14:20:19Z</time>
      </trkpt>
      <trkpt lat="45.54429" lon="5.92036">
        <ele>443.79</ele>
        <time>2011-05-15T14:20:20Z</time>
      </trkpt>
      <trkpt lat="45.54427" lon="5.92048">
        <ele>443.31</ele>
        <time>2011-05-15T14:20:21Z</time>
      </trkpt>
      <trkpt lat="45.54427" lon="5.92059">
        <ele>442.82</ele>
        <time>2011-05-15T14:20:22Z</time>
      </trkpt>
      <trkpt lat="45.5443" lon="5.92067">
        <ele>442.34</ele>
        <time>2011-05-15T14:20:23Z</time>
      </trkpt>
      <trkpt lat="45.54436" lon="5.92073">
        <ele>442.34</ele>
        <time>2011-05-15T14:20:24Z</time>
      </trkpt>
      <trkpt lat="45.54444" lon="5.92077">
        <ele>441.86</ele>
        <time>2011-05-15T14:20:25Z</time>
      </trkpt>
      <trkpt lat="45.54453" lon="5.92081">
        <ele>441.38</ele>
        <time>2011-05-15T14:20:26Z</time>
      </trkpt>
      <trkpt lat="45.5447" lon="5.92087">
        <ele>440.9</ele>
        <time>2011-05-15T14:20:28Z</time>
      </trkpt>
      <trkpt lat="45.54478" lon="5.92088">
        <ele>441.86</ele>
        <time>2011-05-15T14:20:29Z</time>
      </trkpt>
      <trkpt lat="45.54486" lon="5.92088">
        <ele>441.38</ele>
        <time>2011-05-15T14:20:30Z</time>
      </trkpt>
      <trkpt lat="45.54494" lon="5.92087">
        <ele>441.38</ele>
        <time>2011-05-15T14:20:31Z</time>
      </trkpt>
      <trkpt lat="45.54501" lon="5.92085">
        <ele>442.34</ele>
        <time>2011-05-15T14:20:32Z</time>
      </trkpt>
      <trkpt lat="45.54565" lon="5.92071">
        <ele>443.31</ele>
        <time>2011-05-15T14:20:40Z</time>
      </trkpt>
      <trkpt lat="45.54594" lon="5.92066">
        <ele>444.75</ele>
        <time>2011-05-15T14:20:44Z</time>
      </trkpt>
      <trkpt lat="45.54601" lon="5.92066">
        <ele>444.75</ele>
        <time>2011-05-15T14:20:45Z</time>
      </trkpt>
      <trkpt lat="45.54607" lon="5.92067">
        <ele>445.23</ele>
        <time>2011-05-15T14:20:46Z</time>
      </trkpt>
      <trkpt lat="45.54684" lon="5.92081">
        <ele>445.71</ele>
        <time>2011-05-15T14:20:58Z</time>
      </trkpt>
      <trkpt lat="45.54703" lon="5.92084">
        <ele>445.23</ele>
        <time>2011-05-15T14:21:01Z</time>
      </trkpt>
      <trkpt lat="45.54725" lon="5.92092">
        <ele>443.79</ele>
        <time>2011-05-15T14:21:05Z</time>
      </trkpt>
      <trkpt lat="45.54737" lon="5.92096">
        <ele>443.79</ele>
        <time>2011-05-15T14:21:07Z</time>
      </trkpt>
      <trkpt lat="45.54743" lon="5.92096">
        <ele>441.86</ele>
        <time>2011-05-15T14:21:08Z</time>
      </trkpt>
      <trkpt lat="45.54749" lon="5.92093">
        <ele>442.34</ele>
        <time>2011-05-15T14:21:09Z</time>
      </trkpt>
      <trkpt lat="45.54756" lon="5.92088">
        <ele>441.86</ele>
        <time>2011-05-15T14:21:10Z</time>
      </trkpt>
      <trkpt lat="45.54763" lon="5.92081">
        <ele>440.42</ele>
        <time>2011-05-15T14:21:11Z</time>
      </trkpt>
      <trkpt lat="45.54768" lon="5.92072">
        <ele>439.94</ele>
        <time>2011-05-15T14:21:12Z</time>
      </trkpt>
      <trkpt lat="45.54774" lon="5.92062">
        <ele>438.98</ele>
        <time>2011-05-15T14:21:13Z</time>
      </trkpt>
      <trkpt lat="45.54785" lon="5.92041">
        <ele>438.02</ele>
        <time>2011-05-15T14:21:15Z</time>
      </trkpt>
      <trkpt lat="45.54832" lon="5.91959">
        <ele>437.54</ele>
        <time>2011-05-15T14:21:25Z</time>
      </trkpt>
      <trkpt lat="45.54844" lon="5.91946">
        <ele>438.5</ele>
        <time>2011-05-15T14:21:28Z</time>
      </trkpt>
      <trkpt lat="45.54848" lon="5.91943">
        <ele>438.02</ele>
        <time>2011-05-15T14:21:29Z</time>
      </trkpt>
      <trkpt lat="45.54856" lon="5.91937">
        <ele>438.98</ele>
        <time>2011-05-15T14:21:31Z</time>
      </trkpt>
      <trkpt lat="45.5486" lon="5.91933">
        <ele>438.98</ele>
        <time>2011-05-15T14:21:32Z</time>
      </trkpt>
      <trkpt lat="45.54867" lon="5.91928">
        <ele>439.94</ele>
        <time>2011-05-15T14:21:34Z</time>
      </trkpt>
      <trkpt lat="45.54871" lon="5.91925">
        <ele>439.94</ele>
        <time>2011-05-15T14:21:35Z</time>
      </trkpt>
      <trkpt lat="45.54875" lon="5.91922">
        <ele>440.9</ele>
        <time>2011-05-15T14:21:36Z</time>
      </trkpt>
      <trkpt lat="45.54908" lon="5.91906">
        <ele>441.86</ele>
        <time>2011-05-15T14:21:44Z</time>
      </trkpt>
      <trkpt lat="45.54929" lon="5.91891">
        <ele>444.75</ele>
        <time>2011-05-15T14:21:51Z</time>
      </trkpt>
      <trkpt lat="45.54954" lon="5.91861">
        <ele>447.63</ele>
        <time>2011-05-15T14:22:03Z</time>
      </trkpt>
      <trkpt lat="45.54984" lon="5.91839">
        <ele>450.52</ele>
        <time>2011-05-15T14:22:16Z</time>
      </trkpt>
      <trkpt lat="45.55016" lon="5.91833">
        <ele>452.92</ele>
        <time>2011-05-15T14:22:28Z</time>
      </trkpt>
      <trkpt lat="45.55024" lon="5.91833">
        <ele>454.36</ele>
        <time>2011-05-15T14:22:31Z</time>
      </trkpt>
      <trkpt lat="45.55061" lon="5.91829">
        <ele>453.88</ele>
        <time>2011-05-15T14:22:42Z</time>
      </trkpt>
      <trkpt lat="45.55105" lon="5.91823">
        <ele>451.96</ele>
        <time>2011-05-15T14:22:51Z</time>
      </trkpt>
      <trkpt lat="45.5511" lon="5.9182">
        <ele>451.96</ele>
        <time>2011-05-15T14:22:52Z</time>
      </trkpt>
      <trkpt lat="45.55113" lon="5.91816">
        <ele>451.48</ele>
        <time>2011-05-15T14:22:53Z</time>
      </trkpt>
      <trkpt lat="45.55116" lon="5.9181">
        <ele>451.48</ele>
        <time>2011-05-15T14:22:54Z</time>
      </trkpt>
      <trkpt lat="45.55118" lon="5.91805">
        <ele>451.48</ele>
        <time>2011-05-15T14:22:55Z</time>
      </trkpt>
      <trkpt lat="45.55121" lon="5.91801">
        <ele>451</ele>
        <time>2011-05-15T14:22:56Z</time>
      </trkpt>
      <trkpt lat="45.55124" lon="5.91799">
        <ele>450.52</ele>
        <time>2011-05-15T14:22:57Z</time>
      </trkpt>
      <trkpt lat="45.55125" lon="5.91796">
        <ele>450.52</ele>
        <time>2011-05-15T14:22:58Z</time>
      </trkpt>
      <trkpt lat="45.55127" lon="5.91791">
        <ele>450.03</ele>
        <time>2011-05-15T14:22:59Z</time>
      </trkpt>
      <trkpt lat="45.55129" lon="5.91785">
        <ele>448.59</ele>
        <time>2011-05-15T14:23:00Z</time>
      </trkpt>
      <trkpt lat="45.5513" lon="5.91779">
        <ele>448.59</ele>
        <time>2011-05-15T14:23:01Z</time>
      </trkpt>
      <trkpt lat="45.55136" lon="5.91764">
        <ele>447.63</ele>
        <time>2011-05-15T14:23:03Z</time>
      </trkpt>
      <trkpt lat="45.55153" lon="5.9173">
        <ele>444.27</ele>
        <time>2011-05-15T14:23:07Z</time>
      </trkpt>
      <trkpt lat="45.55158" lon="5.91722">
        <ele>443.31</ele>
        <time>2011-05-15T14:23:08Z</time>
      </trkpt>
      <trkpt lat="45.55178" lon="5.91698">
        <ele>438.98</ele>
        <time>2011-05-15T14:23:11Z</time>
      </trkpt>
      <trkpt lat="45.55191" lon="5.91679">
        <ele>435.13</ele>
        <time>2011-05-15T14:23:13Z</time>
      </trkpt>
      <trkpt lat="45.55206" lon="5.9166">
        <ele>431.77</ele>
        <time>2011-05-15T14:23:15Z</time>
      </trkpt>
      <trkpt lat="45.55222" lon="5.91641">
        <ele>428.4</ele>
        <time>2011-05-15T14:23:17Z</time>
      </trkpt>
      <trkpt lat="45.55237" lon="5.91621">
        <ele>425.52</ele>
        <time>2011-05-15T14:23:19Z</time>
      </trkpt>
      <trkpt lat="45.55254" lon="5.91601">
        <ele>421.19</ele>
        <time>2011-05-15T14:23:21Z</time>
      </trkpt>
      <trkpt lat="45.55273" lon="5.91575">
        <ele>418.31</ele>
        <time>2011-05-15T14:23:24Z</time>
      </trkpt>
      <trkpt lat="45.55284" lon="5.91561">
        <ele>414.95</ele>
        <time>2011-05-15T14:23:26Z</time>
      </trkpt>
      <trkpt lat="45.55288" lon="5.91557">
        <ele>414.95</ele>
        <time>2011-05-15T14:23:27Z</time>
      </trkpt>
      <trkpt lat="45.5529" lon="5.91552">
        <ele>413.98</ele>
        <time>2011-05-15T14:23:28Z</time>
      </trkpt>
      <trkpt lat="45.5529" lon="5.91548">
        <ele>414.47</ele>
        <time>2011-05-15T14:23:29Z</time>
      </trkpt>
      <trkpt lat="45.5529" lon="5.91544">
        <ele>413.5</ele>
        <time>2011-05-15T14:23:30Z</time>
      </trkpt>
      <trkpt lat="45.5529" lon="5.91541">
        <ele>413.02</ele>
        <time>2011-05-15T14:23:31Z</time>
      </trkpt>
      <trkpt lat="45.55291" lon="5.91538">
        <ele>413.02</ele>
        <time>2011-05-15T14:23:32Z</time>
      </trkpt>
      <trkpt lat="45.55293" lon="5.91535">
        <ele>412.06</ele>
        <time>2011-05-15T14:23:33Z</time>
      </trkpt>
      <trkpt lat="45.55295" lon="5.9153">
        <ele>411.1</ele>
        <time>2011-05-15T14:23:34Z</time>
      </trkpt>
      <trkpt lat="45.55298" lon="5.91525">
        <ele>410.14</ele>
        <time>2011-05-15T14:23:35Z</time>
      </trkpt>
      <trkpt lat="45.553" lon="5.9152">
        <ele>409.66</ele>
        <time>2011-05-15T14:23:36Z</time>
      </trkpt>
      <trkpt lat="45.55301" lon="5.91514">
        <ele>409.66</ele>
        <time>2011-05-15T14:23:37Z</time>
      </trkpt>
      <trkpt lat="45.55302" lon="5.91509">
        <ele>409.18</ele>
        <time>2011-05-15T14:23:38Z</time>
      </trkpt>
      <trkpt lat="45.55304" lon="5.91504">
        <ele>409.18</ele>
        <time>2011-05-15T14:23:39Z</time>
      </trkpt>
      <trkpt lat="45.55306" lon="5.91501">
        <ele>409.18</ele>
        <time>2011-05-15T14:23:40Z</time>
      </trkpt>
      <trkpt lat="45.55308" lon="5.915">
        <ele>409.66</ele>
        <time>2011-05-15T14:23:41Z</time>
      </trkpt>
      <trkpt lat="45.55309" lon="5.915">
        <ele>409.66</ele>
        <time>2011-05-15T14:23:42Z</time>
      </trkpt>
      <trkpt lat="45.55311" lon="5.91501">
        <ele>408.7</ele>
        <time>2011-05-15T14:23:43Z</time>
      </trkpt>
      <trkpt lat="45.55313" lon="5.91502">
        <ele>408.22</ele>
        <time>2011-05-15T14:23:44Z</time>
      </trkpt>
      <trkpt lat="45.55324" lon="5.91504">
        <ele>405.33</ele>
        <time>2011-05-15T14:23:48Z</time>
      </trkpt>
      <trkpt lat="45.55346" lon="5.91512">
        <ele>405.33</ele>
        <time>2011-05-15T14:23:56Z</time>
      </trkpt>
      <trkpt lat="45.5535" lon="5.91512">
        <ele>404.85</ele>
        <time>2011-05-15T14:23:57Z</time>
      </trkpt>
      <trkpt lat="45.55354" lon="5.91511">
        <ele>405.33</ele>
        <time>2011-05-15T14:23:58Z</time>
      </trkpt>
      <trkpt lat="45.55358" lon="5.91511">
        <ele>404.85</ele>
        <time>2011-05-15T14:23:59Z</time>
      </trkpt>
      <trkpt lat="45.55362" lon="5.91512">
        <ele>405.33</ele>
        <time>2011-05-15T14:24:00Z</time>
      </trkpt>
      <trkpt lat="45.55365" lon="5.91513">
        <ele>405.33</ele>
        <time>2011-05-15T14:24:01Z</time>
      </trkpt>
      <trkpt lat="45.5537" lon="5.91515">
        <ele>405.33</ele>
        <time>2011-05-15T14:24:03Z</time>
      </trkpt>
      <trkpt lat="45.5537" lon="5.91514">
        <ele>404.37</ele>
        <time>2011-05-15T14:24:10Z</time>
      </trkpt>
    </trkseg>
  </trk>
</gpx>